<?xml version='1.0' encoding='UTF-8'?><gpx version="1.1" creator="JPX - https://github.com/jenetics/jpx" xmlns="http://www.topografix.com/GPX/1/1"><trk><trkseg><trkpt lat="41.816175743051716" lon="12.64492072600801"><ele>139.0</ele><time>2026-04-12T07:02:28.001Z</time></trkpt><trkpt lat="41.81614210746012" lon="12.644824947343752"><ele>139.0</ele><time>2026-04-12T07:02:52.001Z</time></trkpt><trkpt lat="41.816113759575565" lon="12.644735468653211"><ele>139.0</ele><time>2026-04-12T07:02:55.001Z</time></trkpt><trkpt lat="41.816085963394954" lon="12.644649725870769"><ele>139.0</ele><time>2026-04-12T07:02:58.001Z</time></trkpt><trkpt lat="41.816031048209226" lon="12.644582922797706"><ele>139.0</ele><time>2026-04-12T07:03:02Z</time></trkpt><trkpt lat="41.81597135547675" lon="12.644644771869947"><ele>139.0</ele><time>2026-04-12T07:03:13Z</time></trkpt><trkpt lat="41.81591116904439" lon="12.64468632168688"><ele>139.0</ele><time>2026-04-12T07:03:16Z</time></trkpt><trkpt lat="41.81583446569596" lon="12.644715759716169"><ele>139.83333333333334</ele><time>2026-04-12T07:03:19Z</time></trkpt><trkpt lat="41.81575610484236" lon="12.644756574812215"><ele>140.66666666666669</ele><time>2026-04-12T07:03:22Z</time></trkpt><trkpt lat="41.81568001055899" lon="12.644799077908205"><ele>141.5</ele><time>2026-04-12T07:03:25Z</time></trkpt><trkpt lat="41.81559959813634" lon="12.64483907003107"><ele>142.33333333333334</ele><time>2026-04-12T07:03:28Z</time></trkpt><trkpt lat="41.81552221210287" lon="12.644881364430265"><ele>143.16666666666666</ele><time>2026-04-12T07:03:31Z</time></trkpt><trkpt lat="41.815434825445664" lon="12.644924760229143"><ele>144.0</ele><time>2026-04-12T07:03:34Z</time></trkpt><trkpt lat="41.81534902595627" lon="12.64497210458244"><ele>144.0</ele><time>2026-04-12T07:03:37Z</time></trkpt><trkpt lat="41.815261759624846" lon="12.645011949621763"><ele>144.0</ele><time>2026-04-12T07:03:40Z</time></trkpt><trkpt lat="41.815180731482236" lon="12.645063859209214"><ele>144.0</ele><time>2026-04-12T07:03:43Z</time></trkpt><trkpt lat="41.81509717362476" lon="12.645120043598988"><ele>144.0</ele><time>2026-04-12T07:03:46Z</time></trkpt><trkpt lat="41.81505063731516" lon="12.64518268925924"><ele>144.0</ele><time>2026-04-12T07:03:48Z</time></trkpt><trkpt lat="41.815011137042525" lon="12.645249223933503"><ele>144.0</ele><time>2026-04-12T07:03:50Z</time></trkpt><trkpt lat="41.81493955262236" lon="12.64531620715056"><ele>145.57142857142858</ele><time>2026-04-12T07:03:53Z</time></trkpt><trkpt lat="41.81488169140093" lon="12.645365511789144"><ele>147.14285714285714</ele><time>2026-04-12T07:03:55Z</time></trkpt><trkpt lat="41.814858675082334" lon="12.645459412470093"><ele>148.71428571428572</ele><time>2026-04-12T07:03:57Z</time></trkpt><trkpt lat="41.81480653299069" lon="12.645518582818985"><ele>150.28571428571428</ele><time>2026-04-12T07:03:59Z</time></trkpt><trkpt lat="41.814722499754176" lon="12.645556620839065"><ele>151.85714285714286</ele><time>2026-04-12T07:04:02Z</time></trkpt><trkpt lat="41.81466283188476" lon="12.645605119202546"><ele>153.42857142857144</ele><time>2026-04-12T07:04:04Z</time></trkpt><trkpt lat="41.81460526992452" lon="12.645641636067658"><ele>155.0</ele><time>2026-04-12T07:04:06Z</time></trkpt><trkpt lat="41.81454447676533" lon="12.645688217109793"><ele>155.0</ele><time>2026-04-12T07:04:08Z</time></trkpt><trkpt lat="41.814485932407216" lon="12.645722886411644"><ele>155.0</ele><time>2026-04-12T07:04:10Z</time></trkpt><trkpt lat="41.814401083517986" lon="12.645778476146253"><ele>155.0</ele><time>2026-04-12T07:04:13Z</time></trkpt><trkpt lat="41.814318380575735" lon="12.645833138209635"><ele>155.0</ele><time>2026-04-12T07:04:16Z</time></trkpt><trkpt lat="41.81423118078485" lon="12.64588044409246"><ele>155.0</ele><time>2026-04-12T07:04:19Z</time></trkpt><trkpt lat="41.81417659287123" lon="12.645923868064427"><ele>155.0</ele><time>2026-04-12T07:04:21Z</time></trkpt><trkpt lat="41.814112289751954" lon="12.645953835382791"><ele>154.57142857142858</ele><time>2026-04-12T07:04:23Z</time></trkpt><trkpt lat="41.81405196109076" lon="12.645991428014254"><ele>154.14285714285714</ele><time>2026-04-12T07:04:25Z</time></trkpt><trkpt lat="41.81399238078192" lon="12.646025198137275"><ele>153.71428571428572</ele><time>2026-04-12T07:04:27Z</time></trkpt><trkpt lat="41.81393049049412" lon="12.646051149149855"><ele>153.28571428571428</ele><time>2026-04-12T07:04:29Z</time></trkpt><trkpt lat="41.81386852218824" lon="12.646074101695204"><ele>152.85714285714286</ele><time>2026-04-12T07:04:31Z</time></trkpt><trkpt lat="41.81378521740456" lon="12.646048926753929"><ele>152.42857142857142</ele><time>2026-04-12T07:04:34.001Z</time></trkpt><trkpt lat="41.81371673348784" lon="12.645975763330059"><ele>152.0</ele><time>2026-04-12T07:04:37.001Z</time></trkpt><trkpt lat="41.813642519742636" lon="12.645910237646499"><ele>152.0</ele><time>2026-04-12T07:04:40.001Z</time></trkpt><trkpt lat="41.813571756634204" lon="12.645841868579897"><ele>152.0</ele><time>2026-04-12T07:04:43.001Z</time></trkpt><trkpt lat="41.81350419236911" lon="12.645775480437079"><ele>152.0</ele><time>2026-04-12T07:04:46.001Z</time></trkpt><trkpt lat="41.81343096629528" lon="12.645719478636268"><ele>152.0</ele><time>2026-04-12T07:04:49.001Z</time></trkpt><trkpt lat="41.813357486928716" lon="12.645656356966278"><ele>152.0</ele><time>2026-04-12T07:04:52.001Z</time></trkpt><trkpt lat="41.813280311525595" lon="12.645590622253339"><ele>152.0</ele><time>2026-04-12T07:04:55Z</time></trkpt><trkpt lat="41.81320985354529" lon="12.645524875174099"><ele>152.5</ele><time>2026-04-12T07:04:58Z</time></trkpt><trkpt lat="41.813141862467106" lon="12.645464046809893"><ele>153.0</ele><time>2026-04-12T07:05:01Z</time></trkpt><trkpt lat="41.813076971648954" lon="12.645392070461376"><ele>153.5</ele><time>2026-04-12T07:05:04Z</time></trkpt><trkpt lat="41.81301544717418" lon="12.645336119021477"><ele>154.0</ele><time>2026-04-12T07:05:07Z</time></trkpt><trkpt lat="41.812951078511674" lon="12.64528264763564"><ele>154.5</ele><time>2026-04-12T07:05:10Z</time></trkpt><trkpt lat="41.81288415111771" lon="12.645216286507523"><ele>155.0</ele><time>2026-04-12T07:05:13Z</time></trkpt><trkpt lat="41.81281791902386" lon="12.645166220828347"><ele>155.33333333333331</ele><time>2026-04-12T07:05:16Z</time></trkpt><trkpt lat="41.81275164948639" lon="12.645110753371558"><ele>155.66666666666666</ele><time>2026-04-12T07:05:19Z</time></trkpt><trkpt lat="41.812693504514876" lon="12.645039256426065"><ele>156.0</ele><time>2026-04-12T07:05:22Z</time></trkpt><trkpt lat="41.81262675465143" lon="12.644981412243107"><ele>156.33333333333334</ele><time>2026-04-12T07:05:25Z</time></trkpt><trkpt lat="41.812567492626066" lon="12.64491244881041"><ele>156.66666666666669</ele><time>2026-04-12T07:05:28Z</time></trkpt><trkpt lat="41.8124943349443" lon="12.644856668796045"><ele>157.0</ele><time>2026-04-12T07:05:31Z</time></trkpt><trkpt lat="41.81242936158176" lon="12.644780814970032"><ele>157.33333333333334</ele><time>2026-04-12T07:05:34Z</time></trkpt><trkpt lat="41.8123560588557" lon="12.644711649195747"><ele>157.66666666666669</ele><time>2026-04-12T07:05:37Z</time></trkpt><trkpt lat="41.81228158716135" lon="12.644646586327957"><ele>158.0</ele><time>2026-04-12T07:05:40Z</time></trkpt><trkpt lat="41.812227760419375" lon="12.64459181909689"><ele>158.33333333333334</ele><time>2026-04-12T07:05:42Z</time></trkpt><trkpt lat="41.81217071457018" lon="12.644533315803013"><ele>158.66666666666666</ele><time>2026-04-12T07:05:44Z</time></trkpt><trkpt lat="41.81210019835357" lon="12.644469833446426"><ele>159.0</ele><time>2026-04-12T07:05:46Z</time></trkpt><trkpt lat="41.812015435726536" lon="12.644389920125029"><ele>159.0</ele><time>2026-04-12T07:05:48Z</time></trkpt><trkpt lat="41.81191752613296" lon="12.644301728722978"><ele>159.0</ele><time>2026-04-12T07:05:50Z</time></trkpt><trkpt lat="41.81186273684164" lon="12.644251874769118"><ele>159.0</ele><time>2026-04-12T07:05:51Z</time></trkpt><trkpt lat="41.811805011936485" lon="12.644198028677392"><ele>159.0</ele><time>2026-04-12T07:05:52Z</time></trkpt><trkpt lat="41.811684045964185" lon="12.644081462057898"><ele>159.0</ele><time>2026-04-12T07:05:54Z</time></trkpt><trkpt lat="41.81162396980474" lon="12.644024288976338"><ele>158.83333333333334</ele><time>2026-04-12T07:05:55Z</time></trkpt><trkpt lat="41.811559176174136" lon="12.643968451398825"><ele>158.66666666666666</ele><time>2026-04-12T07:05:56Z</time></trkpt><trkpt lat="41.81149698771577" lon="12.64391048114016"><ele>158.5</ele><time>2026-04-12T07:05:57Z</time></trkpt><trkpt lat="41.81143413628766" lon="12.643848241580496"><ele>158.33333333333331</ele><time>2026-04-12T07:05:58Z</time></trkpt><trkpt lat="41.811369981022764" lon="12.643787436607939"><ele>158.16666666666666</ele><time>2026-04-12T07:05:59Z</time></trkpt><trkpt lat="41.81130680053914" lon="12.643727746610049"><ele>158.0</ele><time>2026-04-12T07:06:00Z</time></trkpt><trkpt lat="41.81124647660316" lon="12.643671592390087"><ele>158.0</ele><time>2026-04-12T07:06:01Z</time></trkpt><trkpt lat="41.81118808542989" lon="12.64361445995751"><ele>158.0</ele><time>2026-04-12T07:06:02Z</time></trkpt><trkpt lat="41.81112903804686" lon="12.6435621927735"><ele>158.0</ele><time>2026-04-12T07:06:03Z</time></trkpt><trkpt lat="41.81107529768317" lon="12.643511667651062"><ele>158.0</ele><time>2026-04-12T07:06:04Z</time></trkpt><trkpt lat="41.81098191660209" lon="12.643419814773779"><ele>158.0</ele><time>2026-04-12T07:06:06Z</time></trkpt><trkpt lat="41.81092712720215" lon="12.643361049215272"><ele>158.0</ele><time>2026-04-12T07:06:08Z</time></trkpt><trkpt lat="41.81086413144531" lon="12.64330983647717"><ele>158.0</ele><time>2026-04-12T07:06:11Z</time></trkpt><trkpt lat="41.81079856431944" lon="12.643251987586432"><ele>158.0</ele><time>2026-04-12T07:06:14Z</time></trkpt><trkpt lat="41.81073640593516" lon="12.643183428237876"><ele>158.0</ele><time>2026-04-12T07:06:17Z</time></trkpt><trkpt lat="41.81066850540431" lon="12.643115752760126"><ele>158.0</ele><time>2026-04-12T07:06:20Z</time></trkpt><trkpt lat="41.810598099286175" lon="12.643050079599673"><ele>158.0</ele><time>2026-04-12T07:06:23Z</time></trkpt><trkpt lat="41.810531517387545" lon="12.642980996457108"><ele>158.0</ele><time>2026-04-12T07:06:26Z</time></trkpt><trkpt lat="41.810462584961236" lon="12.64292238476582"><ele>158.0</ele><time>2026-04-12T07:06:29Z</time></trkpt><trkpt lat="41.810398422460814" lon="12.642857940549941"><ele>158.0</ele><time>2026-04-12T07:06:32Z</time></trkpt><trkpt lat="41.810337804941994" lon="12.642796326258823"><ele>158.0</ele><time>2026-04-12T07:06:35Z</time></trkpt><trkpt lat="41.810275486253786" lon="12.642737885152881"><ele>158.0</ele><time>2026-04-12T07:06:38Z</time></trkpt><trkpt lat="41.81021676456683" lon="12.642671942968512"><ele>158.0</ele><time>2026-04-12T07:06:41Z</time></trkpt><trkpt lat="41.81015036882487" lon="12.642622317271332"><ele>158.0</ele><time>2026-04-12T07:06:44Z</time></trkpt><trkpt lat="41.810088249449564" lon="12.64256120413493"><ele>159.16666666666666</ele><time>2026-04-12T07:06:47Z</time></trkpt><trkpt lat="41.81002532215619" lon="12.642503312078588"><ele>160.33333333333331</ele><time>2026-04-12T07:06:50Z</time></trkpt><trkpt lat="41.809939433982315" lon="12.642522059709444"><ele>161.5</ele><time>2026-04-12T07:06:54Z</time></trkpt><trkpt lat="41.809904026936366" lon="12.642620438792884"><ele>162.66666666666666</ele><time>2026-04-12T07:06:57Z</time></trkpt><trkpt lat="41.80986927391689" lon="12.64270928653412"><ele>163.83333333333334</ele><time>2026-04-12T07:07:00Z</time></trkpt><trkpt lat="41.80982808994065" lon="12.642797376349671"><ele>165.0</ele><time>2026-04-12T07:07:03Z</time></trkpt><trkpt lat="41.80978323043427" lon="12.642893486399814"><ele>165.0</ele><time>2026-04-12T07:07:06Z</time></trkpt><trkpt lat="41.80974348513953" lon="12.6429992173865"><ele>165.0</ele><time>2026-04-12T07:07:09Z</time></trkpt><trkpt lat="41.80970068532741" lon="12.643106956430573"><ele>165.0</ele><time>2026-04-12T07:07:12Z</time></trkpt><trkpt lat="41.809666719350666" lon="12.643184405848162"><ele>165.0</ele><time>2026-04-12T07:07:14Z</time></trkpt><trkpt lat="41.809627200456205" lon="12.64327391750428"><ele>165.0</ele><time>2026-04-12T07:07:16Z</time></trkpt><trkpt lat="41.80958684026036" lon="12.643374119774974"><ele>165.0</ele><time>2026-04-12T07:07:18Z</time></trkpt><trkpt lat="41.80953817801634" lon="12.643480036519666"><ele>165.0</ele><time>2026-04-12T07:07:20Z</time></trkpt><trkpt lat="41.8094875100063" lon="12.643595329411719"><ele>165.0</ele><time>2026-04-12T07:07:22Z</time></trkpt><trkpt lat="41.80943054070603" lon="12.64371112255216"><ele>165.0</ele><time>2026-04-12T07:07:24Z</time></trkpt><trkpt lat="41.809373066293766" lon="12.643836578636765"><ele>165.0</ele><time>2026-04-12T07:07:26Z</time></trkpt><trkpt lat="41.80932232917138" lon="12.64394977797898"><ele>165.0</ele><time>2026-04-12T07:07:28Z</time></trkpt><trkpt lat="41.80928015493754" lon="12.644044125810858"><ele>165.83333333333334</ele><time>2026-04-12T07:07:30Z</time></trkpt><trkpt lat="41.80924242562881" lon="12.644128610586305"><ele>166.66666666666666</ele><time>2026-04-12T07:07:32Z</time></trkpt><trkpt lat="41.80920580507345" lon="12.644209387969639"><ele>167.5</ele><time>2026-04-12T07:07:34Z</time></trkpt><trkpt lat="41.80917478324963" lon="12.644283991302657"><ele>168.33333333333331</ele><time>2026-04-12T07:07:36Z</time></trkpt><trkpt lat="41.809139437826374" lon="12.644386522361078"><ele>169.16666666666666</ele><time>2026-04-12T07:07:39Z</time></trkpt><trkpt lat="41.80909697794889" lon="12.644476465097398"><ele>170.0</ele><time>2026-04-12T07:07:42Z</time></trkpt><trkpt lat="41.80904584563339" lon="12.644566773157942"><ele>170.14285714285714</ele><time>2026-04-12T07:07:45Z</time></trkpt><trkpt lat="41.80899108345911" lon="12.64467028207783"><ele>170.28571428571428</ele><time>2026-04-12T07:07:48Z</time></trkpt><trkpt lat="41.80895054323106" lon="12.644737405263355"><ele>170.42857142857142</ele><time>2026-04-12T07:07:50Z</time></trkpt><trkpt lat="41.80891654572383" lon="12.644810513068037"><ele>170.57142857142856</ele><time>2026-04-12T07:07:52Z</time></trkpt><trkpt lat="41.80889213360708" lon="12.64489367304494"><ele>170.71428571428572</ele><time>2026-04-12T07:07:54Z</time></trkpt><trkpt lat="41.80888534793523" lon="12.644978993930696"><ele>170.85714285714283</ele><time>2026-04-12T07:07:56Z</time></trkpt><trkpt lat="41.8088711300347" lon="12.645062357057752"><ele>171.0</ele><time>2026-04-12T07:07:58Z</time></trkpt><trkpt lat="41.808851234826406" lon="12.645144870205456"><ele>170.99999999999997</ele><time>2026-04-12T07:08:00Z</time></trkpt><trkpt lat="41.80881832187836" lon="12.64526005569235"><ele>171.0</ele><time>2026-04-12T07:08:03Z</time></trkpt><trkpt lat="41.8087953719198" lon="12.645346536604027"><ele>171.0</ele><time>2026-04-12T07:08:05Z</time></trkpt><trkpt lat="41.808771274612084" lon="12.64542974504111"><ele>171.0</ele><time>2026-04-12T07:08:07Z</time></trkpt><trkpt lat="41.80875085144957" lon="12.645512151799132"><ele>171.0</ele><time>2026-04-12T07:08:09Z</time></trkpt><trkpt lat="41.80872781948723" lon="12.64559398483898"><ele>170.99999999999997</ele><time>2026-04-12T07:08:11Z</time></trkpt><trkpt lat="41.80870226652039" lon="12.645674813784861"><ele>171.0</ele><time>2026-04-12T07:08:13Z</time></trkpt><trkpt lat="41.80867799410532" lon="12.645755093153122"><ele>170.85714285714283</ele><time>2026-04-12T07:08:15Z</time></trkpt><trkpt lat="41.80865459737363" lon="12.64583965433174"><ele>170.71428571428572</ele><time>2026-04-12T07:08:17Z</time></trkpt><trkpt lat="41.80863137860083" lon="12.64592099327259"><ele>170.57142857142856</ele><time>2026-04-12T07:08:19Z</time></trkpt><trkpt lat="41.80861155503439" lon="12.646006047303516"><ele>170.42857142857142</ele><time>2026-04-12T07:08:21Z</time></trkpt><trkpt lat="41.80859727030114" lon="12.646093809412825"><ele>170.28571428571428</ele><time>2026-04-12T07:08:23Z</time></trkpt><trkpt lat="41.808584773490736" lon="12.646183518092876"><ele>170.14285714285714</ele><time>2026-04-12T07:08:25Z</time></trkpt><trkpt lat="41.80858081004105" lon="12.646277691614246"><ele>170.0</ele><time>2026-04-12T07:08:27Z</time></trkpt><trkpt lat="41.80857970614907" lon="12.646371287927424"><ele>170.57142857142858</ele><time>2026-04-12T07:08:29Z</time></trkpt><trkpt lat="41.80858545510466" lon="12.646466158240651"><ele>171.14285714285714</ele><time>2026-04-12T07:08:31Z</time></trkpt><trkpt lat="41.80858356394725" lon="12.646562541416781"><ele>171.71428571428572</ele><time>2026-04-12T07:08:33Z</time></trkpt><trkpt lat="41.80858477403637" lon="12.646659551412325"><ele>172.28571428571428</ele><time>2026-04-12T07:08:35Z</time></trkpt><trkpt lat="41.80858513893542" lon="12.646758081295587"><ele>172.85714285714286</ele><time>2026-04-12T07:08:37Z</time></trkpt><trkpt lat="41.80858704835759" lon="12.64685604074005"><ele>173.42857142857142</ele><time>2026-04-12T07:08:39Z</time></trkpt><trkpt lat="41.808588995838456" lon="12.646955177764122"><ele>174.0</ele><time>2026-04-12T07:08:41Z</time></trkpt><trkpt lat="41.808592080121315" lon="12.647052906241388"><ele>174.28571428571428</ele><time>2026-04-12T07:08:43Z</time></trkpt><trkpt lat="41.80859556160235" lon="12.647152639693402"><ele>174.57142857142858</ele><time>2026-04-12T07:08:45Z</time></trkpt><trkpt lat="41.80859539892579" lon="12.647254230201236"><ele>174.85714285714286</ele><time>2026-04-12T07:08:47Z</time></trkpt><trkpt lat="41.80859835695298" lon="12.647355301002317"><ele>175.14285714285714</ele><time>2026-04-12T07:08:49Z</time></trkpt><trkpt lat="41.80860286670953" lon="12.647455009624226"><ele>175.42857142857142</ele><time>2026-04-12T07:08:51Z</time></trkpt><trkpt lat="41.8086068592224" lon="12.647555009027055"><ele>175.71428571428572</ele><time>2026-04-12T07:08:53Z</time></trkpt><trkpt lat="41.808610257345805" lon="12.64765517587682"><ele>176.0</ele><time>2026-04-12T07:08:55Z</time></trkpt><trkpt lat="41.80861262459671" lon="12.64775124418285"><ele>176.85714285714286</ele><time>2026-04-12T07:08:57Z</time></trkpt><trkpt lat="41.808611164531584" lon="12.647847883256228"><ele>177.71428571428572</ele><time>2026-04-12T07:08:59Z</time></trkpt><trkpt lat="41.80861356083591" lon="12.647945774193555"><ele>178.57142857142856</ele><time>2026-04-12T07:09:01Z</time></trkpt><trkpt lat="41.80861438534194" lon="12.648045087691324"><ele>179.42857142857144</ele><time>2026-04-12T07:09:03Z</time></trkpt><trkpt lat="41.80861792735482" lon="12.648139258022058"><ele>180.28571428571428</ele><time>2026-04-12T07:09:05Z</time></trkpt><trkpt lat="41.808620862671305" lon="12.648236144503077"><ele>181.14285714285714</ele><time>2026-04-12T07:09:07Z</time></trkpt><trkpt lat="41.80862574728714" lon="12.64833066323161"><ele>182.0</ele><time>2026-04-12T07:09:09Z</time></trkpt><trkpt lat="41.808624422670576" lon="12.648424904269987"><ele>182.0</ele><time>2026-04-12T07:09:11Z</time></trkpt><trkpt lat="41.80862184130627" lon="12.648520163057457"><ele>182.0</ele><time>2026-04-12T07:09:13Z</time></trkpt><trkpt lat="41.80862206841224" lon="12.648611898186507"><ele>182.0</ele><time>2026-04-12T07:09:15Z</time></trkpt><trkpt lat="41.808623553134396" lon="12.648702347473188"><ele>182.0</ele><time>2026-04-12T07:09:17Z</time></trkpt><trkpt lat="41.8086254199282" lon="12.648788317475494"><ele>182.0</ele><time>2026-04-12T07:09:19Z</time></trkpt><trkpt lat="41.808628215984655" lon="12.648875184889002"><ele>182.0</ele><time>2026-04-12T07:09:21Z</time></trkpt><trkpt lat="41.80863358590194" lon="12.648997840135058"><ele>182.0</ele><time>2026-04-12T07:09:24Z</time></trkpt><trkpt lat="41.80863522832395" lon="12.649116193655706"><ele>183.0</ele><time>2026-04-12T07:09:27Z</time></trkpt><trkpt lat="41.80863278458427" lon="12.649236730673204"><ele>184.0</ele><time>2026-04-12T07:09:30Z</time></trkpt><trkpt lat="41.808630557738326" lon="12.649354632658044"><ele>185.0</ele><time>2026-04-12T07:09:33Z</time></trkpt><trkpt lat="41.80863433303557" lon="12.649478163471393"><ele>186.0</ele><time>2026-04-12T07:09:36Z</time></trkpt><trkpt lat="41.808632380657755" lon="12.649596682447955"><ele>187.0</ele><time>2026-04-12T07:09:39Z</time></trkpt><trkpt lat="41.80863054380225" lon="12.649716654326454"><ele>188.0</ele><time>2026-04-12T07:09:42Z</time></trkpt><trkpt lat="41.80863289697861" lon="12.649836127165335"><ele>188.5</ele><time>2026-04-12T07:09:45Z</time></trkpt><trkpt lat="41.80862816744616" lon="12.64995569545527"><ele>189.0</ele><time>2026-04-12T07:09:48Z</time></trkpt><trkpt lat="41.80863235503203" lon="12.650072065355651"><ele>189.5</ele><time>2026-04-12T07:09:51Z</time></trkpt><trkpt lat="41.808627010909156" lon="12.650192812372174"><ele>190.0</ele><time>2026-04-12T07:09:54Z</time></trkpt><trkpt lat="41.8086235702091" lon="12.650308711501602"><ele>190.5</ele><time>2026-04-12T07:09:57Z</time></trkpt><trkpt lat="41.808622418657684" lon="12.650420506755347"><ele>191.0</ele><time>2026-04-12T07:10:00Z</time></trkpt><trkpt lat="41.80862101520933" lon="12.650568472020344"><ele>191.0</ele><time>2026-04-12T07:10:04Z</time></trkpt><trkpt lat="41.80861269349049" lon="12.6506763133018"><ele>191.0</ele><time>2026-04-12T07:10:07Z</time></trkpt><trkpt lat="41.808610881999286" lon="12.650783509404295"><ele>191.0</ele><time>2026-04-12T07:10:10Z</time></trkpt><trkpt lat="41.808607288767895" lon="12.650890513210214"><ele>191.0</ele><time>2026-04-12T07:10:13Z</time></trkpt><trkpt lat="41.80860292064237" lon="12.650997804796793"><ele>191.0</ele><time>2026-04-12T07:10:16Z</time></trkpt><trkpt lat="41.80860655496764" lon="12.651103538266542"><ele>191.0</ele><time>2026-04-12T07:10:19Z</time></trkpt><trkpt lat="41.80860132871627" lon="12.651217878977175"><ele>190.83333333333331</ele><time>2026-04-12T07:10:22Z</time></trkpt><trkpt lat="41.80860084950941" lon="12.651306477090031"><ele>190.66666666666666</ele><time>2026-04-12T07:10:24Z</time></trkpt><trkpt lat="41.80859600094899" lon="12.651402191658477"><ele>190.5</ele><time>2026-04-12T07:10:26Z</time></trkpt><trkpt lat="41.80859466232389" lon="12.65150384455412"><ele>190.33333333333334</ele><time>2026-04-12T07:10:28Z</time></trkpt><trkpt lat="41.80858951919276" lon="12.651616080448719"><ele>190.16666666666669</ele><time>2026-04-12T07:10:30Z</time></trkpt><trkpt lat="41.80858384677286" lon="12.65173494259487"><ele>190.0</ele><time>2026-04-12T07:10:32Z</time></trkpt><trkpt lat="41.808579050605395" lon="12.651862658234375"><ele>189.6</ele><time>2026-04-12T07:10:34Z</time></trkpt><trkpt lat="41.808569364441716" lon="12.651996734551219"><ele>189.2</ele><time>2026-04-12T07:10:36Z</time></trkpt><trkpt lat="41.808567753244986" lon="12.652131705945964"><ele>188.8</ele><time>2026-04-12T07:10:38Z</time></trkpt><trkpt lat="41.808561063816974" lon="12.652258003258872"><ele>188.4</ele><time>2026-04-12T07:10:40Z</time></trkpt><trkpt lat="41.80855527679309" lon="12.65237721671116"><ele>188.0</ele><time>2026-04-12T07:10:41.999Z</time></trkpt><trkpt lat="41.80855054832515" lon="12.652485753239391"><ele>188.0</ele><time>2026-04-12T07:10:43.999Z</time></trkpt><trkpt lat="41.80854824491182" lon="12.652583369940556"><ele>188.0</ele><time>2026-04-12T07:10:45.999Z</time></trkpt><trkpt lat="41.80854713356458" lon="12.652680304456512"><ele>188.0</ele><time>2026-04-12T07:10:47.999Z</time></trkpt><trkpt lat="41.80854039736" lon="12.652773262568571"><ele>188.0</ele><time>2026-04-12T07:10:49.999Z</time></trkpt><trkpt lat="41.808538482542744" lon="12.652865137083522"><ele>188.0</ele><time>2026-04-12T07:10:52Z</time></trkpt><trkpt lat="41.808541692882265" lon="12.652986848917676"><ele>188.0</ele><time>2026-04-12T07:10:55Z</time></trkpt><trkpt lat="41.80854287276969" lon="12.65310459679878"><ele>189.16666666666666</ele><time>2026-04-12T07:10:58Z</time></trkpt><trkpt lat="41.80854072736849" lon="12.653222556207716"><ele>190.33333333333331</ele><time>2026-04-12T07:11:01Z</time></trkpt><trkpt lat="41.80853227433295" lon="12.653340665304341"><ele>191.5</ele><time>2026-04-12T07:11:04Z</time></trkpt><trkpt lat="41.808465871249226" lon="12.65342361935376"><ele>192.66666666666666</ele><time>2026-04-12T07:11:07Z</time></trkpt><trkpt lat="41.80840140332562" lon="12.653448711839397"><ele>193.83333333333334</ele><time>2026-04-12T07:11:09Z</time></trkpt><trkpt lat="41.808335380447595" lon="12.653475626909339"><ele>195.0</ele><time>2026-04-12T07:11:11Z</time></trkpt><trkpt lat="41.808271144758024" lon="12.653505754188364"><ele>195.14285714285714</ele><time>2026-04-12T07:11:13Z</time></trkpt><trkpt lat="41.80820979082052" lon="12.65354293242836"><ele>195.28571428571428</ele><time>2026-04-12T07:11:15Z</time></trkpt><trkpt lat="41.808147012847044" lon="12.653572273656366"><ele>195.42857142857144</ele><time>2026-04-12T07:11:17Z</time></trkpt><trkpt lat="41.80808389387151" lon="12.65360508889861"><ele>195.57142857142856</ele><time>2026-04-12T07:11:19Z</time></trkpt><trkpt lat="41.80802064932224" lon="12.653640609410042"><ele>195.71428571428572</ele><time>2026-04-12T07:11:21Z</time></trkpt><trkpt lat="41.807953553811096" lon="12.653669829936469"><ele>195.85714285714286</ele><time>2026-04-12T07:11:23Z</time></trkpt><trkpt lat="41.80788703046994" lon="12.653704214395308"><ele>196.0</ele><time>2026-04-12T07:11:25Z</time></trkpt><trkpt lat="41.807819226108414" lon="12.653739459629028"><ele>196.16666666666666</ele><time>2026-04-12T07:11:27Z</time></trkpt><trkpt lat="41.80775198831201" lon="12.653774165939758"><ele>196.33333333333331</ele><time>2026-04-12T07:11:29Z</time></trkpt><trkpt lat="41.80768638969561" lon="12.653801847890048"><ele>196.5</ele><time>2026-04-12T07:11:31Z</time></trkpt><trkpt lat="41.80762260363975" lon="12.653834976483857"><ele>196.66666666666669</ele><time>2026-04-12T07:11:33Z</time></trkpt><trkpt lat="41.807562662389685" lon="12.65387305762513"><ele>196.83333333333334</ele><time>2026-04-12T07:11:35Z</time></trkpt><trkpt lat="41.8074955917314" lon="12.653917528082802"><ele>197.0</ele><time>2026-04-12T07:11:37Z</time></trkpt><trkpt lat="41.80740729847365" lon="12.65398757264023"><ele>197.0</ele><time>2026-04-12T07:11:39Z</time></trkpt><trkpt lat="41.80730003289254" lon="12.654051627683916"><ele>197.0</ele><time>2026-04-12T07:11:41Z</time></trkpt><trkpt lat="41.80719432789507" lon="12.654115664949444"><ele>197.0</ele><time>2026-04-12T07:11:43Z</time></trkpt><trkpt lat="41.807096318578175" lon="12.65418600531369"><ele>197.0</ele><time>2026-04-12T07:11:45Z</time></trkpt><trkpt lat="41.80700090548712" lon="12.654248908153585"><ele>197.00000000000003</ele><time>2026-04-12T07:11:47Z</time></trkpt><trkpt lat="41.806913639351556" lon="12.65430177856611"><ele>197.0</ele><time>2026-04-12T07:11:49Z</time></trkpt><trkpt lat="41.806839566614954" lon="12.65436627264096"><ele>197.0</ele><time>2026-04-12T07:11:51Z</time></trkpt><trkpt lat="41.80676875997457" lon="12.654387858470592"><ele>197.0</ele><time>2026-04-12T07:11:53Z</time></trkpt><trkpt lat="41.80668803821547" lon="12.654363525522752"><ele>197.00000000000003</ele><time>2026-04-12T07:11:55Z</time></trkpt><trkpt lat="41.80659424990416" lon="12.654336540004618"><ele>197.0</ele><time>2026-04-12T07:11:57Z</time></trkpt><trkpt lat="41.80650040734327" lon="12.654306277676962"><ele>196.0</ele><time>2026-04-12T07:11:59Z</time></trkpt><trkpt lat="41.80640876849027" lon="12.654280626109891"><ele>195.0</ele><time>2026-04-12T07:12:01Z</time></trkpt><trkpt lat="41.80631493868696" lon="12.654246060670442"><ele>194.0</ele><time>2026-04-12T07:12:03Z</time></trkpt><trkpt lat="41.80622016272421" lon="12.6542224579934"><ele>193.0</ele><time>2026-04-12T07:12:05Z</time></trkpt><trkpt lat="41.80612909220073" lon="12.654220668195288"><ele>192.0</ele><time>2026-04-12T07:12:07Z</time></trkpt><trkpt lat="41.80603982004651" lon="12.654224053924223"><ele>191.5</ele><time>2026-04-12T07:12:09Z</time></trkpt><trkpt lat="41.80594814410056" lon="12.65421813424757"><ele>191.0</ele><time>2026-04-12T07:12:11Z</time></trkpt><trkpt lat="41.805856702659" lon="12.654218817476195"><ele>190.5</ele><time>2026-04-12T07:12:13Z</time></trkpt><trkpt lat="41.80576402152793" lon="12.654214594369662"><ele>190.0</ele><time>2026-04-12T07:12:15Z</time></trkpt><trkpt lat="41.80568424857979" lon="12.654216276934894"><ele>189.5</ele><time>2026-04-12T07:12:17Z</time></trkpt><trkpt lat="41.805610232258545" lon="12.654222504729946"><ele>189.0</ele><time>2026-04-12T07:12:19Z</time></trkpt><trkpt lat="41.80554225313304" lon="12.654231892492474"><ele>189.0</ele><time>2026-04-12T07:12:21Z</time></trkpt><trkpt lat="41.80547861788573" lon="12.654261881839757"><ele>189.0</ele><time>2026-04-12T07:12:23Z</time></trkpt><trkpt lat="41.80542334080744" lon="12.654311568775654"><ele>189.0</ele><time>2026-04-12T07:12:25Z</time></trkpt><trkpt lat="41.80537342449626" lon="12.65436867354567"><ele>189.0</ele><time>2026-04-12T07:12:27Z</time></trkpt><trkpt lat="41.80532801021976" lon="12.654430293135738"><ele>189.0</ele><time>2026-04-12T07:12:29Z</time></trkpt><trkpt lat="41.8052609100639" lon="12.6545147338174"><ele>189.0</ele><time>2026-04-12T07:12:32Z</time></trkpt><trkpt lat="41.805211244414956" lon="12.654570974699094"><ele>189.0</ele><time>2026-04-12T07:12:34Z</time></trkpt><trkpt lat="41.80516301139156" lon="12.65462725215436"><ele>190.39999999999998</ele><time>2026-04-12T07:12:36Z</time></trkpt><trkpt lat="41.80509162228209" lon="12.654707914467727"><ele>191.8</ele><time>2026-04-12T07:12:39Z</time></trkpt><trkpt lat="41.80501963976293" lon="12.654781397606955"><ele>193.2</ele><time>2026-04-12T07:12:41.999Z</time></trkpt><trkpt lat="41.8049526744299" lon="12.654856919147614"><ele>194.60000000000002</ele><time>2026-04-12T07:12:44.999Z</time></trkpt><trkpt lat="41.804886962797625" lon="12.654937467843226"><ele>196.0</ele><time>2026-04-12T07:12:47.999Z</time></trkpt><trkpt lat="41.804816964525656" lon="12.65501829703378"><ele>195.99999999999997</ele><time>2026-04-12T07:12:50.999Z</time></trkpt><trkpt lat="41.80474578920375" lon="12.655099109489438"><ele>196.0</ele><time>2026-04-12T07:12:53.999Z</time></trkpt><trkpt lat="41.80468116064756" lon="12.655185345393095"><ele>196.0</ele><time>2026-04-12T07:12:57Z</time></trkpt><trkpt lat="41.8046135657259" lon="12.655255422816474"><ele>196.0</ele><time>2026-04-12T07:13:00Z</time></trkpt><trkpt lat="41.80454699126427" lon="12.655332444957565"><ele>195.99999999999997</ele><time>2026-04-12T07:13:03Z</time></trkpt><trkpt lat="41.80448385174651" lon="12.655405164414491"><ele>196.0</ele><time>2026-04-12T07:13:06Z</time></trkpt><trkpt lat="41.80441832665776" lon="12.655480857774146"><ele>196.99999999999997</ele><time>2026-04-12T07:13:09Z</time></trkpt><trkpt lat="41.80436034200266" lon="12.655550695156142"><ele>198.0</ele><time>2026-04-12T07:13:12Z</time></trkpt><trkpt lat="41.80430075985617" lon="12.655632784946869"><ele>199.0</ele><time>2026-04-12T07:13:15Z</time></trkpt><trkpt lat="41.804234437045054" lon="12.655706071582602"><ele>200.0</ele><time>2026-04-12T07:13:18Z</time></trkpt><trkpt lat="41.804168467753925" lon="12.655785125788485"><ele>200.99999999999997</ele><time>2026-04-12T07:13:21Z</time></trkpt><trkpt lat="41.80410120531437" lon="12.655861346449555"><ele>202.0</ele><time>2026-04-12T07:13:24Z</time></trkpt><trkpt lat="41.80403641759375" lon="12.655943176685627"><ele>201.99999999999997</ele><time>2026-04-12T07:13:27Z</time></trkpt><trkpt lat="41.80397039971814" lon="12.656019572149962"><ele>202.0</ele><time>2026-04-12T07:13:30Z</time></trkpt><trkpt lat="41.803904400231545" lon="12.656099210050304"><ele>202.0</ele><time>2026-04-12T07:13:33Z</time></trkpt><trkpt lat="41.80383808005094" lon="12.656173854673536"><ele>202.0</ele><time>2026-04-12T07:13:36Z</time></trkpt><trkpt lat="41.8037769170015" lon="12.656253541904276"><ele>201.99999999999997</ele><time>2026-04-12T07:13:39Z</time></trkpt><trkpt lat="41.80371758508218" lon="12.656327969766929"><ele>202.0</ele><time>2026-04-12T07:13:42Z</time></trkpt><trkpt lat="41.803659736568214" lon="12.656395469777367"><ele>203.16666666666666</ele><time>2026-04-12T07:13:45Z</time></trkpt><trkpt lat="41.80360111352278" lon="12.656461244166744"><ele>204.33333333333331</ele><time>2026-04-12T07:13:48Z</time></trkpt><trkpt lat="41.80355140260569" lon="12.656525150556547"><ele>205.5</ele><time>2026-04-12T07:13:51Z</time></trkpt><trkpt lat="41.80347783539447" lon="12.656616121097954"><ele>206.66666666666669</ele><time>2026-04-12T07:13:54Z</time></trkpt><trkpt lat="41.80341214224625" lon="12.656631789701905"><ele>207.83333333333334</ele><time>2026-04-12T07:13:56Z</time></trkpt><trkpt lat="41.80335236960168" lon="12.656561987673912"><ele>209.0</ele><time>2026-04-12T07:13:58Z</time></trkpt><trkpt lat="41.80329923231327" lon="12.656476897723232"><ele>209.00000000000003</ele><time>2026-04-12T07:14:00Z</time></trkpt><trkpt lat="41.803229129218586" lon="12.65638799963941"><ele>209.0</ele><time>2026-04-12T07:14:02Z</time></trkpt><trkpt lat="41.8031624600202" lon="12.656301453833256"><ele>209.0</ele><time>2026-04-12T07:14:04Z</time></trkpt><trkpt lat="41.803098776569136" lon="12.656222667543291"><ele>209.0</ele><time>2026-04-12T07:14:06Z</time></trkpt><trkpt lat="41.80304455939413" lon="12.656150365841402"><ele>209.00000000000003</ele><time>2026-04-12T07:14:08Z</time></trkpt><trkpt lat="41.80299319545826" lon="12.656090312801885"><ele>209.0</ele><time>2026-04-12T07:14:10Z</time></trkpt><trkpt lat="41.80293050023664" lon="12.656014182471942"><ele>208.66666666666669</ele><time>2026-04-12T07:14:13Z</time></trkpt><trkpt lat="41.802864263515666" lon="12.655948511926091"><ele>208.33333333333334</ele><time>2026-04-12T07:14:16Z</time></trkpt><trkpt lat="41.80280362663923" lon="12.655890759479218"><ele>208.0</ele><time>2026-04-12T07:14:19Z</time></trkpt><trkpt lat="41.80274849408916" lon="12.655825068619718"><ele>207.66666666666669</ele><time>2026-04-12T07:14:22Z</time></trkpt><trkpt lat="41.80269257133967" lon="12.655763982886178"><ele>207.33333333333334</ele><time>2026-04-12T07:14:25Z</time></trkpt><trkpt lat="41.802641318674404" lon="12.65569317011239"><ele>207.0</ele><time>2026-04-12T07:14:27.999Z</time></trkpt><trkpt lat="41.80257582146687" lon="12.655629186429467"><ele>207.0</ele><time>2026-04-12T07:14:30.999Z</time></trkpt><trkpt lat="41.802524445262875" lon="12.655560148980497"><ele>207.0</ele><time>2026-04-12T07:14:33.999Z</time></trkpt><trkpt lat="41.8024783346927" lon="12.65550147408107"><ele>207.0</ele><time>2026-04-12T07:14:36.999Z</time></trkpt><trkpt lat="41.80242419459571" lon="12.655424581618314"><ele>207.0</ele><time>2026-04-12T07:14:40.999Z</time></trkpt><trkpt lat="41.802358156013845" lon="12.655342542312544"><ele>207.0</ele><time>2026-04-12T07:14:44.999Z</time></trkpt><trkpt lat="41.802293891071535" lon="12.655272031510833"><ele>207.0</ele><time>2026-04-12T07:14:48.999Z</time></trkpt><trkpt lat="41.80224372999055" lon="12.655195484264022"><ele>207.57142857142858</ele><time>2026-04-12T07:14:52.999Z</time></trkpt><trkpt lat="41.80219598157061" lon="12.655127106763443"><ele>208.14285714285714</ele><time>2026-04-12T07:14:55.999Z</time></trkpt><trkpt lat="41.80213189643639" lon="12.655066075207788"><ele>208.71428571428572</ele><time>2026-04-12T07:14:59.999Z</time></trkpt><trkpt lat="41.80207710124332" lon="12.655007564495417"><ele>209.28571428571428</ele><time>2026-04-12T07:15:04Z</time></trkpt><trkpt lat="41.8020077930449" lon="12.654995692049699"><ele>209.85714285714286</ele><time>2026-04-12T07:15:07Z</time></trkpt><trkpt lat="41.80193108426046" lon="12.655009584568896"><ele>210.42857142857144</ele><time>2026-04-12T07:15:10Z</time></trkpt><trkpt lat="41.80186572192161" lon="12.655030492091827"><ele>211.0</ele><time>2026-04-12T07:15:13Z</time></trkpt><trkpt lat="41.80180082402923" lon="12.655041624324037"><ele>212.14285714285714</ele><time>2026-04-12T07:15:16Z</time></trkpt><trkpt lat="41.801733136149146" lon="12.655067617396403"><ele>213.28571428571428</ele><time>2026-04-12T07:15:19Z</time></trkpt><trkpt lat="41.80167677263954" lon="12.655115836297613"><ele>214.42857142857144</ele><time>2026-04-12T07:15:22Z</time></trkpt><trkpt lat="41.8016164558357" lon="12.655169464290184"><ele>215.57142857142856</ele><time>2026-04-12T07:15:25Z</time></trkpt><trkpt lat="41.801555419470624" lon="12.655221978639673"><ele>216.7142857142857</ele><time>2026-04-12T07:15:28Z</time></trkpt><trkpt lat="41.80150289470241" lon="12.655285952293292"><ele>217.85714285714286</ele><time>2026-04-12T07:15:31Z</time></trkpt><trkpt lat="41.80144499611522" lon="12.655349388819566"><ele>219.0</ele><time>2026-04-12T07:15:34Z</time></trkpt><trkpt lat="41.801388411018216" lon="12.655409317227564"><ele>219.14285714285714</ele><time>2026-04-12T07:15:37Z</time></trkpt><trkpt lat="41.80133108466087" lon="12.655468454205842"><ele>219.28571428571428</ele><time>2026-04-12T07:15:40Z</time></trkpt><trkpt lat="41.801277928883586" lon="12.655541485934668"><ele>219.42857142857142</ele><time>2026-04-12T07:15:43Z</time></trkpt><trkpt lat="41.80122111321502" lon="12.655610158362819"><ele>219.57142857142856</ele><time>2026-04-12T07:15:46Z</time></trkpt><trkpt lat="41.80116859936037" lon="12.655680868360813"><ele>219.71428571428572</ele><time>2026-04-12T07:15:49Z</time></trkpt><trkpt lat="41.80111931354129" lon="12.655752478493605"><ele>219.85714285714283</ele><time>2026-04-12T07:15:52Z</time></trkpt><trkpt lat="41.80106152157369" lon="12.655819190007758"><ele>220.0</ele><time>2026-04-12T07:15:55Z</time></trkpt><trkpt lat="41.801009461588926" lon="12.655896883280596"><ele>221.1428571428571</ele><time>2026-04-12T07:15:58Z</time></trkpt><trkpt lat="41.800955179406884" lon="12.655964410471567"><ele>222.28571428571428</ele><time>2026-04-12T07:16:01Z</time></trkpt><trkpt lat="41.80090659168038" lon="12.6560397818824"><ele>223.42857142857142</ele><time>2026-04-12T07:16:04Z</time></trkpt><trkpt lat="41.800860287971965" lon="12.656108277412"><ele>224.57142857142856</ele><time>2026-04-12T07:16:07Z</time></trkpt><trkpt lat="41.80080278224944" lon="12.656174151059751"><ele>225.7142857142857</ele><time>2026-04-12T07:16:10Z</time></trkpt><trkpt lat="41.80074906977958" lon="12.656242489548067"><ele>226.85714285714283</ele><time>2026-04-12T07:16:13Z</time></trkpt><trkpt lat="41.80069586410721" lon="12.65630413615778"><ele>228.0</ele><time>2026-04-12T07:16:16Z</time></trkpt><trkpt lat="41.80063873267943" lon="12.656376894465888"><ele>228.0</ele><time>2026-04-12T07:16:18.999Z</time></trkpt><trkpt lat="41.80058537293096" lon="12.656449915273171"><ele>228.0</ele><time>2026-04-12T07:16:21.999Z</time></trkpt><trkpt lat="41.80052799688535" lon="12.656520785444583"><ele>228.0</ele><time>2026-04-12T07:16:24.999Z</time></trkpt><trkpt lat="41.800474267367036" lon="12.656596238333469"><ele>228.0</ele><time>2026-04-12T07:16:27.999Z</time></trkpt><trkpt lat="41.80041437671961" lon="12.656657405477626"><ele>228.0</ele><time>2026-04-12T07:16:30.999Z</time></trkpt><trkpt lat="41.80035728256733" lon="12.656722935937067"><ele>228.0</ele><time>2026-04-12T07:16:33.999Z</time></trkpt><trkpt lat="41.8003009175155" lon="12.656788096590295"><ele>228.0</ele><time>2026-04-12T07:16:36.999Z</time></trkpt><trkpt lat="41.800244360756786" lon="12.65685150129686"><ele>227.99999999999997</ele><time>2026-04-12T07:16:39.999Z</time></trkpt><trkpt lat="41.800190587573205" lon="12.656899759551237"><ele>228.0</ele><time>2026-04-12T07:16:42.999Z</time></trkpt><trkpt lat="41.800129044518876" lon="12.656970409529492"><ele>228.0</ele><time>2026-04-12T07:16:45.999Z</time></trkpt><trkpt lat="41.80008179433098" lon="12.657041695499434"><ele>227.99999999999997</ele><time>2026-04-12T07:16:48.999Z</time></trkpt><trkpt lat="41.80003733753438" lon="12.65712152518261"><ele>228.0</ele><time>2026-04-12T07:16:51.999Z</time></trkpt><trkpt lat="41.80000029260712" lon="12.657203385066127"><ele>228.0</ele><time>2026-04-12T07:16:54.999Z</time></trkpt><trkpt lat="41.799972965028154" lon="12.657293803057518"><ele>231.0</ele><time>2026-04-12T07:16:57.999Z</time></trkpt><trkpt lat="41.79993497497721" lon="12.657381467508351"><ele>233.99999999999997</ele><time>2026-04-12T07:17:00.999Z</time></trkpt><trkpt lat="41.79990389921315" lon="12.657469674126602"><ele>237.0</ele><time>2026-04-12T07:17:03.999Z</time></trkpt><trkpt lat="41.7998701354987" lon="12.65754437678274"><ele>240.0</ele><time>2026-04-12T07:17:06.999Z</time></trkpt><trkpt lat="41.79984019880375" lon="12.657636454538768"><ele>242.99999999999997</ele><time>2026-04-12T07:17:10Z</time></trkpt><trkpt lat="41.799809440783505" lon="12.657718190149962"><ele>246.0</ele><time>2026-04-12T07:17:13Z</time></trkpt><trkpt lat="41.79977279181643" lon="12.657797338032081"><ele>249.0</ele><time>2026-04-12T07:17:16Z</time></trkpt><trkpt lat="41.79973278896647" lon="12.657877363968817"><ele>250.0</ele><time>2026-04-12T07:17:19Z</time></trkpt><trkpt lat="41.799691798207164" lon="12.657960567902032"><ele>250.99999999999997</ele><time>2026-04-12T07:17:22Z</time></trkpt><trkpt lat="41.799645078939726" lon="12.658035402762177"><ele>252.0</ele><time>2026-04-12T07:17:25Z</time></trkpt><trkpt lat="41.799595693757375" lon="12.658095037719301"><ele>253.0</ele><time>2026-04-12T07:17:28Z</time></trkpt><trkpt lat="41.799534814145375" lon="12.658144749575552"><ele>253.99999999999997</ele><time>2026-04-12T07:17:31Z</time></trkpt><trkpt lat="41.79947896328547" lon="12.658204960489257"><ele>255.0</ele><time>2026-04-12T07:17:34Z</time></trkpt><trkpt lat="41.79942379568575" lon="12.658266983574823"><ele>256.0</ele><time>2026-04-12T07:17:37Z</time></trkpt><trkpt lat="41.799362692280454" lon="12.658319806162448"><ele>257.2857142857143</ele><time>2026-04-12T07:17:40Z</time></trkpt><trkpt lat="41.7993017884655" lon="12.658377571486968"><ele>258.57142857142856</ele><time>2026-04-12T07:17:43Z</time></trkpt><trkpt lat="41.79923898531969" lon="12.658438881116512"><ele>259.85714285714283</ele><time>2026-04-12T07:17:46Z</time></trkpt><trkpt lat="41.799175424516925" lon="12.658487000178003"><ele>261.1428571428571</ele><time>2026-04-12T07:17:49Z</time></trkpt><trkpt lat="41.799122687339946" lon="12.658540540165824"><ele>262.42857142857144</ele><time>2026-04-12T07:17:52Z</time></trkpt><trkpt lat="41.79907488227334" lon="12.658598421286841"><ele>263.71428571428567</ele><time>2026-04-12T07:17:55Z</time></trkpt><trkpt lat="41.79901430894321" lon="12.658630213498348"><ele>265.0</ele><time>2026-04-12T07:17:58Z</time></trkpt><trkpt lat="41.79894905727679" lon="12.65869313156587"><ele>265.5</ele><time>2026-04-12T07:18:02Z</time></trkpt><trkpt lat="41.79889325365229" lon="12.658762946465536"><ele>266.0</ele><time>2026-04-12T07:18:06.999Z</time></trkpt><trkpt lat="41.798904824826465" lon="12.6588641783155"><ele>266.5</ele><time>2026-04-12T07:18:11.999Z</time></trkpt><trkpt lat="41.7989490217979" lon="12.658947949481773"><ele>267.0</ele><time>2026-04-12T07:18:14.999Z</time></trkpt><trkpt lat="41.799000579311695" lon="12.659047620191078"><ele>267.5</ele><time>2026-04-12T07:18:17.999Z</time></trkpt><trkpt lat="41.79903546352616" lon="12.659118553031345"><ele>268.0</ele><time>2026-04-12T07:18:19.999Z</time></trkpt><trkpt lat="41.799091646848474" lon="12.65922477578661"><ele>268.0</ele><time>2026-04-12T07:18:22.999Z</time></trkpt><trkpt lat="41.79912740970327" lon="12.659300083155244"><ele>268.0</ele><time>2026-04-12T07:18:24.999Z</time></trkpt><trkpt lat="41.79916988996728" lon="12.659378186313269"><ele>268.0</ele><time>2026-04-12T07:18:26.999Z</time></trkpt><trkpt lat="41.79920277700947" lon="12.659455898959173"><ele>268.0</ele><time>2026-04-12T07:18:28.999Z</time></trkpt><trkpt lat="41.79923864678471" lon="12.659530603826232"><ele>268.0</ele><time>2026-04-12T07:18:30.999Z</time></trkpt><trkpt lat="41.79928049587618" lon="12.659599749987482"><ele>268.0</ele><time>2026-04-12T07:18:32.999Z</time></trkpt><trkpt lat="41.799320018183614" lon="12.659672199093333"><ele>268.0</ele><time>2026-04-12T07:18:34.999Z</time></trkpt><trkpt lat="41.79937197322667" lon="12.659775888471447"><ele>268.3333333333333</ele><time>2026-04-12T07:18:37.999Z</time></trkpt><trkpt lat="41.799405426936595" lon="12.659878751466357"><ele>268.66666666666663</ele><time>2026-04-12T07:18:40.999Z</time></trkpt><trkpt lat="41.79941534818899" lon="12.659989135172522"><ele>269.0</ele><time>2026-04-12T07:18:43.999Z</time></trkpt><trkpt lat="41.79939437146096" lon="12.660085043090355"><ele>269.3333333333333</ele><time>2026-04-12T07:18:46.999Z</time></trkpt><trkpt lat="41.79936280379849" lon="12.660168613503197"><ele>269.6666666666667</ele><time>2026-04-12T07:18:49.999Z</time></trkpt><trkpt lat="41.79931842141591" lon="12.66024610814973"><ele>270.0</ele><time>2026-04-12T07:18:52.999Z</time></trkpt><trkpt lat="41.79926263986691" lon="12.660314871438695"><ele>271.6666666666667</ele><time>2026-04-12T07:18:55.999Z</time></trkpt><trkpt lat="41.79919606484528" lon="12.660371592448028"><ele>273.3333333333333</ele><time>2026-04-12T07:18:58.999Z</time></trkpt><trkpt lat="41.799129045189126" lon="12.660444850888474"><ele>275.0</ele><time>2026-04-12T07:19:01.999Z</time></trkpt><trkpt lat="41.79905872684106" lon="12.660507613767443"><ele>276.66666666666663</ele><time>2026-04-12T07:19:04.999Z</time></trkpt><trkpt lat="41.79899076662836" lon="12.660571601302305"><ele>278.3333333333333</ele><time>2026-04-12T07:19:07.999Z</time></trkpt><trkpt lat="41.79892831129412" lon="12.660638621348948"><ele>280.0</ele><time>2026-04-12T07:19:10.999Z</time></trkpt><trkpt lat="41.798865249336366" lon="12.660700478064026"><ele>280.0</ele><time>2026-04-12T07:19:13.999Z</time></trkpt><trkpt lat="41.798811198120795" lon="12.660743778416549"><ele>280.0</ele><time>2026-04-12T07:19:17Z</time></trkpt><trkpt lat="41.79874535870361" lon="12.660800781558072"><ele>280.0</ele><time>2026-04-12T07:19:20Z</time></trkpt><trkpt lat="41.79868308945994" lon="12.660869686157922"><ele>280.0</ele><time>2026-04-12T07:19:23Z</time></trkpt><trkpt lat="41.79862247517319" lon="12.66093793774708"><ele>280.0</ele><time>2026-04-12T07:19:26Z</time></trkpt><trkpt lat="41.798557870146226" lon="12.660996528419643"><ele>280.0</ele><time>2026-04-12T07:19:29Z</time></trkpt><trkpt lat="41.798494492583" lon="12.661067871737142"><ele>280.85714285714283</ele><time>2026-04-12T07:19:32Z</time></trkpt><trkpt lat="41.7984273987225" lon="12.661139346900843"><ele>281.7142857142857</ele><time>2026-04-12T07:19:35Z</time></trkpt><trkpt lat="41.79835604949527" lon="12.661193112795775"><ele>282.57142857142856</ele><time>2026-04-12T07:19:38Z</time></trkpt><trkpt lat="41.79830166106477" lon="12.661258206353796"><ele>283.42857142857144</ele><time>2026-04-12T07:19:41Z</time></trkpt><trkpt lat="41.79824085242286" lon="12.661302890098279"><ele>284.2857142857143</ele><time>2026-04-12T07:19:44Z</time></trkpt><trkpt lat="41.798181206064775" lon="12.661353617416028"><ele>285.1428571428571</ele><time>2026-04-12T07:19:47Z</time></trkpt><trkpt lat="41.7981232339407" lon="12.661401086262655"><ele>286.0</ele><time>2026-04-12T07:19:50Z</time></trkpt><trkpt lat="41.79806843108669" lon="12.661456428536678"><ele>285.99999999999994</ele><time>2026-04-12T07:19:53Z</time></trkpt><trkpt lat="41.79801224239836" lon="12.661508947483913"><ele>286.0</ele><time>2026-04-12T07:19:56Z</time></trkpt><trkpt lat="41.797952352047936" lon="12.661572791259607"><ele>286.0</ele><time>2026-04-12T07:19:59Z</time></trkpt><trkpt lat="41.79789447680796" lon="12.661638447660334"><ele>286.0</ele><time>2026-04-12T07:20:02Z</time></trkpt><trkpt lat="41.797835825679954" lon="12.661694992067032"><ele>286.0</ele><time>2026-04-12T07:20:05Z</time></trkpt><trkpt lat="41.7977781845918" lon="12.661750507245548"><ele>285.99999999999994</ele><time>2026-04-12T07:20:08Z</time></trkpt><trkpt lat="41.79770621744679" lon="12.661811854366587"><ele>286.0</ele><time>2026-04-12T07:20:11Z</time></trkpt><trkpt lat="41.79764678352042" lon="12.661873581913278"><ele>287.16666666666663</ele><time>2026-04-12T07:20:14Z</time></trkpt><trkpt lat="41.797590271831815" lon="12.661931163686052"><ele>288.3333333333333</ele><time>2026-04-12T07:20:17Z</time></trkpt><trkpt lat="41.79752226416275" lon="12.661995037679127"><ele>289.5</ele><time>2026-04-12T07:20:20.999Z</time></trkpt><trkpt lat="41.79746441594203" lon="12.662049013935613"><ele>290.6666666666667</ele><time>2026-04-12T07:20:23.999Z</time></trkpt><trkpt lat="41.79740042690503" lon="12.662116793825087"><ele>291.83333333333337</ele><time>2026-04-12T07:20:26.999Z</time></trkpt><trkpt lat="41.79734052355629" lon="12.662179471234897"><ele>293.0</ele><time>2026-04-12T07:20:29.999Z</time></trkpt><trkpt lat="41.79727466417646" lon="12.662238260619237"><ele>293.0</ele><time>2026-04-12T07:20:32.999Z</time></trkpt><trkpt lat="41.79721362423026" lon="12.662279034348146"><ele>293.0</ele><time>2026-04-12T07:20:35.999Z</time></trkpt><trkpt lat="41.797152084104496" lon="12.662201985027272"><ele>293.0</ele><time>2026-04-12T07:20:38.999Z</time></trkpt><trkpt lat="41.797091907044646" lon="12.662134319752136"><ele>293.0</ele><time>2026-04-12T07:20:41.999Z</time></trkpt><trkpt lat="41.79705827131261" lon="12.662035923480051"><ele>293.0</ele><time>2026-04-12T07:20:44.999Z</time></trkpt><trkpt lat="41.79702894858099" lon="12.661937321695211"><ele>293.0</ele><time>2026-04-12T07:20:47.999Z</time></trkpt><trkpt lat="41.79699319695554" lon="12.661838856092201"><ele>293.0</ele><time>2026-04-12T07:20:50.999Z</time></trkpt><trkpt lat="41.79695338222806" lon="12.661747387095364"><ele>293.0</ele><time>2026-04-12T07:20:53.999Z</time></trkpt><trkpt lat="41.796922998370945" lon="12.661649966712204"><ele>293.0</ele><time>2026-04-12T07:20:56.999Z</time></trkpt><trkpt lat="41.796904873015826" lon="12.661537119100425"><ele>293.0</ele><time>2026-04-12T07:20:59.999Z</time></trkpt><trkpt lat="41.79689220379257" lon="12.661410075771347"><ele>293.0</ele><time>2026-04-12T07:21:02.999Z</time></trkpt><trkpt lat="41.79687883545406" lon="12.661324733375226"><ele>293.0</ele><time>2026-04-12T07:21:04.999Z</time></trkpt><trkpt lat="41.79686385014821" lon="12.661242212282794"><ele>293.0</ele><time>2026-04-12T07:21:06.999Z</time></trkpt><trkpt lat="41.79683776913791" lon="12.661162839762786"><ele>293.0</ele><time>2026-04-12T07:21:08.999Z</time></trkpt><trkpt lat="41.796800674403634" lon="12.661054635282786"><ele>293.0</ele><time>2026-04-12T07:21:11.999Z</time></trkpt><trkpt lat="41.79675725047564" lon="12.660958321840782"><ele>293.0</ele><time>2026-04-12T07:21:14.999Z</time></trkpt><trkpt lat="41.79670760753972" lon="12.660869322975346"><ele>293.0</ele><time>2026-04-12T07:21:17.999Z</time></trkpt><trkpt lat="41.79664236964149" lon="12.66079515234066"><ele>293.0</ele><time>2026-04-12T07:21:21Z</time></trkpt><trkpt lat="41.79658348753943" lon="12.660710377529986"><ele>293.83333333333337</ele><time>2026-04-12T07:21:24Z</time></trkpt><trkpt lat="41.796521750556884" lon="12.660635034811897"><ele>294.6666666666667</ele><time>2026-04-12T07:21:27Z</time></trkpt><trkpt lat="41.79645866383748" lon="12.660564347627751"><ele>295.5</ele><time>2026-04-12T07:21:30Z</time></trkpt><trkpt lat="41.796402503053166" lon="12.66049028380938"><ele>296.3333333333333</ele><time>2026-04-12T07:21:33Z</time></trkpt><trkpt lat="41.79634613789263" lon="12.660420208747459"><ele>297.16666666666663</ele><time>2026-04-12T07:21:36Z</time></trkpt><trkpt lat="41.79629313698464" lon="12.660349199951321"><ele>298.0</ele><time>2026-04-12T07:21:39Z</time></trkpt><trkpt lat="41.7962479576213" lon="12.660280322270989"><ele>298.0</ele><time>2026-04-12T07:21:42Z</time></trkpt><trkpt lat="41.79619101743697" lon="12.660206194155686"><ele>298.0</ele><time>2026-04-12T07:21:46Z</time></trkpt><trkpt lat="41.79614264890844" lon="12.660116745971584"><ele>298.0</ele><time>2026-04-12T07:21:50Z</time></trkpt><trkpt lat="41.79608398596681" lon="12.660046943580863"><ele>298.0</ele><time>2026-04-12T07:21:54Z</time></trkpt><trkpt lat="41.79603633168945" lon="12.659955599645098"><ele>298.0</ele><time>2026-04-12T07:21:57Z</time></trkpt><trkpt lat="41.795976532352526" lon="12.659881833400396"><ele>298.0</ele><time>2026-04-12T07:22:00Z</time></trkpt><trkpt lat="41.79591709296949" lon="12.659800395875331"><ele>298.0</ele><time>2026-04-12T07:22:03Z</time></trkpt><trkpt lat="41.795867219158715" lon="12.659744191333097"><ele>298.0</ele><time>2026-04-12T07:22:05Z</time></trkpt><trkpt lat="41.79581344076934" lon="12.659686263306913"><ele>298.0</ele><time>2026-04-12T07:22:07Z</time></trkpt><trkpt lat="41.795754278128946" lon="12.659607262494262"><ele>298.0</ele><time>2026-04-12T07:22:09Z</time></trkpt><trkpt lat="41.795686783114114" lon="12.659522622839177"><ele>298.0</ele><time>2026-04-12T07:22:11Z</time></trkpt><trkpt lat="41.795615345959845" lon="12.659426435931758"><ele>298.0</ele><time>2026-04-12T07:22:13Z</time></trkpt><trkpt lat="41.79553347675528" lon="12.659338026804683"><ele>298.0</ele><time>2026-04-12T07:22:15Z</time></trkpt><trkpt lat="41.795461960161305" lon="12.659250253919614"><ele>298.0</ele><time>2026-04-12T07:22:17Z</time></trkpt><trkpt lat="41.795396026846205" lon="12.659172463146849"><ele>298.0</ele><time>2026-04-12T07:22:19Z</time></trkpt><trkpt lat="41.795315650236134" lon="12.659077553657669"><ele>298.0</ele><time>2026-04-12T07:22:22Z</time></trkpt><trkpt lat="41.79525208190047" lon="12.659014182785128"><ele>298.0</ele><time>2026-04-12T07:22:25Z</time></trkpt><trkpt lat="41.79517504772743" lon="12.6590067213933"><ele>298.0</ele><time>2026-04-12T07:22:30Z</time></trkpt><trkpt lat="41.79513297082674" lon="12.65908492983721"><ele>298.2857142857143</ele><time>2026-04-12T07:22:33Z</time></trkpt><trkpt lat="41.79509698470106" lon="12.659186646343203"><ele>298.57142857142856</ele><time>2026-04-12T07:22:37Z</time></trkpt><trkpt lat="41.795065626647194" lon="12.659271635394667"><ele>298.85714285714283</ele><time>2026-04-12T07:22:39.999Z</time></trkpt><trkpt lat="41.79502362547177" lon="12.659355858786242"><ele>299.1428571428571</ele><time>2026-04-12T07:22:43.999Z</time></trkpt><trkpt lat="41.79498772406811" lon="12.659431536472809"><ele>299.42857142857144</ele><time>2026-04-12T07:22:46.999Z</time></trkpt><trkpt lat="41.794958193437246" lon="12.659507751574841"><ele>299.71428571428567</ele><time>2026-04-12T07:22:49.999Z</time></trkpt><trkpt lat="41.79493383965329" lon="12.659591844465904"><ele>300.0</ele><time>2026-04-12T07:22:52.999Z</time></trkpt><trkpt lat="41.794893087502714" lon="12.659675041341691"><ele>301.1666666666667</ele><time>2026-04-12T07:22:55.999Z</time></trkpt><trkpt lat="41.79485486576763" lon="12.659758310082177"><ele>302.3333333333333</ele><time>2026-04-12T07:22:58.999Z</time></trkpt><trkpt lat="41.794813628456076" lon="12.659844474362972"><ele>303.5</ele><time>2026-04-12T07:23:01.999Z</time></trkpt><trkpt lat="41.794779260796986" lon="12.659939091936524"><ele>304.66666666666663</ele><time>2026-04-12T07:23:04.999Z</time></trkpt><trkpt lat="41.794741542829506" lon="12.660033109332106"><ele>305.8333333333333</ele><time>2026-04-12T07:23:07.999Z</time></trkpt><trkpt lat="41.79471016994092" lon="12.660127709082987"><ele>307.0</ele><time>2026-04-12T07:23:10.999Z</time></trkpt><trkpt lat="41.794677330691954" lon="12.66022109819621"><ele>307.3333333333333</ele><time>2026-04-12T07:23:13.999Z</time></trkpt><trkpt lat="41.79464625573787" lon="12.660320768947443"><ele>307.66666666666663</ele><time>2026-04-12T07:23:16.999Z</time></trkpt><trkpt lat="41.79461326457865" lon="12.66041882137699"><ele>308.0</ele><time>2026-04-12T07:23:19.999Z</time></trkpt><trkpt lat="41.794585353331236" lon="12.66051394329205"><ele>308.3333333333333</ele><time>2026-04-12T07:23:22.999Z</time></trkpt><trkpt lat="41.79455638348557" lon="12.660613464979109"><ele>308.6666666666667</ele><time>2026-04-12T07:23:26Z</time></trkpt><trkpt lat="41.794514288808365" lon="12.660741393116082"><ele>309.0</ele><time>2026-04-12T07:23:30Z</time></trkpt><trkpt lat="41.79448501880005" lon="12.660840329059946"><ele>309.0</ele><time>2026-04-12T07:23:33Z</time></trkpt><trkpt lat="41.79445341553144" lon="12.660950200864843"><ele>309.0</ele><time>2026-04-12T07:23:36Z</time></trkpt><trkpt lat="41.794419672138055" lon="12.66105441307613"><ele>309.0</ele><time>2026-04-12T07:23:39Z</time></trkpt><trkpt lat="41.794388029481624" lon="12.661162108792038"><ele>309.0</ele><time>2026-04-12T07:23:42Z</time></trkpt><trkpt lat="41.794357999734046" lon="12.661265530686698"><ele>309.0</ele><time>2026-04-12T07:23:45Z</time></trkpt><trkpt lat="41.794326173189624" lon="12.66136204202999"><ele>309.0</ele><time>2026-04-12T07:23:48Z</time></trkpt><trkpt lat="41.79429663356099" lon="12.661462161143579"><ele>310.3333333333333</ele><time>2026-04-12T07:23:51Z</time></trkpt><trkpt lat="41.79426583203816" lon="12.661562534681032"><ele>311.6666666666667</ele><time>2026-04-12T07:23:54Z</time></trkpt><trkpt lat="41.79423221083122" lon="12.66166607975154"><ele>313.0</ele><time>2026-04-12T07:23:57Z</time></trkpt><trkpt lat="41.79420129114604" lon="12.661773657877859"><ele>314.33333333333337</ele><time>2026-04-12T07:24:00Z</time></trkpt><trkpt lat="41.79417041164329" lon="12.661880814317072"><ele>315.6666666666667</ele><time>2026-04-12T07:24:03Z</time></trkpt><trkpt lat="41.79413638893808" lon="12.661984992910083"><ele>317.0</ele><time>2026-04-12T07:24:06Z</time></trkpt><trkpt lat="41.794106423627866" lon="12.662092952916044"><ele>317.1666666666667</ele><time>2026-04-12T07:24:09Z</time></trkpt><trkpt lat="41.794072036584325" lon="12.662198232432125"><ele>317.33333333333337</ele><time>2026-04-12T07:24:12Z</time></trkpt><trkpt lat="41.79404094005098" lon="12.662306159882828"><ele>317.5</ele><time>2026-04-12T07:24:15Z</time></trkpt><trkpt lat="41.79400787873607" lon="12.662413341190891"><ele>317.6666666666667</ele><time>2026-04-12T07:24:18Z</time></trkpt><trkpt lat="41.79397537960981" lon="12.662517498519549"><ele>317.8333333333333</ele><time>2026-04-12T07:24:21Z</time></trkpt><trkpt lat="41.79394171988876" lon="12.662625818196986"><ele>318.0</ele><time>2026-04-12T07:24:24Z</time></trkpt><trkpt lat="41.79390830433448" lon="12.662732696816922"><ele>318.3333333333333</ele><time>2026-04-12T07:24:27Z</time></trkpt><trkpt lat="41.79387602964459" lon="12.66283933142315"><ele>318.6666666666667</ele><time>2026-04-12T07:24:30Z</time></trkpt><trkpt lat="41.79383857331581" lon="12.662919930576239"><ele>319.0</ele><time>2026-04-12T07:24:33Z</time></trkpt><trkpt lat="41.793822823506176" lon="12.663014014964697"><ele>319.33333333333337</ele><time>2026-04-12T07:24:35Z</time></trkpt><trkpt lat="41.79378411949058" lon="12.663124320808762"><ele>319.6666666666667</ele><time>2026-04-12T07:24:38Z</time></trkpt><trkpt lat="41.79374598224977" lon="12.663231408684458"><ele>320.0</ele><time>2026-04-12T07:24:41Z</time></trkpt><trkpt lat="41.79370589455348" lon="12.663329683199517"><ele>320.0</ele><time>2026-04-12T07:24:44Z</time></trkpt><trkpt lat="41.79365535268494" lon="12.663419959050419"><ele>320.0</ele><time>2026-04-12T07:24:47Z</time></trkpt><trkpt lat="41.79360320863461" lon="12.663497355350177"><ele>320.0</ele><time>2026-04-12T07:24:50Z</time></trkpt><trkpt lat="41.793557779574" lon="12.663572592057545"><ele>320.0</ele><time>2026-04-12T07:24:53Z</time></trkpt><trkpt lat="41.793500277743284" lon="12.663658829706025"><ele>320.0</ele><time>2026-04-12T07:24:56Z</time></trkpt><trkpt lat="41.793444237775354" lon="12.663744349567013"><ele>320.0</ele><time>2026-04-12T07:24:59Z</time></trkpt><trkpt lat="41.79339595402858" lon="12.663816360714137"><ele>320.33333333333337</ele><time>2026-04-12T07:25:02Z</time></trkpt><trkpt lat="41.79334273570158" lon="12.663901532906477"><ele>320.6666666666667</ele><time>2026-04-12T07:25:05Z</time></trkpt><trkpt lat="41.793286821926316" lon="12.663982118656971"><ele>321.0</ele><time>2026-04-12T07:25:08Z</time></trkpt><trkpt lat="41.79323082901437" lon="12.664081955703743"><ele>321.3333333333333</ele><time>2026-04-12T07:25:11Z</time></trkpt><trkpt lat="41.793175322537486" lon="12.66416493344729"><ele>321.66666666666663</ele><time>2026-04-12T07:25:13.999Z</time></trkpt><trkpt lat="41.79311707008039" lon="12.66425875650443"><ele>322.0</ele><time>2026-04-12T07:25:16.999Z</time></trkpt><trkpt lat="41.793071912529044" lon="12.664318248434792"><ele>322.0</ele><time>2026-04-12T07:25:18.999Z</time></trkpt><trkpt lat="41.79302675825692" lon="12.664378703326275"><ele>322.0</ele><time>2026-04-12T07:25:20.999Z</time></trkpt><trkpt lat="41.79296674254732" lon="12.664472228189693"><ele>322.0</ele><time>2026-04-12T07:25:23.999Z</time></trkpt><trkpt lat="41.792921307730865" lon="12.664537808543196"><ele>322.0</ele><time>2026-04-12T07:25:25.999Z</time></trkpt><trkpt lat="41.7928805018337" lon="12.664607176198269"><ele>322.0</ele><time>2026-04-12T07:25:27.999Z</time></trkpt><trkpt lat="41.79283824792575" lon="12.66467633780163"><ele>322.0</ele><time>2026-04-12T07:25:29.999Z</time></trkpt><trkpt lat="41.7927776964972" lon="12.664770663289671"><ele>322.0</ele><time>2026-04-12T07:25:33Z</time></trkpt><trkpt lat="41.792733318760675" lon="12.664841719572658"><ele>322.16666666666663</ele><time>2026-04-12T07:25:35Z</time></trkpt><trkpt lat="41.792685483931635" lon="12.664915100997048"><ele>322.3333333333333</ele><time>2026-04-12T07:25:37Z</time></trkpt><trkpt lat="41.79263539362233" lon="12.664993427380125"><ele>322.5</ele><time>2026-04-12T07:25:39Z</time></trkpt><trkpt lat="41.79258472465266" lon="12.665073249722658"><ele>322.6666666666667</ele><time>2026-04-12T07:25:41Z</time></trkpt><trkpt lat="41.79253414054206" lon="12.665151591154782"><ele>322.83333333333337</ele><time>2026-04-12T07:25:43Z</time></trkpt><trkpt lat="41.79247813743336" lon="12.665223212417184"><ele>323.0</ele><time>2026-04-12T07:25:45Z</time></trkpt><trkpt lat="41.792432473764535" lon="12.665299281403136"><ele>323.0</ele><time>2026-04-12T07:25:47Z</time></trkpt><trkpt lat="41.79238658463805" lon="12.665378662619423"><ele>323.0</ele><time>2026-04-12T07:25:49Z</time></trkpt><trkpt lat="41.792346096340054" lon="12.665447254349942"><ele>323.0</ele><time>2026-04-12T07:25:51Z</time></trkpt><trkpt lat="41.79229924286463" lon="12.665514784880726"><ele>323.0</ele><time>2026-04-12T07:25:53Z</time></trkpt><trkpt lat="41.79224628598588" lon="12.665590451006041"><ele>323.0</ele><time>2026-04-12T07:25:55Z</time></trkpt><trkpt lat="41.79217556812203" lon="12.665667531773911"><ele>323.0</ele><time>2026-04-12T07:25:57Z</time></trkpt><trkpt lat="41.792124488673736" lon="12.665764413444908"><ele>323.00000000000006</ele><time>2026-04-12T07:26:00Z</time></trkpt><trkpt lat="41.79207761439009" lon="12.665829616747871"><ele>323.0</ele><time>2026-04-12T07:26:02Z</time></trkpt><trkpt lat="41.79203192809414" lon="12.665904033472927"><ele>323.0</ele><time>2026-04-12T07:26:04Z</time></trkpt><trkpt lat="41.79199072515895" lon="12.665971702274327"><ele>323.0</ele><time>2026-04-12T07:26:06Z</time></trkpt><trkpt lat="41.79192125372353" lon="12.666049374628392"><ele>323.0</ele><time>2026-04-12T07:26:09Z</time></trkpt><trkpt lat="41.79187329906058" lon="12.666107085567454"><ele>323.00000000000006</ele><time>2026-04-12T07:26:11Z</time></trkpt><trkpt lat="41.79181231661902" lon="12.666186238086741"><ele>323.0</ele><time>2026-04-12T07:26:14Z</time></trkpt><trkpt lat="41.79175507308724" lon="12.666254869014582"><ele>322.7142857142857</ele><time>2026-04-12T07:26:17Z</time></trkpt><trkpt lat="41.79169981084159" lon="12.666318065073765"><ele>322.42857142857144</ele><time>2026-04-12T07:27:00Z</time></trkpt><trkpt lat="41.79164825716621" lon="12.666384103871446"><ele>322.1428571428571</ele><time>2026-04-12T07:27:03Z</time></trkpt><trkpt lat="41.79158887027532" lon="12.666468282325608"><ele>321.8571428571429</ele><time>2026-04-12T07:27:06Z</time></trkpt><trkpt lat="41.79153521506545" lon="12.66653299589864"><ele>321.57142857142856</ele><time>2026-04-12T07:27:08Z</time></trkpt><trkpt lat="41.79148435604624" lon="12.66659504828292"><ele>321.2857142857143</ele><time>2026-04-12T07:27:10Z</time></trkpt><trkpt lat="41.791423632836484" lon="12.666657694089297"><ele>321.0</ele><time>2026-04-12T07:27:12Z</time></trkpt><trkpt lat="41.791365452022696" lon="12.666732734240734"><ele>320.99999999999994</ele><time>2026-04-12T07:27:14Z</time></trkpt><trkpt lat="41.79131196159333" lon="12.666810012617926"><ele>321.0</ele><time>2026-04-12T07:27:16Z</time></trkpt><trkpt lat="41.79125686267662" lon="12.666872102973423"><ele>321.0</ele><time>2026-04-12T07:27:17.999Z</time></trkpt><trkpt lat="41.791203178161346" lon="12.666944103742466"><ele>321.0</ele><time>2026-04-12T07:27:19.999Z</time></trkpt><trkpt lat="41.79114668792662" lon="12.667008475547647"><ele>321.0</ele><time>2026-04-12T07:27:21.999Z</time></trkpt><trkpt lat="41.79109957095616" lon="12.66707187051541"><ele>320.99999999999994</ele><time>2026-04-12T07:27:23.999Z</time></trkpt><trkpt lat="41.791050712877" lon="12.667134192924474"><ele>321.0</ele><time>2026-04-12T07:27:25.999Z</time></trkpt><trkpt lat="41.79099845329352" lon="12.667193938477029"><ele>321.4285714285714</ele><time>2026-04-12T07:27:27.999Z</time></trkpt><trkpt lat="41.79094944050001" lon="12.667260080241489"><ele>321.85714285714283</ele><time>2026-04-12T07:27:29.999Z</time></trkpt><trkpt lat="41.790902443788084" lon="12.667319877673627"><ele>322.2857142857143</ele><time>2026-04-12T07:27:31.999Z</time></trkpt><trkpt lat="41.79085120602006" lon="12.667381099316508"><ele>322.71428571428567</ele><time>2026-04-12T07:27:33.999Z</time></trkpt><trkpt lat="41.79079675946334" lon="12.66744590813614"><ele>323.1428571428571</ele><time>2026-04-12T07:27:35.999Z</time></trkpt><trkpt lat="41.79074878352629" lon="12.667511827443779"><ele>323.57142857142856</ele><time>2026-04-12T07:27:38Z</time></trkpt><trkpt lat="41.790696768977234" lon="12.667578434460992"><ele>324.0</ele><time>2026-04-12T07:27:40Z</time></trkpt><trkpt lat="41.7906495329835" lon="12.667645486890798"><ele>324.0</ele><time>2026-04-12T07:27:42Z</time></trkpt><trkpt lat="41.790595850010554" lon="12.667704098473093"><ele>324.0</ele><time>2026-04-12T07:27:44Z</time></trkpt><trkpt lat="41.79053022642977" lon="12.667783534052148"><ele>324.0</ele><time>2026-04-12T07:27:47Z</time></trkpt><trkpt lat="41.79046990394442" lon="12.667865045139232"><ele>324.0</ele><time>2026-04-12T07:27:50Z</time></trkpt><trkpt lat="41.79041475737882" lon="12.667938477889912"><ele>324.0</ele><time>2026-04-12T07:27:53Z</time></trkpt><trkpt lat="41.79034407653949" lon="12.668024269049255"><ele>324.0</ele><time>2026-04-12T07:27:56Z</time></trkpt><trkpt lat="41.790293770835355" lon="12.668084500669499"><ele>324.3333333333333</ele><time>2026-04-12T07:27:58Z</time></trkpt><trkpt lat="41.79023503970081" lon="12.66817215977418"><ele>324.6666666666667</ele><time>2026-04-12T07:28:01Z</time></trkpt><trkpt lat="41.79019153624296" lon="12.668239984364156"><ele>325.0</ele><time>2026-04-12T07:28:03Z</time></trkpt><trkpt lat="41.79014713160494" lon="12.66830254484472"><ele>325.33333333333337</ele><time>2026-04-12T07:28:05Z</time></trkpt><trkpt lat="41.790082097717615" lon="12.66838906784424"><ele>325.6666666666667</ele><time>2026-04-12T07:28:08Z</time></trkpt><trkpt lat="41.7900380665741" lon="12.668451900259678"><ele>326.0</ele><time>2026-04-12T07:28:10Z</time></trkpt><trkpt lat="41.7899669775022" lon="12.668530466181503"><ele>326.5</ele><time>2026-04-12T07:28:13Z</time></trkpt><trkpt lat="41.78990036648713" lon="12.668613050826218"><ele>327.0</ele><time>2026-04-12T07:28:16Z</time></trkpt><trkpt lat="41.78983343614718" lon="12.668693579653636"><ele>327.5</ele><time>2026-04-12T07:28:19Z</time></trkpt><trkpt lat="41.78977009519977" lon="12.668775625311268"><ele>328.0</ele><time>2026-04-12T07:28:22Z</time></trkpt><trkpt lat="41.78970747927265" lon="12.66885652551286"><ele>328.5</ele><time>2026-04-12T07:28:25Z</time></trkpt><trkpt lat="41.789659268746185" lon="12.668918928558398"><ele>329.0</ele><time>2026-04-12T07:28:27Z</time></trkpt><trkpt lat="41.78958811482244" lon="12.669003938904487"><ele>329.0</ele><time>2026-04-12T07:28:30Z</time></trkpt><trkpt lat="41.78954025490848" lon="12.669061473703444"><ele>329.0</ele><time>2026-04-12T07:28:32Z</time></trkpt><trkpt lat="41.78946716786887" lon="12.669139116220022"><ele>329.0</ele><time>2026-04-12T07:28:35Z</time></trkpt><trkpt lat="41.78939318837634" lon="12.669210661670652"><ele>329.0</ele><time>2026-04-12T07:28:38Z</time></trkpt><trkpt lat="41.78933218650074" lon="12.669304367366601"><ele>329.0</ele><time>2026-04-12T07:28:41Z</time></trkpt><trkpt lat="41.78926810364882" lon="12.669393772841923"><ele>329.0</ele><time>2026-04-12T07:28:44Z</time></trkpt><trkpt lat="41.78920212438298" lon="12.669480142008549"><ele>330.6666666666667</ele><time>2026-04-12T07:28:47Z</time></trkpt><trkpt lat="41.789159500608065" lon="12.669543067691594"><ele>332.33333333333337</ele><time>2026-04-12T07:28:49Z</time></trkpt><trkpt lat="41.78909631323" lon="12.669627850949471"><ele>334.0</ele><time>2026-04-12T07:28:52Z</time></trkpt><trkpt lat="41.78903441170081" lon="12.669720356242564"><ele>335.6666666666667</ele><time>2026-04-12T07:28:55Z</time></trkpt><trkpt lat="41.78897448894508" lon="12.669821377791488"><ele>337.3333333333333</ele><time>2026-04-12T07:28:58Z</time></trkpt><trkpt lat="41.7889057914638" lon="12.669905601435843"><ele>339.0</ele><time>2026-04-12T07:29:01Z</time></trkpt><trkpt lat="41.788844251048396" lon="12.669986192962263"><ele>339.0</ele><time>2026-04-12T07:29:04Z</time></trkpt><trkpt lat="41.788780562698065" lon="12.670073842859946"><ele>339.0</ele><time>2026-04-12T07:29:07Z</time></trkpt><trkpt lat="41.78871607621298" lon="12.670164769416017"><ele>339.0</ele><time>2026-04-12T07:29:10Z</time></trkpt><trkpt lat="41.78865139815487" lon="12.670254705594255"><ele>339.0</ele><time>2026-04-12T07:29:13Z</time></trkpt><trkpt lat="41.788585228112815" lon="12.670338964781113"><ele>339.0</ele><time>2026-04-12T07:29:16Z</time></trkpt><trkpt lat="41.7885429846335" lon="12.670402553493394"><ele>339.0</ele><time>2026-04-12T07:29:18Z</time></trkpt><trkpt lat="41.7884803685277" lon="12.670492960484687"><ele>340.5</ele><time>2026-04-12T07:29:21Z</time></trkpt><trkpt lat="41.788419361602756" lon="12.670577572718297"><ele>342.0</ele><time>2026-04-12T07:29:24Z</time></trkpt><trkpt lat="41.788362535342465" lon="12.670666742474998"><ele>343.5</ele><time>2026-04-12T07:29:27Z</time></trkpt><trkpt lat="41.788299552242776" lon="12.670748414326749"><ele>345.0</ele><time>2026-04-12T07:29:30Z</time></trkpt><trkpt lat="41.7882374959222" lon="12.67083104442768"><ele>346.5</ele><time>2026-04-12T07:29:32.999Z</time></trkpt><trkpt lat="41.78817403578294" lon="12.670913920505704"><ele>348.0</ele><time>2026-04-12T07:29:35.999Z</time></trkpt><trkpt lat="41.78811293714813" lon="12.670997768570546"><ele>348.0</ele><time>2026-04-12T07:29:38.999Z</time></trkpt><trkpt lat="41.78804927915678" lon="12.671083569215622"><ele>348.0</ele><time>2026-04-12T07:29:41.999Z</time></trkpt><trkpt lat="41.78798734788731" lon="12.671174872605564"><ele>348.0</ele><time>2026-04-12T07:29:45Z</time></trkpt><trkpt lat="41.78792455078344" lon="12.671266575391947"><ele>348.0</ele><time>2026-04-12T07:29:48Z</time></trkpt><trkpt lat="41.78787776231439" lon="12.671323539720737"><ele>348.0</ele><time>2026-04-12T07:29:50Z</time></trkpt><trkpt lat="41.78781506983768" lon="12.6714163561643"><ele>348.0</ele><time>2026-04-12T07:29:53Z</time></trkpt><trkpt lat="41.78777039556268" lon="12.671476991336903"><ele>347.6666666666667</ele><time>2026-04-12T07:29:55Z</time></trkpt><trkpt lat="41.78770701210125" lon="12.671563817127762"><ele>347.3333333333333</ele><time>2026-04-12T07:29:58Z</time></trkpt><trkpt lat="41.787641939364995" lon="12.67165370995531"><ele>347.0</ele><time>2026-04-12T07:30:01Z</time></trkpt><trkpt lat="41.787576332005315" lon="12.671741703410833"><ele>346.66666666666663</ele><time>2026-04-12T07:30:04Z</time></trkpt><trkpt lat="41.787513662951" lon="12.671834656840423"><ele>346.3333333333333</ele><time>2026-04-12T07:30:07Z</time></trkpt><trkpt lat="41.78746338002136" lon="12.67191095425815"><ele>346.0</ele><time>2026-04-12T07:30:10Z</time></trkpt><trkpt lat="41.787404388633554" lon="12.67199332160966"><ele>346.57142857142856</ele><time>2026-04-12T07:30:14Z</time></trkpt><trkpt lat="41.787360012050726" lon="12.672056601388915"><ele>347.14285714285717</ele><time>2026-04-12T07:30:17Z</time></trkpt><trkpt lat="41.787314035703965" lon="12.67213767347511"><ele>347.7142857142857</ele><time>2026-04-12T07:30:41Z</time></trkpt><trkpt lat="41.787255016977426" lon="12.672206474943485"><ele>348.2857142857143</ele><time>2026-04-12T07:30:45Z</time></trkpt><trkpt lat="41.78720590695988" lon="12.672268634663954"><ele>348.8571428571429</ele><time>2026-04-12T07:30:48Z</time></trkpt><trkpt lat="41.787149183907665" lon="12.67233879471192"><ele>349.42857142857144</ele><time>2026-04-12T07:30:51Z</time></trkpt><trkpt lat="41.78708563047333" lon="12.672403053985896"><ele>350.0</ele><time>2026-04-12T07:30:54Z</time></trkpt><trkpt lat="41.78702744762034" lon="12.672480506027187"><ele>350.0</ele><time>2026-04-12T07:30:57Z</time></trkpt><trkpt lat="41.78696078616188" lon="12.67255784637608"><ele>350.0</ele><time>2026-04-12T07:31:00Z</time></trkpt><trkpt lat="41.78689349257863" lon="12.672633561434095"><ele>350.0</ele><time>2026-04-12T07:31:03Z</time></trkpt><trkpt lat="41.78682911696181" lon="12.672710180643747"><ele>350.0</ele><time>2026-04-12T07:31:06Z</time></trkpt><trkpt lat="41.78677724918495" lon="12.672796668637876"><ele>350.0</ele><time>2026-04-12T07:31:09Z</time></trkpt><trkpt lat="41.786719356364316" lon="12.672884647678327"><ele>350.0</ele><time>2026-04-12T07:31:12Z</time></trkpt><trkpt lat="41.78666856361176" lon="12.67298195334226"><ele>351.0</ele><time>2026-04-12T07:31:15Z</time></trkpt><trkpt lat="41.786617971007864" lon="12.673080966603168"><ele>352.0</ele><time>2026-04-12T07:31:18Z</time></trkpt><trkpt lat="41.78657119117374" lon="12.673186619297361"><ele>353.0</ele><time>2026-04-12T07:31:20.999Z</time></trkpt><trkpt lat="41.7865315199918" lon="12.673293216255962"><ele>354.0</ele><time>2026-04-12T07:31:23.999Z</time></trkpt><trkpt lat="41.786488000322684" lon="12.673407152958264"><ele>355.0</ele><time>2026-04-12T07:31:26.999Z</time></trkpt><trkpt lat="41.78646248528714" lon="12.67348920230099"><ele>356.0</ele><time>2026-04-12T07:31:28.999Z</time></trkpt><trkpt lat="41.786438314223574" lon="12.67358148908221"><ele>356.2857142857143</ele><time>2026-04-12T07:31:30.999Z</time></trkpt><trkpt lat="41.78641729449249" lon="12.67366826616882"><ele>356.57142857142856</ele><time>2026-04-12T07:31:32.999Z</time></trkpt><trkpt lat="41.786390461595666" lon="12.673745388569632"><ele>356.8571428571429</ele><time>2026-04-12T07:31:34.999Z</time></trkpt><trkpt lat="41.78636405626348" lon="12.673830017945296"><ele>357.1428571428571</ele><time>2026-04-12T07:31:36.999Z</time></trkpt><trkpt lat="41.78633756806645" lon="12.673912849056816"><ele>357.42857142857144</ele><time>2026-04-12T07:31:38.999Z</time></trkpt><trkpt lat="41.78630848383119" lon="12.67399767985956"><ele>357.7142857142857</ele><time>2026-04-12T07:31:40.999Z</time></trkpt><trkpt lat="41.786273961021614" lon="12.674077362739368"><ele>358.0</ele><time>2026-04-12T07:31:42.999Z</time></trkpt><trkpt lat="41.78623957831754" lon="12.674153203459465"><ele>358.00000000000006</ele><time>2026-04-12T07:31:44.999Z</time></trkpt><trkpt lat="41.78620288605738" lon="12.674225260139503"><ele>358.0</ele><time>2026-04-12T07:31:46.999Z</time></trkpt><trkpt lat="41.78615724886924" lon="12.6742923875987"><ele>358.0</ele><time>2026-04-12T07:31:49Z</time></trkpt><trkpt lat="41.786109883968585" lon="12.674357139201296"><ele>358.0</ele><time>2026-04-12T07:31:51Z</time></trkpt><trkpt lat="41.786057268456105" lon="12.674412787386448"><ele>358.0</ele><time>2026-04-12T07:31:53Z</time></trkpt><trkpt lat="41.78599967713033" lon="12.674460803752256"><ele>358.00000000000006</ele><time>2026-04-12T07:31:55Z</time></trkpt><trkpt lat="41.78593960745256" lon="12.67450392202494"><ele>358.0</ele><time>2026-04-12T07:31:57Z</time></trkpt><trkpt lat="41.7858796485443" lon="12.67454313345111"><ele>359.28571428571433</ele><time>2026-04-12T07:31:59Z</time></trkpt><trkpt lat="41.78581974780297" lon="12.674577561782483"><ele>360.57142857142856</ele><time>2026-04-12T07:32:01Z</time></trkpt><trkpt lat="41.78575922652128" lon="12.674616709004912"><ele>361.8571428571429</ele><time>2026-04-12T07:32:03Z</time></trkpt><trkpt lat="41.78569971151547" lon="12.67465878601356"><ele>363.14285714285717</ele><time>2026-04-12T07:32:05Z</time></trkpt><trkpt lat="41.785638617193925" lon="12.674698771499655"><ele>364.42857142857144</ele><time>2026-04-12T07:32:07Z</time></trkpt><trkpt lat="41.78557619824967" lon="12.67473777375457"><ele>365.7142857142857</ele><time>2026-04-12T07:32:09Z</time></trkpt><trkpt lat="41.78551538471999" lon="12.674783766400791"><ele>367.0</ele><time>2026-04-12T07:32:11Z</time></trkpt><trkpt lat="41.78545709838388" lon="12.674827072437415"><ele>367.0</ele><time>2026-04-12T07:32:13Z</time></trkpt><trkpt lat="41.78540325520951" lon="12.674874434438511"><ele>367.0</ele><time>2026-04-12T07:32:15Z</time></trkpt><trkpt lat="41.78534508313508" lon="12.674921559400484"><ele>367.0</ele><time>2026-04-12T07:32:17Z</time></trkpt><trkpt lat="41.78526340060206" lon="12.674987396355778"><ele>367.0</ele><time>2026-04-12T07:32:20Z</time></trkpt><trkpt lat="41.78520734955551" lon="12.67503844345463"><ele>367.0</ele><time>2026-04-12T07:32:22Z</time></trkpt><trkpt lat="41.78515404434729" lon="12.675085808633778"><ele>367.0</ele><time>2026-04-12T07:32:24Z</time></trkpt><trkpt lat="41.78509909628811" lon="12.675138217014963"><ele>367.0</ele><time>2026-04-12T07:32:26Z</time></trkpt><trkpt lat="41.78504944047767" lon="12.675190909762552"><ele>367.66666666666663</ele><time>2026-04-12T07:32:28Z</time></trkpt><trkpt lat="41.784980640804115" lon="12.675274475607678"><ele>368.3333333333333</ele><time>2026-04-12T07:32:31Z</time></trkpt><trkpt lat="41.78491478499941" lon="12.6753542291397"><ele>369.0</ele><time>2026-04-12T07:32:34Z</time></trkpt><trkpt lat="41.784855059537676" lon="12.675440268879544"><ele>369.6666666666667</ele><time>2026-04-12T07:32:37Z</time></trkpt><trkpt lat="41.78478953062776" lon="12.675523807044701"><ele>370.33333333333337</ele><time>2026-04-12T07:32:40Z</time></trkpt><trkpt lat="41.784727501560695" lon="12.675606801283582"><ele>371.0</ele><time>2026-04-12T07:32:43Z</time></trkpt><trkpt lat="41.7846646129629" lon="12.675692900154107"><ele>371.0</ele><time>2026-04-12T07:32:46Z</time></trkpt><trkpt lat="41.78459938941286" lon="12.675778291318608"><ele>371.0</ele><time>2026-04-12T07:32:49Z</time></trkpt><trkpt lat="41.78453449470898" lon="12.675864324346957"><ele>371.0</ele><time>2026-04-12T07:32:52Z</time></trkpt><trkpt lat="41.784468897438465" lon="12.675947590813083"><ele>371.0</ele><time>2026-04-12T07:32:55Z</time></trkpt><trkpt lat="41.784414011990435" lon="12.676001903976866"><ele>371.0</ele><time>2026-04-12T07:32:57Z</time></trkpt><trkpt lat="41.78435570451917" lon="12.676096311168758"><ele>371.0</ele><time>2026-04-12T07:33:00Z</time></trkpt><trkpt lat="41.784316585513416" lon="12.676167645368862"><ele>370.1666666666667</ele><time>2026-04-12T07:33:02Z</time></trkpt><trkpt lat="41.78427126690941" lon="12.676266249871285"><ele>369.33333333333337</ele><time>2026-04-12T07:33:05Z</time></trkpt><trkpt lat="41.78423022621287" lon="12.67637089941787"><ele>368.5</ele><time>2026-04-12T07:33:08Z</time></trkpt><trkpt lat="41.78419939209656" lon="12.676455657000878"><ele>367.6666666666667</ele><time>2026-04-12T07:33:10Z</time></trkpt><trkpt lat="41.78416902225893" lon="12.67655088607475"><ele>366.8333333333333</ele><time>2026-04-12T07:33:12Z</time></trkpt><trkpt lat="41.784137299687" lon="12.676659855242209"><ele>366.0</ele><time>2026-04-12T07:33:14Z</time></trkpt><trkpt lat="41.78410323206198" lon="12.676782597050607"><ele>366.0</ele><time>2026-04-12T07:33:16Z</time></trkpt><trkpt lat="41.78406901572168" lon="12.676916164251784"><ele>366.0</ele><time>2026-04-12T07:33:18Z</time></trkpt><trkpt lat="41.784028997911676" lon="12.677054633329144"><ele>366.0</ele><time>2026-04-12T07:33:20Z</time></trkpt><trkpt lat="41.78399473658981" lon="12.677201052679276"><ele>366.0</ele><time>2026-04-12T07:33:22Z</time></trkpt><trkpt lat="41.783969257091435" lon="12.677348119033006"><ele>366.0</ele><time>2026-04-12T07:33:24Z</time></trkpt><trkpt lat="41.78394647568957" lon="12.677487081399496"><ele>366.3333333333333</ele><time>2026-04-12T07:33:26Z</time></trkpt><trkpt lat="41.78391664025547" lon="12.677618578045243"><ele>366.6666666666667</ele><time>2026-04-12T07:33:28Z</time></trkpt><trkpt lat="41.78388144808032" lon="12.677729871454474"><ele>367.0</ele><time>2026-04-12T07:33:30Z</time></trkpt><trkpt lat="41.78384136726023" lon="12.677826281574855"><ele>367.33333333333337</ele><time>2026-04-12T07:33:32Z</time></trkpt><trkpt lat="41.783799354427394" lon="12.677914187089936"><ele>367.6666666666667</ele><time>2026-04-12T07:33:34Z</time></trkpt><trkpt lat="41.78375017888053" lon="12.677997605290102"><ele>368.0</ele><time>2026-04-12T07:33:36Z</time></trkpt><trkpt lat="41.78369911239159" lon="12.678076945821854"><ele>368.83333333333337</ele><time>2026-04-12T07:33:38Z</time></trkpt><trkpt lat="41.78364425422704" lon="12.678166724859127"><ele>369.6666666666667</ele><time>2026-04-12T07:33:40Z</time></trkpt><trkpt lat="41.78358572675935" lon="12.678253571083552"><ele>370.5</ele><time>2026-04-12T07:33:42Z</time></trkpt><trkpt lat="41.783518521358594" lon="12.678335542777129"><ele>371.3333333333333</ele><time>2026-04-12T07:33:44Z</time></trkpt><trkpt lat="41.78346016435609" lon="12.678424259516577"><ele>372.16666666666663</ele><time>2026-04-12T07:33:46Z</time></trkpt><trkpt lat="41.78339358902221" lon="12.678510229245548"><ele>373.0</ele><time>2026-04-12T07:33:48Z</time></trkpt><trkpt lat="41.78333432756232" lon="12.67859650269364"><ele>372.16666666666663</ele><time>2026-04-12T07:33:50Z</time></trkpt><trkpt lat="41.78326868055749" lon="12.678681737281464"><ele>371.3333333333333</ele><time>2026-04-12T07:33:52Z</time></trkpt><trkpt lat="41.783210978064304" lon="12.678765876796167"><ele>370.5</ele><time>2026-04-12T07:33:54Z</time></trkpt><trkpt lat="41.78315521301421" lon="12.678845479058067"><ele>369.6666666666667</ele><time>2026-04-12T07:33:56Z</time></trkpt><trkpt lat="41.783099504551245" lon="12.678924485017573"><ele>368.83333333333337</ele><time>2026-04-12T07:33:58Z</time></trkpt><trkpt lat="41.783046696871146" lon="12.678999334028683"><ele>368.0</ele><time>2026-04-12T07:34:00Z</time></trkpt><trkpt lat="41.78299610212576" lon="12.679072928755573"><ele>368.0</ele><time>2026-04-12T07:34:02Z</time></trkpt><trkpt lat="41.782939695465394" lon="12.679146768182843"><ele>368.0</ele><time>2026-04-12T07:34:04Z</time></trkpt><trkpt lat="41.782888186440005" lon="12.6792251420356"><ele>368.0</ele><time>2026-04-12T07:34:06Z</time></trkpt><trkpt lat="41.78284303223565" lon="12.679308980144452"><ele>368.0</ele><time>2026-04-12T07:34:08Z</time></trkpt><trkpt lat="41.78279889567641" lon="12.679402838312065"><ele>368.0</ele><time>2026-04-12T07:34:10Z</time></trkpt><trkpt lat="41.78276167711146" lon="12.679513597950386"><ele>368.0</ele><time>2026-04-12T07:34:12Z</time></trkpt><trkpt lat="41.78274214392114" lon="12.679644802333632"><ele>366.79999999999995</ele><time>2026-04-12T07:34:14Z</time></trkpt><trkpt lat="41.78272981702112" lon="12.679789026844867"><ele>365.6</ele><time>2026-04-12T07:34:16Z</time></trkpt><trkpt lat="41.78271562079769" lon="12.679933298010825"><ele>364.4</ele><time>2026-04-12T07:34:18Z</time></trkpt><trkpt lat="41.78269803001929" lon="12.680088533408918"><ele>363.20000000000005</ele><time>2026-04-12T07:34:20Z</time></trkpt><trkpt lat="41.78268449994616" lon="12.680233864673507"><ele>362.0</ele><time>2026-04-12T07:34:22Z</time></trkpt><trkpt lat="41.78267646077067" lon="12.680365122367244"><ele>362.0</ele><time>2026-04-12T07:34:24Z</time></trkpt><trkpt lat="41.78266599395413" lon="12.680478577092813"><ele>362.0</ele><time>2026-04-12T07:34:26Z</time></trkpt><trkpt lat="41.78265512544515" lon="12.680584321806515"><ele>362.0</ele><time>2026-04-12T07:34:28Z</time></trkpt><trkpt lat="41.78264410489875" lon="12.680679515505826"><ele>362.0</ele><time>2026-04-12T07:34:30Z</time></trkpt><trkpt lat="41.78263394304171" lon="12.680778187835747"><ele>362.0</ele><time>2026-04-12T07:34:32Z</time></trkpt><trkpt lat="41.782626704269184" lon="12.680874632495117"><ele>362.0</ele><time>2026-04-12T07:34:34Z</time></trkpt><trkpt lat="41.782616128362065" lon="12.68096706476146"><ele>362.0</ele><time>2026-04-12T07:34:36Z</time></trkpt><trkpt lat="41.782611835924904" lon="12.681055011616225"><ele>362.0</ele><time>2026-04-12T07:34:38Z</time></trkpt><trkpt lat="41.78260207322686" lon="12.681176361345425"><ele>362.0</ele><time>2026-04-12T07:34:41Z</time></trkpt><trkpt lat="41.782594019542636" lon="12.68129246031218"><ele>362.0</ele><time>2026-04-12T07:34:44Z</time></trkpt><trkpt lat="41.78258039794991" lon="12.681415896705117"><ele>362.0</ele><time>2026-04-12T07:34:47Z</time></trkpt><trkpt lat="41.78256915610823" lon="12.681534264924286"><ele>362.0</ele><time>2026-04-12T07:34:50Z</time></trkpt><trkpt lat="41.782561873993146" lon="12.681653144546457"><ele>362.1428571428571</ele><time>2026-04-12T07:34:53Z</time></trkpt><trkpt lat="41.78254886306376" lon="12.681776729927567"><ele>362.2857142857143</ele><time>2026-04-12T07:34:56Z</time></trkpt><trkpt lat="41.78253885580825" lon="12.681899067503231"><ele>362.42857142857144</ele><time>2026-04-12T07:34:59Z</time></trkpt><trkpt lat="41.78253218220149" lon="12.681984474495074"><ele>362.57142857142856</ele><time>2026-04-12T07:35:01Z</time></trkpt><trkpt lat="41.782527614915" lon="12.682069418349956"><ele>362.7142857142857</ele><time>2026-04-12T07:35:03Z</time></trkpt><trkpt lat="41.782519160827825" lon="12.682156116432086"><ele>362.85714285714283</ele><time>2026-04-12T07:35:05Z</time></trkpt><trkpt lat="41.78250948579081" lon="12.68224319497898"><ele>363.0</ele><time>2026-04-12T07:35:07Z</time></trkpt><trkpt lat="41.782489358097514" lon="12.68233193626726"><ele>363.4285714285714</ele><time>2026-04-12T07:35:09Z</time></trkpt><trkpt lat="41.78245691881953" lon="12.682417488440061"><ele>363.85714285714283</ele><time>2026-04-12T07:35:11Z</time></trkpt><trkpt lat="41.78241224842185" lon="12.682485775977527"><ele>364.2857142857143</ele><time>2026-04-12T07:35:13Z</time></trkpt><trkpt lat="41.782366159644994" lon="12.682549118986486"><ele>364.71428571428567</ele><time>2026-04-12T07:35:15Z</time></trkpt><trkpt lat="41.782318125464776" lon="12.682607574652247"><ele>365.14285714285717</ele><time>2026-04-12T07:35:17Z</time></trkpt><trkpt lat="41.78226123892375" lon="12.682649948731441"><ele>365.57142857142856</ele><time>2026-04-12T07:35:19Z</time></trkpt><trkpt lat="41.78219623558769" lon="12.682683181457472"><ele>366.0</ele><time>2026-04-12T07:35:21Z</time></trkpt><trkpt lat="41.7821286319133" lon="12.682702241401536"><ele>366.0</ele><time>2026-04-12T07:35:23Z</time></trkpt><trkpt lat="41.78206088147733" lon="12.682692295129057"><ele>366.0</ele><time>2026-04-12T07:35:25Z</time></trkpt><trkpt lat="41.781994109425824" lon="12.682662132058022"><ele>366.0</ele><time>2026-04-12T07:35:27Z</time></trkpt><trkpt lat="41.78193855289941" lon="12.682620859913172"><ele>366.0</ele><time>2026-04-12T07:35:29Z</time></trkpt><trkpt lat="41.78186782435618" lon="12.682548224843812"><ele>366.0</ele><time>2026-04-12T07:35:32Z</time></trkpt><trkpt lat="41.78180415443602" lon="12.68246756671636"><ele>366.0</ele><time>2026-04-12T07:35:35Z</time></trkpt><trkpt lat="41.7817375766434" lon="12.682393286512529"><ele>366.1666666666667</ele><time>2026-04-12T07:35:38Z</time></trkpt><trkpt lat="41.78167513316556" lon="12.682317665751857"><ele>366.3333333333333</ele><time>2026-04-12T07:35:41Z</time></trkpt><trkpt lat="41.78161409871054" lon="12.682246382960772"><ele>366.5</ele><time>2026-04-12T07:35:44Z</time></trkpt><trkpt lat="41.78155214316021" lon="12.682174886826404"><ele>366.66666666666663</ele><time>2026-04-12T07:35:47Z</time></trkpt><trkpt lat="41.7814841693653" lon="12.682090936294312"><ele>366.8333333333333</ele><time>2026-04-12T07:35:50Z</time></trkpt><trkpt lat="41.781435404158664" lon="12.682036867065072"><ele>367.0</ele><time>2026-04-12T07:35:52Z</time></trkpt><trkpt lat="41.781385205483296" lon="12.681983494852808"><ele>366.66666666666663</ele><time>2026-04-12T07:35:54Z</time></trkpt><trkpt lat="41.78133819570095" lon="12.681925484692353"><ele>366.3333333333333</ele><time>2026-04-12T07:35:56Z</time></trkpt><trkpt lat="41.78126754447705" lon="12.681847601601955"><ele>366.0</ele><time>2026-04-12T07:35:59Z</time></trkpt><trkpt lat="41.78119405490291" lon="12.681773809762966"><ele>365.6666666666667</ele><time>2026-04-12T07:36:02Z</time></trkpt><trkpt lat="41.78113823857265" lon="12.681729694655406"><ele>365.33333333333337</ele><time>2026-04-12T07:36:04Z</time></trkpt><trkpt lat="41.78105930950722" lon="12.681663858913295"><ele>365.0</ele><time>2026-04-12T07:36:07Z</time></trkpt><trkpt lat="41.78100254644038" lon="12.68162694861742"><ele>366.6666666666667</ele><time>2026-04-12T07:36:09Z</time></trkpt><trkpt lat="41.78091420587065" lon="12.681580255003086"><ele>368.33333333333337</ele><time>2026-04-12T07:36:12Z</time></trkpt><trkpt lat="41.780851676347396" lon="12.681564016048107"><ele>370.0</ele><time>2026-04-12T07:36:14Z</time></trkpt><trkpt lat="41.78076082901587" lon="12.68155036817581"><ele>371.6666666666667</ele><time>2026-04-12T07:36:17Z</time></trkpt><trkpt lat="41.7806685340297" lon="12.681566702148308"><ele>373.3333333333333</ele><time>2026-04-12T07:36:20Z</time></trkpt><trkpt lat="41.780576429921425" lon="12.681601231153497"><ele>375.0</ele><time>2026-04-12T07:36:23Z</time></trkpt><trkpt lat="41.78049680129252" lon="12.681641718757634"><ele>375.0</ele><time>2026-04-12T07:36:26Z</time></trkpt><trkpt lat="41.78043870238377" lon="12.681684985827461"><ele>375.0</ele><time>2026-04-12T07:36:28Z</time></trkpt><trkpt lat="41.78036904503919" lon="12.68176646603233"><ele>375.0</ele><time>2026-04-12T07:36:31Z</time></trkpt><trkpt lat="41.78030309257286" lon="12.68185106491275"><ele>375.0</ele><time>2026-04-12T07:36:34Z</time></trkpt><trkpt lat="41.780242741638496" lon="12.681942104454862"><ele>375.0</ele><time>2026-04-12T07:36:37Z</time></trkpt><trkpt lat="41.78017953574128" lon="12.68204313993585"><ele>375.0</ele><time>2026-04-12T07:36:40Z</time></trkpt><trkpt lat="41.780121100670584" lon="12.682138314302525"><ele>376.0</ele><time>2026-04-12T07:36:43Z</time></trkpt><trkpt lat="41.780079163081105" lon="12.682205582139177"><ele>377.0</ele><time>2026-04-12T07:36:45Z</time></trkpt><trkpt lat="41.78002078628597" lon="12.682301194479685"><ele>378.0</ele><time>2026-04-12T07:36:48Z</time></trkpt><trkpt lat="41.779980399796294" lon="12.68236683185387"><ele>379.0</ele><time>2026-04-12T07:36:50Z</time></trkpt><trkpt lat="41.77992063310165" lon="12.6824621317286"><ele>380.0</ele><time>2026-04-12T07:36:53Z</time></trkpt><trkpt lat="41.77987997624435" lon="12.682529100857742"><ele>381.0</ele><time>2026-04-12T07:36:55Z</time></trkpt><trkpt lat="41.77981955694096" lon="12.682626157947105"><ele>381.0</ele><time>2026-04-12T07:36:58Z</time></trkpt><trkpt lat="41.77975980545356" lon="12.682719537031424"><ele>381.0</ele><time>2026-04-12T07:37:01Z</time></trkpt><trkpt lat="41.77971135815442" lon="12.682786159038654"><ele>381.0</ele><time>2026-04-12T07:37:04Z</time></trkpt><trkpt lat="41.77967637133706" lon="12.682864032846558"><ele>381.0</ele><time>2026-04-12T07:37:07Z</time></trkpt><trkpt lat="41.779627675388376" lon="12.68293503840822"><ele>381.0</ele><time>2026-04-12T07:37:10Z</time></trkpt><trkpt lat="41.7795824517294" lon="12.683019456285164"><ele>381.0</ele><time>2026-04-12T07:37:13Z</time></trkpt><trkpt lat="41.77952928365726" lon="12.6831092840933"><ele>381.5</ele><time>2026-04-12T07:37:16Z</time></trkpt><trkpt lat="41.77947433141303" lon="12.683192438340662"><ele>382.0</ele><time>2026-04-12T07:37:19Z</time></trkpt><trkpt lat="41.77941748542431" lon="12.683280433969898"><ele>382.5</ele><time>2026-04-12T07:37:22Z</time></trkpt><trkpt lat="41.77936207268377" lon="12.683349995589635"><ele>383.0</ele><time>2026-04-12T07:38:07Z</time></trkpt><trkpt lat="41.77931969904732" lon="12.683428337698569"><ele>383.5</ele><time>2026-04-12T07:38:10Z</time></trkpt><trkpt lat="41.77926831534578" lon="12.683515445473136"><ele>384.0</ele><time>2026-04-12T07:38:14Z</time></trkpt><trkpt lat="41.77921202673748" lon="12.68359726696206"><ele>384.8333333333333</ele><time>2026-04-12T07:38:17Z</time></trkpt><trkpt lat="41.77914980646218" lon="12.683669467528855"><ele>385.66666666666663</ele><time>2026-04-12T07:38:20Z</time></trkpt><trkpt lat="41.779081721107275" lon="12.683726432790738"><ele>386.5</ele><time>2026-04-12T07:38:23Z</time></trkpt><trkpt lat="41.77900655208066" lon="12.6837472049543"><ele>387.3333333333333</ele><time>2026-04-12T07:38:26Z</time></trkpt><trkpt lat="41.778918846121485" lon="12.683758344860466"><ele>388.16666666666663</ele><time>2026-04-12T07:38:29Z</time></trkpt><trkpt lat="41.7788315004655" lon="12.683754061364551"><ele>389.0</ele><time>2026-04-12T07:38:32Z</time></trkpt><trkpt lat="41.77874349704543" lon="12.683734816084655"><ele>388.99999999999994</ele><time>2026-04-12T07:38:35Z</time></trkpt><trkpt lat="41.77865667727238" lon="12.683702092231412"><ele>389.0</ele><time>2026-04-12T07:38:38Z</time></trkpt><trkpt lat="41.778570160205184" lon="12.683659714054325"><ele>389.0</ele><time>2026-04-12T07:38:41Z</time></trkpt><trkpt lat="41.77848677851138" lon="12.68361326771617"><ele>389.0</ele><time>2026-04-12T07:38:44Z</time></trkpt><trkpt lat="41.77840570535941" lon="12.683560640620083"><ele>388.99999999999994</ele><time>2026-04-12T07:38:47Z</time></trkpt><trkpt lat="41.778333713230005" lon="12.683498819673174"><ele>389.0</ele><time>2026-04-12T07:38:50Z</time></trkpt><trkpt lat="41.778265805548514" lon="12.683423443661745"><ele>389.66666666666663</ele><time>2026-04-12T07:38:53Z</time></trkpt><trkpt lat="41.77819976706713" lon="12.683342791867812"><ele>390.3333333333333</ele><time>2026-04-12T07:38:56Z</time></trkpt><trkpt lat="41.77813043829932" lon="12.683261028417181"><ele>391.0</ele><time>2026-04-12T07:38:59Z</time></trkpt><trkpt lat="41.77808511038593" lon="12.68319998677045"><ele>391.66666666666663</ele><time>2026-04-12T07:39:01Z</time></trkpt><trkpt lat="41.77801610508616" lon="12.68311069835693"><ele>392.3333333333333</ele><time>2026-04-12T07:39:04Z</time></trkpt><trkpt lat="41.77795188283939" lon="12.683023732076588"><ele>393.0</ele><time>2026-04-12T07:39:07Z</time></trkpt><trkpt lat="41.77788792950434" lon="12.682932760858115"><ele>393.0</ele><time>2026-04-12T07:39:10Z</time></trkpt><trkpt lat="41.77782654771552" lon="12.682843363107644"><ele>393.0</ele><time>2026-04-12T07:39:13Z</time></trkpt><trkpt lat="41.77776432215265" lon="12.682755176569815"><ele>393.0</ele><time>2026-04-12T07:39:16Z</time></trkpt><trkpt lat="41.77770259438084" lon="12.682662302667515"><ele>393.0</ele><time>2026-04-12T07:39:19Z</time></trkpt><trkpt lat="41.777640606881356" lon="12.682577391511646"><ele>393.0</ele><time>2026-04-12T07:39:22Z</time></trkpt><trkpt lat="41.7775805291314" lon="12.682482996345888"><ele>394.2</ele><time>2026-04-12T07:39:25Z</time></trkpt><trkpt lat="41.77751720947538" lon="12.682392616181778"><ele>395.4</ele><time>2026-04-12T07:39:28Z</time></trkpt><trkpt lat="41.77745635375367" lon="12.682296365731732"><ele>396.59999999999997</ele><time>2026-04-12T07:39:31Z</time></trkpt><trkpt lat="41.777394236088064" lon="12.68220607459932"><ele>397.79999999999995</ele><time>2026-04-12T07:39:34Z</time></trkpt><trkpt lat="41.77733812385446" lon="12.68212163281945"><ele>399.0</ele><time>2026-04-12T07:39:37Z</time></trkpt><trkpt lat="41.777272662423556" lon="12.682028230777707"><ele>399.0</ele><time>2026-04-12T07:39:40Z</time></trkpt><trkpt lat="41.777213358407714" lon="12.681937763409532"><ele>399.0</ele><time>2026-04-12T07:39:43Z</time></trkpt><trkpt lat="41.77715023703802" lon="12.68184732796884"><ele>399.0</ele><time>2026-04-12T07:39:46Z</time></trkpt><trkpt lat="41.777087429908796" lon="12.681752429401032"><ele>399.0</ele><time>2026-04-12T07:39:49Z</time></trkpt><trkpt lat="41.77702439423781" lon="12.681660875014066"><ele>399.0</ele><time>2026-04-12T07:39:52Z</time></trkpt><trkpt lat="41.776966781078706" lon="12.681561339103588"><ele>399.0</ele><time>2026-04-12T07:39:55Z</time></trkpt><trkpt lat="41.77690606210121" lon="12.681462532726892"><ele>399.0</ele><time>2026-04-12T07:39:58Z</time></trkpt><trkpt lat="41.776865401663294" lon="12.681395040325613"><ele>399.0</ele><time>2026-04-12T07:40:00Z</time></trkpt><trkpt lat="41.776827599378755" lon="12.681324955997656"><ele>399.0</ele><time>2026-04-12T07:40:02Z</time></trkpt><trkpt lat="41.77677375355905" lon="12.681226178588553"><ele>399.0</ele><time>2026-04-12T07:40:05Z</time></trkpt><trkpt lat="41.7767163535349" lon="12.681120428684263"><ele>399.0</ele><time>2026-04-12T07:40:08Z</time></trkpt><trkpt lat="41.77667797236718" lon="12.681051634991935"><ele>399.57142857142856</ele><time>2026-04-12T07:40:10Z</time></trkpt><trkpt lat="41.776643497498036" lon="12.680980670779077"><ele>400.1428571428571</ele><time>2026-04-12T07:40:12Z</time></trkpt><trkpt lat="41.77660898142945" lon="12.680906692700468"><ele>400.7142857142857</ele><time>2026-04-12T07:40:14Z</time></trkpt><trkpt lat="41.77657238768116" lon="12.680834001020846"><ele>401.2857142857143</ele><time>2026-04-12T07:40:16Z</time></trkpt><trkpt lat="41.77652198259768" lon="12.680750780847506"><ele>401.85714285714283</ele><time>2026-04-12T07:40:19Z</time></trkpt><trkpt lat="41.776475028702365" lon="12.680655786252"><ele>402.42857142857144</ele><time>2026-04-12T07:40:22Z</time></trkpt><trkpt lat="41.77643293785541" lon="12.680575090563963"><ele>403.0</ele><time>2026-04-12T07:40:25Z</time></trkpt><trkpt lat="41.776369510951454" lon="12.680489260198843"><ele>403.0</ele><time>2026-04-12T07:40:28Z</time></trkpt><trkpt lat="41.77632177558655" lon="12.680426379843471"><ele>403.0</ele><time>2026-04-12T07:40:30Z</time></trkpt><trkpt lat="41.776241158013455" lon="12.680373355322986"><ele>403.0</ele><time>2026-04-12T07:40:33Z</time></trkpt><trkpt lat="41.776175509469375" lon="12.680375231960404"><ele>403.0</ele><time>2026-04-12T07:40:35Z</time></trkpt><trkpt lat="41.77610860739602" lon="12.680440655640881"><ele>403.0</ele><time>2026-04-12T07:40:38Z</time></trkpt><trkpt lat="41.776046350785755" lon="12.680477201877027"><ele>403.0</ele><time>2026-04-12T07:40:40Z</time></trkpt><trkpt lat="41.77598701982721" lon="12.680506484899242"><ele>403.0</ele><time>2026-04-12T07:40:42Z</time></trkpt><trkpt lat="41.775922544135604" lon="12.680521602495181"><ele>403.42857142857144</ele><time>2026-04-12T07:40:44Z</time></trkpt><trkpt lat="41.77585657080307" lon="12.680537547163032"><ele>403.85714285714283</ele><time>2026-04-12T07:40:46Z</time></trkpt><trkpt lat="41.77579300909268" lon="12.680541913937303"><ele>404.2857142857143</ele><time>2026-04-12T07:40:48Z</time></trkpt><trkpt lat="41.77572380964027" lon="12.680544173382987"><ele>404.7142857142857</ele><time>2026-04-12T07:40:50Z</time></trkpt><trkpt lat="41.775654087209965" lon="12.680549382215993"><ele>405.1428571428571</ele><time>2026-04-12T07:40:52Z</time></trkpt><trkpt lat="41.77558285461279" lon="12.680550034068405"><ele>405.57142857142856</ele><time>2026-04-12T07:40:54Z</time></trkpt><trkpt lat="41.775511746452594" lon="12.680564466437866"><ele>406.0</ele><time>2026-04-12T07:40:56Z</time></trkpt><trkpt lat="41.77544200626545" lon="12.680578931100749"><ele>406.0</ele><time>2026-04-12T07:40:58Z</time></trkpt><trkpt lat="41.77537245368896" lon="12.68059899905978"><ele>406.0</ele><time>2026-04-12T07:41:00Z</time></trkpt><trkpt lat="41.775304421431436" lon="12.68062304417899"><ele>406.0</ele><time>2026-04-12T07:41:02Z</time></trkpt><trkpt lat="41.775236380970604" lon="12.680658155198206"><ele>406.0</ele><time>2026-04-12T07:41:04Z</time></trkpt><trkpt lat="41.77517189480063" lon="12.680704232130418"><ele>406.0</ele><time>2026-04-12T07:41:06Z</time></trkpt><trkpt lat="41.77511216439703" lon="12.680756671555685"><ele>406.0</ele><time>2026-04-12T07:41:08Z</time></trkpt><trkpt lat="41.775052701040906" lon="12.680814942227064"><ele>406.0</ele><time>2026-04-12T07:41:10Z</time></trkpt><trkpt lat="41.77499425141914" lon="12.680871931186832"><ele>406.42857142857144</ele><time>2026-04-12T07:41:12Z</time></trkpt><trkpt lat="41.77493447102185" lon="12.680919338294453"><ele>406.8571428571429</ele><time>2026-04-12T07:41:14Z</time></trkpt><trkpt lat="41.77487863385948" lon="12.680961118753984"><ele>407.2857142857143</ele><time>2026-04-12T07:41:16Z</time></trkpt><trkpt lat="41.774824197887206" lon="12.681008849368537"><ele>407.7142857142857</ele><time>2026-04-12T07:41:18Z</time></trkpt><trkpt lat="41.77477113411388" lon="12.681058299996677"><ele>408.14285714285717</ele><time>2026-04-12T07:41:20Z</time></trkpt><trkpt lat="41.77471324030356" lon="12.681107058706832"><ele>408.57142857142856</ele><time>2026-04-12T07:41:22Z</time></trkpt><trkpt lat="41.774659010479375" lon="12.681153766022938"><ele>409.0</ele><time>2026-04-12T07:41:24Z</time></trkpt><trkpt lat="41.77460426645439" lon="12.681201121080832"><ele>409.2857142857143</ele><time>2026-04-12T07:41:26Z</time></trkpt><trkpt lat="41.774552387860616" lon="12.681250174999347"><ele>409.5714285714286</ele><time>2026-04-12T07:41:28Z</time></trkpt><trkpt lat="41.774491470261125" lon="12.681293312943206"><ele>409.8571428571429</ele><time>2026-04-12T07:41:30Z</time></trkpt><trkpt lat="41.77443643403252" lon="12.681339292928405"><ele>410.1428571428571</ele><time>2026-04-12T07:41:32Z</time></trkpt><trkpt lat="41.77437768947669" lon="12.681382840514189"><ele>410.42857142857144</ele><time>2026-04-12T07:41:34Z</time></trkpt><trkpt lat="41.774314190459556" lon="12.6814150981984"><ele>410.7142857142857</ele><time>2026-04-12T07:41:36Z</time></trkpt><trkpt lat="41.774246453659494" lon="12.681437139097794"><ele>411.0</ele><time>2026-04-12T07:41:38Z</time></trkpt><trkpt lat="41.774182061896994" lon="12.681457798747225"><ele>411.57142857142856</ele><time>2026-04-12T07:41:40Z</time></trkpt><trkpt lat="41.774114990973494" lon="12.681475884424543"><ele>412.1428571428571</ele><time>2026-04-12T07:41:42Z</time></trkpt><trkpt lat="41.77404626151241" lon="12.68148915935711"><ele>412.7142857142857</ele><time>2026-04-12T07:41:44Z</time></trkpt><trkpt lat="41.77397987597298" lon="12.681503479067825"><ele>413.2857142857143</ele><time>2026-04-12T07:41:46Z</time></trkpt><trkpt lat="41.77391433851437" lon="12.68152402809955"><ele>413.8571428571429</ele><time>2026-04-12T07:41:48Z</time></trkpt><trkpt lat="41.773846239414546" lon="12.681537104341231"><ele>414.42857142857144</ele><time>2026-04-12T07:41:50Z</time></trkpt><trkpt lat="41.773777772775645" lon="12.681553411867295"><ele>415.0</ele><time>2026-04-12T07:41:52Z</time></trkpt><trkpt lat="41.77371078061927" lon="12.681577154965423"><ele>415.00000000000006</ele><time>2026-04-12T07:41:54Z</time></trkpt><trkpt lat="41.77364976848748" lon="12.681600326967695"><ele>415.0</ele><time>2026-04-12T07:41:56Z</time></trkpt><trkpt lat="41.77358832135083" lon="12.681631791464664"><ele>415.0</ele><time>2026-04-12T07:41:58Z</time></trkpt><trkpt lat="41.77347650761266" lon="12.68169640573004"><ele>415.0</ele><time>2026-04-12T07:42:02Z</time></trkpt><trkpt lat="41.7734161300921" lon="12.68172125675021"><ele>415.00000000000006</ele><time>2026-04-12T07:42:04Z</time></trkpt><trkpt lat="41.77335419379498" lon="12.681749837475085"><ele>415.0</ele><time>2026-04-12T07:42:06Z</time></trkpt><trkpt lat="41.77327063040447" lon="12.681798846329583"><ele>415.42857142857144</ele><time>2026-04-12T07:42:09Z</time></trkpt><trkpt lat="41.773209170228775" lon="12.681832632972123"><ele>415.8571428571429</ele><time>2026-04-12T07:42:11Z</time></trkpt><trkpt lat="41.773146832340956" lon="12.681866206796887"><ele>416.2857142857143</ele><time>2026-04-12T07:42:13Z</time></trkpt><trkpt lat="41.77308568014664" lon="12.681898761946542"><ele>416.7142857142857</ele><time>2026-04-12T07:42:15Z</time></trkpt><trkpt lat="41.773026909490525" lon="12.681932715001672"><ele>417.1428571428571</ele><time>2026-04-12T07:42:17Z</time></trkpt><trkpt lat="41.77296122178114" lon="12.681963504509444"><ele>417.57142857142856</ele><time>2026-04-12T07:42:19Z</time></trkpt><trkpt lat="41.77289480570789" lon="12.681990416827064"><ele>418.0</ele><time>2026-04-12T07:42:21Z</time></trkpt><trkpt lat="41.772827839127245" lon="12.682012268762453"><ele>418.0</ele><time>2026-04-12T07:42:23Z</time></trkpt><trkpt lat="41.77276037907515" lon="12.682029196294637"><ele>418.0</ele><time>2026-04-12T07:42:25Z</time></trkpt><trkpt lat="41.77269056044944" lon="12.68204010863399"><ele>418.0</ele><time>2026-04-12T07:42:27Z</time></trkpt><trkpt lat="41.7726207280231" lon="12.682057600031065"><ele>418.0</ele><time>2026-04-12T07:42:29Z</time></trkpt><trkpt lat="41.77255385537926" lon="12.682070601407958"><ele>418.0</ele><time>2026-04-12T07:42:31Z</time></trkpt><trkpt lat="41.77248613640577" lon="12.6820818131735"><ele>418.0</ele><time>2026-04-12T07:42:33Z</time></trkpt><trkpt lat="41.772422395570324" lon="12.682099606315234"><ele>418.0</ele><time>2026-04-12T07:42:35Z</time></trkpt><trkpt lat="41.772355462628184" lon="12.682110386915166"><ele>418.6666666666667</ele><time>2026-04-12T07:42:37Z</time></trkpt><trkpt lat="41.77228958809378" lon="12.68212591146963"><ele>419.33333333333337</ele><time>2026-04-12T07:42:39Z</time></trkpt><trkpt lat="41.77222484520736" lon="12.682139626168759"><ele>420.0</ele><time>2026-04-12T07:42:41Z</time></trkpt><trkpt lat="41.772157942115456" lon="12.68215001723387"><ele>420.66666666666663</ele><time>2026-04-12T07:42:43Z</time></trkpt><trkpt lat="41.77207096574851" lon="12.682188526679868"><ele>421.3333333333333</ele><time>2026-04-12T07:42:46Z</time></trkpt><trkpt lat="41.77200926243567" lon="12.68222599340473"><ele>422.0</ele><time>2026-04-12T07:42:48Z</time></trkpt><trkpt lat="41.77192523570232" lon="12.682279448334128"><ele>422.66666666666663</ele><time>2026-04-12T07:42:51Z</time></trkpt><trkpt lat="41.77184605794155" lon="12.682333504977434"><ele>423.3333333333333</ele><time>2026-04-12T07:42:54Z</time></trkpt><trkpt lat="41.77176355452575" lon="12.682364063390454"><ele>424.0</ele><time>2026-04-12T07:42:57Z</time></trkpt><trkpt lat="41.771681821960875" lon="12.68238272886465"><ele>424.66666666666663</ele><time>2026-04-12T07:43:00Z</time></trkpt><trkpt lat="41.77161603899737" lon="12.682380776914687"><ele>425.3333333333333</ele><time>2026-04-12T07:43:03Z</time></trkpt><trkpt lat="41.771546311561366" lon="12.682367216046407"><ele>426.0</ele><time>2026-04-12T07:43:07Z</time></trkpt><trkpt lat="41.77146726728337" lon="12.682310284894706"><ele>425.99999999999994</ele><time>2026-04-12T07:43:11Z</time></trkpt><trkpt lat="41.7713998579549" lon="12.68229515832674"><ele>426.0</ele><time>2026-04-12T07:43:13Z</time></trkpt><trkpt lat="41.771336381461325" lon="12.682286456347065"><ele>426.0</ele><time>2026-04-12T07:43:15Z</time></trkpt><trkpt lat="41.77127278736905" lon="12.682279228846838"><ele>426.0</ele><time>2026-04-12T07:43:17Z</time></trkpt><trkpt lat="41.77120655525671" lon="12.682293736469687"><ele>426.0</ele><time>2026-04-12T07:43:19Z</time></trkpt><trkpt lat="41.77114113578987" lon="12.68232334284988"><ele>425.99999999999994</ele><time>2026-04-12T07:43:21Z</time></trkpt><trkpt lat="41.771075582223084" lon="12.682356575190266"><ele>426.0</ele><time>2026-04-12T07:43:23Z</time></trkpt><trkpt lat="41.77100173265703" lon="12.682381196756221"><ele>426.3333333333333</ele><time>2026-04-12T07:43:25Z</time></trkpt><trkpt lat="41.77092912473171" lon="12.682412836622987"><ele>426.66666666666663</ele><time>2026-04-12T07:43:27Z</time></trkpt><trkpt lat="41.77084538311524" lon="12.682421178193168"><ele>427.0</ele><time>2026-04-12T07:43:29Z</time></trkpt><trkpt lat="41.770762578108766" lon="12.682458813624637"><ele>427.3333333333333</ele><time>2026-04-12T07:43:31Z</time></trkpt><trkpt lat="41.77067374683438" lon="12.682492824260242"><ele>427.66666666666663</ele><time>2026-04-12T07:43:33Z</time></trkpt><trkpt lat="41.77058301923864" lon="12.682537027997112"><ele>428.0</ele><time>2026-04-12T07:43:35Z</time></trkpt><trkpt lat="41.770484154537066" lon="12.682574242855647"><ele>428.0</ele><time>2026-04-12T07:43:37Z</time></trkpt><trkpt lat="41.770376118301336" lon="12.682615465291164"><ele>427.99999999999994</ele><time>2026-04-12T07:43:39Z</time></trkpt><trkpt lat="41.77026318042072" lon="12.682656772550853"><ele>427.99999999999994</ele><time>2026-04-12T07:43:41Z</time></trkpt><trkpt lat="41.77014423597984" lon="12.682703238536476"><ele>428.0</ele><time>2026-04-12T07:43:43Z</time></trkpt><trkpt lat="41.77008027036125" lon="12.68272215110607"><ele>428.0</ele><time>2026-04-12T07:43:44Z</time></trkpt><trkpt lat="41.77001405437656" lon="12.682744277512516"><ele>427.8571428571429</ele><time>2026-04-12T07:43:45Z</time></trkpt><trkpt lat="41.769949871519216" lon="12.682770168663552"><ele>427.7142857142857</ele><time>2026-04-12T07:43:46Z</time></trkpt><trkpt lat="41.769884811344944" lon="12.682793683686448"><ele>427.57142857142856</ele><time>2026-04-12T07:43:47Z</time></trkpt><trkpt lat="41.76981986532438" lon="12.68281906882178"><ele>427.42857142857144</ele><time>2026-04-12T07:43:48Z</time></trkpt><trkpt lat="41.7697534776645" lon="12.68285013147541"><ele>427.2857142857143</ele><time>2026-04-12T07:43:49Z</time></trkpt><trkpt lat="41.769683284657354" lon="12.682882153262007"><ele>427.14285714285717</ele><time>2026-04-12T07:43:50Z</time></trkpt><trkpt lat="41.76961509371142" lon="12.682921146158247"><ele>427.0</ele><time>2026-04-12T07:43:51Z</time></trkpt><trkpt lat="41.7695484571572" lon="12.682965780889191"><ele>427.0</ele><time>2026-04-12T07:43:52Z</time></trkpt><trkpt lat="41.769482339165414" lon="12.683012263279334"><ele>427.0</ele><time>2026-04-12T07:43:53Z</time></trkpt><trkpt lat="41.769418996009385" lon="12.683060130309672"><ele>427.0</ele><time>2026-04-12T07:43:54Z</time></trkpt><trkpt lat="41.76935817052842" lon="12.68311271426539"><ele>427.0</ele><time>2026-04-12T07:43:55Z</time></trkpt><trkpt lat="41.769297053667756" lon="12.683154474840185"><ele>427.0</ele><time>2026-04-12T07:43:56Z</time></trkpt><trkpt lat="41.76923744398743" lon="12.683197951250628"><ele>427.0</ele><time>2026-04-12T07:43:57Z</time></trkpt><trkpt lat="41.769183458045894" lon="12.683244044251596"><ele>427.0</ele><time>2026-04-12T07:43:58Z</time></trkpt><trkpt lat="41.769077720733826" lon="12.683325071192055"><ele>425.40000000000003</ele><time>2026-04-12T07:44:00Z</time></trkpt><trkpt lat="41.76897937235722" lon="12.683400722924224"><ele>423.80000000000007</ele><time>2026-04-12T07:44:02Z</time></trkpt><trkpt lat="41.768889844441574" lon="12.683474931391086"><ele>422.2</ele><time>2026-04-12T07:44:04Z</time></trkpt><trkpt lat="41.76882696608234" lon="12.68356293228382"><ele>420.6</ele><time>2026-04-12T07:44:06Z</time></trkpt><trkpt lat="41.76879208330629" lon="12.683649896343104"><ele>419.0</ele><time>2026-04-12T07:44:08Z</time></trkpt><trkpt lat="41.76878390781425" lon="12.683760930582368"><ele>418.99999999999994</ele><time>2026-04-12T07:44:11Z</time></trkpt><trkpt lat="41.768826552641364" lon="12.683847666509754"><ele>419.0</ele><time>2026-04-12T07:45:53Z</time></trkpt><trkpt lat="41.76886699859128" lon="12.683948117802617"><ele>419.0</ele><time>2026-04-12T07:45:57Z</time></trkpt><trkpt lat="41.768898355864714" lon="12.684053439546558"><ele>419.0</ele><time>2026-04-12T07:46:01Z</time></trkpt><trkpt lat="41.768935653041055" lon="12.6841453697627"><ele>418.99999999999994</ele><time>2026-04-12T07:46:04Z</time></trkpt><trkpt lat="41.76896236527679" lon="12.68424401263299"><ele>419.0</ele><time>2026-04-12T07:46:07Z</time></trkpt><trkpt lat="41.76900233574502" lon="12.684355506911482"><ele>419.2857142857143</ele><time>2026-04-12T07:46:10Z</time></trkpt><trkpt lat="41.76902790725705" lon="12.684433708144235"><ele>419.57142857142856</ele><time>2026-04-12T07:46:12Z</time></trkpt><trkpt lat="41.769056176287975" lon="12.68451129692837"><ele>419.8571428571429</ele><time>2026-04-12T07:46:14Z</time></trkpt><trkpt lat="41.76908321535703" lon="12.684589184042373"><ele>420.1428571428571</ele><time>2026-04-12T07:46:15.999Z</time></trkpt><trkpt lat="41.76910937756664" lon="12.68466716706314"><ele>420.42857142857144</ele><time>2026-04-12T07:46:17.999Z</time></trkpt><trkpt lat="41.769136463018214" lon="12.684747413827166"><ele>420.7142857142857</ele><time>2026-04-12T07:46:19.999Z</time></trkpt><trkpt lat="41.76916365256775" lon="12.68482685001934"><ele>421.0</ele><time>2026-04-12T07:46:21.999Z</time></trkpt><trkpt lat="41.76919133982494" lon="12.68490624944312"><ele>421.00000000000006</ele><time>2026-04-12T07:46:23.999Z</time></trkpt><trkpt lat="41.769214467065574" lon="12.68499121130129"><ele>421.0</ele><time>2026-04-12T07:46:25.999Z</time></trkpt><trkpt lat="41.76923338333955" lon="12.685078888080804"><ele>421.0</ele><time>2026-04-12T07:46:27.999Z</time></trkpt><trkpt lat="41.76924278550145" lon="12.685172684042284"><ele>421.0</ele><time>2026-04-12T07:46:29.999Z</time></trkpt><trkpt lat="41.76924777469234" lon="12.685268475011817"><ele>421.0</ele><time>2026-04-12T07:46:32Z</time></trkpt><trkpt lat="41.7692467651251" lon="12.685364817113987"><ele>421.00000000000006</ele><time>2026-04-12T07:46:34Z</time></trkpt><trkpt lat="41.76924174501231" lon="12.685459315054501"><ele>421.0</ele><time>2026-04-12T07:46:36Z</time></trkpt><trkpt lat="41.769235215619716" lon="12.68555737484898"><ele>421.5714285714286</ele><time>2026-04-12T07:46:38Z</time></trkpt><trkpt lat="41.76922233244606" lon="12.685652780858378"><ele>422.14285714285717</ele><time>2026-04-12T07:46:40Z</time></trkpt><trkpt lat="41.769210018548115" lon="12.685746786529668"><ele>422.7142857142857</ele><time>2026-04-12T07:46:42Z</time></trkpt><trkpt lat="41.76919452757325" lon="12.685841928141167"><ele>423.28571428571433</ele><time>2026-04-12T07:46:44Z</time></trkpt><trkpt lat="41.769176938470906" lon="12.685933964703363"><ele>423.85714285714283</ele><time>2026-04-12T07:46:46Z</time></trkpt><trkpt lat="41.76916050693881" lon="12.686020584108244"><ele>424.42857142857144</ele><time>2026-04-12T07:46:48Z</time></trkpt><trkpt lat="41.76914710871657" lon="12.686109093431133"><ele>425.0</ele><time>2026-04-12T07:46:50Z</time></trkpt><trkpt lat="41.769134170835436" lon="12.686199289568417"><ele>425.57142857142856</ele><time>2026-04-12T07:46:52Z</time></trkpt><trkpt lat="41.76912057533413" lon="12.686290837289206"><ele>426.1428571428571</ele><time>2026-04-12T07:46:54Z</time></trkpt><trkpt lat="41.769105169479914" lon="12.686380273941516"><ele>426.7142857142857</ele><time>2026-04-12T07:46:56Z</time></trkpt><trkpt lat="41.76908877813665" lon="12.68646975848222"><ele>427.2857142857143</ele><time>2026-04-12T07:46:58Z</time></trkpt><trkpt lat="41.76907484874271" lon="12.686556328217055"><ele>427.8571428571429</ele><time>2026-04-12T07:47:00Z</time></trkpt><trkpt lat="41.76905841432391" lon="12.686643315796601"><ele>428.42857142857144</ele><time>2026-04-12T07:47:02Z</time></trkpt><trkpt lat="41.76904560710184" lon="12.68673247197855"><ele>429.0</ele><time>2026-04-12T07:47:04Z</time></trkpt><trkpt lat="41.76902976628514" lon="12.686819580609791"><ele>429.0</ele><time>2026-04-12T07:47:06Z</time></trkpt><trkpt lat="41.76901424365646" lon="12.686906127893243"><ele>429.0</ele><time>2026-04-12T07:47:08Z</time></trkpt><trkpt lat="41.76900129665" lon="12.686993977111916"><ele>429.0</ele><time>2026-04-12T07:47:10Z</time></trkpt><trkpt lat="41.76898586482981" lon="12.687079373561197"><ele>429.0</ele><time>2026-04-12T07:47:12Z</time></trkpt><trkpt lat="41.76896635755856" lon="12.687161034976294"><ele>429.0</ele><time>2026-04-12T07:47:14Z</time></trkpt><trkpt lat="41.768941758281265" lon="12.687241509773068"><ele>429.0</ele><time>2026-04-12T07:47:16Z</time></trkpt><trkpt lat="41.768899185501475" lon="12.687352657050697"><ele>429.0</ele><time>2026-04-12T07:47:19Z</time></trkpt><trkpt lat="41.768861728933175" lon="12.687423625205628"><ele>429.3333333333333</ele><time>2026-04-12T07:47:21Z</time></trkpt><trkpt lat="41.768792380580486" lon="12.687513725541512"><ele>429.66666666666663</ele><time>2026-04-12T07:47:24Z</time></trkpt><trkpt lat="41.76874190840719" lon="12.687578690754505"><ele>430.0</ele><time>2026-04-12T07:47:26Z</time></trkpt><trkpt lat="41.76868986248414" lon="12.687639809968974"><ele>430.3333333333333</ele><time>2026-04-12T07:47:28Z</time></trkpt><trkpt lat="41.76863706340842" lon="12.687706079958105"><ele>430.66666666666663</ele><time>2026-04-12T07:47:30Z</time></trkpt><trkpt lat="41.7685831655712" lon="12.68777092484502"><ele>431.0</ele><time>2026-04-12T07:47:32Z</time></trkpt><trkpt lat="41.76852854734445" lon="12.687834681948786"><ele>431.5714285714286</ele><time>2026-04-12T07:47:34Z</time></trkpt><trkpt lat="41.768473302797105" lon="12.68789678566362"><ele>432.1428571428571</ele><time>2026-04-12T07:47:36Z</time></trkpt><trkpt lat="41.768418518173526" lon="12.687955593652037"><ele>432.7142857142857</ele><time>2026-04-12T07:47:38Z</time></trkpt><trkpt lat="41.768366294952735" lon="12.688013227949126"><ele>433.28571428571433</ele><time>2026-04-12T07:47:40Z</time></trkpt><trkpt lat="41.76831884272206" lon="12.688078784571186"><ele>433.8571428571429</ele><time>2026-04-12T07:47:42Z</time></trkpt><trkpt lat="41.76827544200951" lon="12.688152196516477"><ele>434.42857142857144</ele><time>2026-04-12T07:47:44Z</time></trkpt><trkpt lat="41.768232524813456" lon="12.688223442393705"><ele>435.0</ele><time>2026-04-12T07:47:46Z</time></trkpt><trkpt lat="41.76819133453057" lon="12.688297282448252"><ele>435.00000000000006</ele><time>2026-04-12T07:47:48Z</time></trkpt><trkpt lat="41.76815080289697" lon="12.68837233255795"><ele>435.0</ele><time>2026-04-12T07:47:50Z</time></trkpt><trkpt lat="41.768109453966076" lon="12.688445793091933"><ele>435.0</ele><time>2026-04-12T07:47:52Z</time></trkpt><trkpt lat="41.76806954210148" lon="12.68851998537751"><ele>435.0</ele><time>2026-04-12T07:47:54Z</time></trkpt><trkpt lat="41.76802801644018" lon="12.688593464041416"><ele>435.0</ele><time>2026-04-12T07:47:56Z</time></trkpt><trkpt lat="41.76799084167673" lon="12.688667287293745"><ele>435.00000000000006</ele><time>2026-04-12T07:47:58Z</time></trkpt><trkpt lat="41.76795719764003" lon="12.688747080963655"><ele>435.0</ele><time>2026-04-12T07:48:00Z</time></trkpt><trkpt lat="41.767931263260216" lon="12.68882996193778"><ele>435.42857142857144</ele><time>2026-04-12T07:48:02Z</time></trkpt><trkpt lat="41.76790961474516" lon="12.68891753498221"><ele>435.8571428571429</ele><time>2026-04-12T07:48:04Z</time></trkpt><trkpt lat="41.76789419056232" lon="12.689006338756368"><ele>436.28571428571433</ele><time>2026-04-12T07:48:06Z</time></trkpt><trkpt lat="41.767886874555906" lon="12.689095622780158"><ele>436.7142857142857</ele><time>2026-04-12T07:48:08Z</time></trkpt><trkpt lat="41.76788406183081" lon="12.68918561752909"><ele>437.1428571428571</ele><time>2026-04-12T07:48:10Z</time></trkpt><trkpt lat="41.76787334080092" lon="12.689277301154023"><ele>437.5714285714286</ele><time>2026-04-12T07:48:12Z</time></trkpt><trkpt lat="41.76786321320372" lon="12.689371792703243"><ele>438.0</ele><time>2026-04-12T07:48:14Z</time></trkpt><trkpt lat="41.76783752994603" lon="12.689462447908678"><ele>438.7142857142857</ele><time>2026-04-12T07:48:16Z</time></trkpt><trkpt lat="41.76781173978254" lon="12.689552716543892"><ele>439.4285714285714</ele><time>2026-04-12T07:48:18Z</time></trkpt><trkpt lat="41.76778194953586" lon="12.68963765423503"><ele>440.1428571428571</ele><time>2026-04-12T07:48:20Z</time></trkpt><trkpt lat="41.76775198059812" lon="12.68972346989437"><ele>440.8571428571429</ele><time>2026-04-12T07:48:21.999Z</time></trkpt><trkpt lat="41.767720614918495" lon="12.68980751596649"><ele>441.57142857142856</ele><time>2026-04-12T07:48:23.999Z</time></trkpt><trkpt lat="41.76768385077332" lon="12.689887429950392"><ele>442.2857142857143</ele><time>2026-04-12T07:48:25.999Z</time></trkpt><trkpt lat="41.767643393586546" lon="12.689964489201168"><ele>443.0</ele><time>2026-04-12T07:48:27.999Z</time></trkpt><trkpt lat="41.76759758952693" lon="12.690034744782189"><ele>443.2857142857143</ele><time>2026-04-12T07:48:29.999Z</time></trkpt><trkpt lat="41.767550000122206" lon="12.690102387947864"><ele>443.57142857142856</ele><time>2026-04-12T07:48:31.999Z</time></trkpt><trkpt lat="41.76750495568682" lon="12.690170844236835"><ele>443.8571428571429</ele><time>2026-04-12T07:48:33.999Z</time></trkpt><trkpt lat="41.76745937756519" lon="12.690239316549944"><ele>444.1428571428571</ele><time>2026-04-12T07:48:35.999Z</time></trkpt><trkpt lat="41.76741428662687" lon="12.690305137651773"><ele>444.4285714285714</ele><time>2026-04-12T07:48:38Z</time></trkpt><trkpt lat="41.76736965415909" lon="12.690369225778472"><ele>444.7142857142857</ele><time>2026-04-12T07:48:40Z</time></trkpt><trkpt lat="41.76730295286539" lon="12.690460800628436"><ele>445.0</ele><time>2026-04-12T07:48:43Z</time></trkpt><trkpt lat="41.76726103646209" lon="12.69052537825836"><ele>445.42857142857144</ele><time>2026-04-12T07:48:45Z</time></trkpt><trkpt lat="41.76722243338946" lon="12.690594306104087"><ele>445.85714285714283</ele><time>2026-04-12T07:48:47Z</time></trkpt><trkpt lat="41.76718661542956" lon="12.690668812576755"><ele>446.2857142857143</ele><time>2026-04-12T07:48:49Z</time></trkpt><trkpt lat="41.767155214899624" lon="12.69074799184184"><ele>446.7142857142857</ele><time>2026-04-12T07:48:51Z</time></trkpt><trkpt lat="41.767127272490754" lon="12.690828538454726"><ele>447.1428571428571</ele><time>2026-04-12T07:48:53Z</time></trkpt><trkpt lat="41.76710401409488" lon="12.690908609124904"><ele>447.57142857142856</ele><time>2026-04-12T07:48:55Z</time></trkpt><trkpt lat="41.76708341623522" lon="12.690992604242895"><ele>448.0</ele><time>2026-04-12T07:48:57Z</time></trkpt><trkpt lat="41.76706387996525" lon="12.691078628428544"><ele>448.8571428571429</ele><time>2026-04-12T07:48:59Z</time></trkpt><trkpt lat="41.767042182737484" lon="12.691161663466186"><ele>449.7142857142857</ele><time>2026-04-12T07:49:01Z</time></trkpt><trkpt lat="41.76702052539696" lon="12.691247663311092"><ele>450.57142857142856</ele><time>2026-04-12T07:49:03Z</time></trkpt><trkpt lat="41.76700200679736" lon="12.691332681565402"><ele>451.42857142857144</ele><time>2026-04-12T07:49:05Z</time></trkpt><trkpt lat="41.76698104518512" lon="12.691416659810047"><ele>452.28571428571433</ele><time>2026-04-12T07:49:07Z</time></trkpt><trkpt lat="41.76696366522889" lon="12.69149907535075"><ele>453.14285714285717</ele><time>2026-04-12T07:49:09Z</time></trkpt><trkpt lat="41.766943363005076" lon="12.691582805290627"><ele>454.0</ele><time>2026-04-12T07:49:11Z</time></trkpt><trkpt lat="41.76692307054601" lon="12.69166388185121"><ele>454.0</ele><time>2026-04-12T07:49:13Z</time></trkpt><trkpt lat="41.766902362901554" lon="12.691748053120707"><ele>454.00000000000006</ele><time>2026-04-12T07:49:15Z</time></trkpt><trkpt lat="41.7668846928063" lon="12.691831047728373"><ele>454.0</ele><time>2026-04-12T07:49:17Z</time></trkpt><trkpt lat="41.76686406172946" lon="12.691912517845223"><ele>454.0</ele><time>2026-04-12T07:49:19Z</time></trkpt><trkpt lat="41.76684400303006" lon="12.691995282943898"><ele>454.00000000000006</ele><time>2026-04-12T07:49:21Z</time></trkpt><trkpt lat="41.76682732784351" lon="12.692077262087603"><ele>454.0</ele><time>2026-04-12T07:49:23Z</time></trkpt><trkpt lat="41.76680699104327" lon="12.692158996008923"><ele>454.0</ele><time>2026-04-12T07:49:25Z</time></trkpt><trkpt lat="41.76678637761863" lon="12.692243023022101"><ele>454.7142857142857</ele><time>2026-04-12T07:49:27Z</time></trkpt><trkpt lat="41.76676388616382" lon="12.692328105362604"><ele>455.42857142857144</ele><time>2026-04-12T07:49:29Z</time></trkpt><trkpt lat="41.766744602767105" lon="12.692408897630202"><ele>456.14285714285717</ele><time>2026-04-12T07:49:31Z</time></trkpt><trkpt lat="41.76671961950085" lon="12.692491298434566"><ele>456.8571428571429</ele><time>2026-04-12T07:49:33Z</time></trkpt><trkpt lat="41.766693054566154" lon="12.692569096181836"><ele>457.57142857142856</ele><time>2026-04-12T07:49:35Z</time></trkpt><trkpt lat="41.766657550883636" lon="12.692645911574804"><ele>458.28571428571433</ele><time>2026-04-12T07:49:37Z</time></trkpt><trkpt lat="41.7666195832592" lon="12.692718520094456"><ele>459.0</ele><time>2026-04-12T07:49:39Z</time></trkpt><trkpt lat="41.76657923741262" lon="12.692789178605757"><ele>459.42857142857144</ele><time>2026-04-12T07:49:41Z</time></trkpt><trkpt lat="41.76653698807198" lon="12.692860236633841"><ele>459.85714285714283</ele><time>2026-04-12T07:49:43Z</time></trkpt><trkpt lat="41.76649910244926" lon="12.692934654001848"><ele>460.2857142857143</ele><time>2026-04-12T07:49:45Z</time></trkpt><trkpt lat="41.76645960668189" lon="12.693009959469283"><ele>460.7142857142857</ele><time>2026-04-12T07:49:47Z</time></trkpt><trkpt lat="41.7664129322588" lon="12.693074649167672"><ele>461.1428571428571</ele><time>2026-04-12T07:49:49Z</time></trkpt><trkpt lat="41.76636926717551" lon="12.693143763467477"><ele>461.57142857142856</ele><time>2026-04-12T07:49:51Z</time></trkpt><trkpt lat="41.76632063036967" lon="12.693208733738299"><ele>462.0</ele><time>2026-04-12T07:49:53Z</time></trkpt><trkpt lat="41.76626788377562" lon="12.693268095577409"><ele>462.0</ele><time>2026-04-12T07:49:55Z</time></trkpt><trkpt lat="41.76621641371796" lon="12.693324252444363"><ele>462.0</ele><time>2026-04-12T07:49:57Z</time></trkpt><trkpt lat="41.76616320106805" lon="12.693382177122029"><ele>462.0</ele><time>2026-04-12T07:49:59Z</time></trkpt><trkpt lat="41.766114482590716" lon="12.693443602733616"><ele>462.0</ele><time>2026-04-12T07:50:01Z</time></trkpt><trkpt lat="41.76606060491972" lon="12.693501718315758"><ele>462.0</ele><time>2026-04-12T07:50:03Z</time></trkpt><trkpt lat="41.766010601485874" lon="12.693562453526264"><ele>462.0</ele><time>2026-04-12T07:50:05Z</time></trkpt><trkpt lat="41.76596450662168" lon="12.693631773854198"><ele>462.0</ele><time>2026-04-12T07:50:07Z</time></trkpt><trkpt lat="41.7659225754593" lon="12.693704090380342"><ele>462.7142857142857</ele><time>2026-04-12T07:50:09Z</time></trkpt><trkpt lat="41.76588668014105" lon="12.693780139769267"><ele>463.42857142857144</ele><time>2026-04-12T07:50:11Z</time></trkpt><trkpt lat="41.765852214819475" lon="12.693858162164236"><ele>464.1428571428571</ele><time>2026-04-12T07:50:12.999Z</time></trkpt><trkpt lat="41.76581605569704" lon="12.69393181512761"><ele>464.85714285714283</ele><time>2026-04-12T07:50:14.999Z</time></trkpt><trkpt lat="41.76577793523011" lon="12.694006865784031"><ele>465.57142857142856</ele><time>2026-04-12T07:50:16.999Z</time></trkpt><trkpt lat="41.76573711249225" lon="12.694079294186523"><ele>466.2857142857142</ele><time>2026-04-12T07:50:18.999Z</time></trkpt><trkpt lat="41.76568961466789" lon="12.694147739954795"><ele>466.99999999999994</ele><time>2026-04-12T07:50:20.999Z</time></trkpt><trkpt lat="41.76564493701003" lon="12.69421886427445"><ele>466.99999999999994</ele><time>2026-04-12T07:50:22.999Z</time></trkpt><trkpt lat="41.76559960521263" lon="12.694290156896287"><ele>467.0</ele><time>2026-04-12T07:50:24.999Z</time></trkpt><trkpt lat="41.76555636315914" lon="12.694359874045482"><ele>466.99999999999994</ele><time>2026-04-12T07:50:26.999Z</time></trkpt><trkpt lat="41.765511346534296" lon="12.694431391772953"><ele>466.99999999999994</ele><time>2026-04-12T07:50:28.999Z</time></trkpt><trkpt lat="41.765465738878966" lon="12.69450076872075"><ele>467.0</ele><time>2026-04-12T07:50:30.999Z</time></trkpt><trkpt lat="41.76541944880614" lon="12.694566819686937"><ele>466.99999999999994</ele><time>2026-04-12T07:50:32.999Z</time></trkpt><trkpt lat="41.7653778150967" lon="12.694635472089644"><ele>466.99999999999994</ele><time>2026-04-12T07:50:34.999Z</time></trkpt><trkpt lat="41.765332211033034" lon="12.694705193862264"><ele>467.5714285714285</ele><time>2026-04-12T07:50:36.999Z</time></trkpt><trkpt lat="41.76528670979279" lon="12.694774434439424"><ele>468.1428571428571</ele><time>2026-04-12T07:50:38.999Z</time></trkpt><trkpt lat="41.76524090011286" lon="12.694841088537817"><ele>468.7142857142857</ele><time>2026-04-12T07:50:40.999Z</time></trkpt><trkpt lat="41.76519538022993" lon="12.694911440185194"><ele>469.2857142857143</ele><time>2026-04-12T07:50:43Z</time></trkpt><trkpt lat="41.76515124969268" lon="12.694980927663691"><ele>469.8571428571429</ele><time>2026-04-12T07:50:45Z</time></trkpt><trkpt lat="41.76510707970923" lon="12.695047877050435"><ele>470.4285714285715</ele><time>2026-04-12T07:50:47Z</time></trkpt><trkpt lat="41.765065540706736" lon="12.695114436232624"><ele>471.00000000000006</ele><time>2026-04-12T07:50:49Z</time></trkpt><trkpt lat="41.76502745675394" lon="12.69518176565303"><ele>472.1428571428572</ele><time>2026-04-12T07:50:51Z</time></trkpt><trkpt lat="41.76498958940561" lon="12.695254991637773"><ele>473.28571428571433</ele><time>2026-04-12T07:50:53Z</time></trkpt><trkpt lat="41.764953707273285" lon="12.695328536755566"><ele>474.42857142857144</ele><time>2026-04-12T07:50:55Z</time></trkpt><trkpt lat="41.76491949075357" lon="12.695400881144762"><ele>475.5714285714286</ele><time>2026-04-12T07:50:57Z</time></trkpt><trkpt lat="41.764892071482834" lon="12.695480905795845"><ele>476.7142857142858</ele><time>2026-04-12T07:50:59Z</time></trkpt><trkpt lat="41.764867590036616" lon="12.695561745117995"><ele>477.85714285714283</ele><time>2026-04-12T07:51:01Z</time></trkpt><trkpt lat="41.764842114881695" lon="12.695644853722502"><ele>479.0</ele><time>2026-04-12T07:51:03Z</time></trkpt><trkpt lat="41.76480048736971" lon="12.695753331933458"><ele>478.99999999999994</ele><time>2026-04-12T07:51:06Z</time></trkpt><trkpt lat="41.76474982687979" lon="12.695851473114619"><ele>479.0</ele><time>2026-04-12T07:51:09Z</time></trkpt><trkpt lat="41.76469836465767" lon="12.6959387904956"><ele>479.0</ele><time>2026-04-12T07:51:12Z</time></trkpt><trkpt lat="41.764632902764355" lon="12.696004536182421"><ele>479.0</ele><time>2026-04-12T07:51:15Z</time></trkpt><trkpt lat="41.76455899111022" lon="12.696064479425424"><ele>478.99999999999994</ele><time>2026-04-12T07:51:18Z</time></trkpt><trkpt lat="41.76447874628207" lon="12.69611828511693"><ele>479.0</ele><time>2026-04-12T07:51:21Z</time></trkpt><trkpt lat="41.764396748995395" lon="12.696155271993682"><ele>479.99999999999994</ele><time>2026-04-12T07:51:24Z</time></trkpt><trkpt lat="41.764308539681544" lon="12.696172386204172"><ele>481.0</ele><time>2026-04-12T07:51:27Z</time></trkpt><trkpt lat="41.76421968404221" lon="12.696182249093491"><ele>482.0</ele><time>2026-04-12T07:51:30Z</time></trkpt><trkpt lat="41.76412982652799" lon="12.696196342232614"><ele>483.0</ele><time>2026-04-12T07:51:33Z</time></trkpt><trkpt lat="41.76404104654699" lon="12.696209293333508"><ele>483.99999999999994</ele><time>2026-04-12T07:51:36Z</time></trkpt><trkpt lat="41.76395360130177" lon="12.696218220635096"><ele>485.0</ele><time>2026-04-12T07:51:39Z</time></trkpt><trkpt lat="41.763865276280086" lon="12.696233652019624"><ele>484.99999999999994</ele><time>2026-04-12T07:51:42Z</time></trkpt><trkpt lat="41.76378011225969" lon="12.696252928239225"><ele>485.0</ele><time>2026-04-12T07:51:45Z</time></trkpt><trkpt lat="41.76369494926225" lon="12.696264911418716"><ele>485.0</ele><time>2026-04-12T07:51:48Z</time></trkpt><trkpt lat="41.7636127042157" lon="12.696255782139602"><ele>485.0</ele><time>2026-04-12T07:51:51Z</time></trkpt><trkpt lat="41.76353564890505" lon="12.696232007386921"><ele>484.99999999999994</ele><time>2026-04-12T07:51:54Z</time></trkpt><trkpt lat="41.76345774528399" lon="12.69623755260025"><ele>485.0</ele><time>2026-04-12T07:51:57Z</time></trkpt><trkpt lat="41.76338105999937" lon="12.696256962971402"><ele>485.99999999999994</ele><time>2026-04-12T07:52:00Z</time></trkpt><trkpt lat="41.76330445966653" lon="12.69629487119956"><ele>487.0</ele><time>2026-04-12T07:52:03Z</time></trkpt><trkpt lat="41.76323471315806" lon="12.696337675964823"><ele>488.0</ele><time>2026-04-12T07:52:06Z</time></trkpt><trkpt lat="41.76315550304581" lon="12.69635080201836"><ele>489.0</ele><time>2026-04-12T07:52:09Z</time></trkpt><trkpt lat="41.76308581185164" lon="12.69631163391432"><ele>489.99999999999994</ele><time>2026-04-12T07:52:11.999Z</time></trkpt><trkpt lat="41.763027576930945" lon="12.696265604666273"><ele>491.0</ele><time>2026-04-12T07:52:14.999Z</time></trkpt><trkpt lat="41.76297247950436" lon="12.696204389640924"><ele>490.99999999999994</ele><time>2026-04-12T07:52:17.999Z</time></trkpt><trkpt lat="41.76292556721142" lon="12.696123406919105"><ele>491.0</ele><time>2026-04-12T07:52:20.999Z</time></trkpt><trkpt lat="41.762870533638285" lon="12.696047856398998"><ele>491.0</ele><time>2026-04-12T07:52:23.999Z</time></trkpt><trkpt lat="41.76281455210395" lon="12.695973966126202"><ele>491.0</ele><time>2026-04-12T07:52:26.999Z</time></trkpt><trkpt lat="41.7627624237256" lon="12.695895718141815"><ele>490.99999999999994</ele><time>2026-04-12T07:52:29.999Z</time></trkpt><trkpt lat="41.762707115723146" lon="12.6958192006821"><ele>491.0</ele><time>2026-04-12T07:52:32.999Z</time></trkpt><trkpt lat="41.76264976569032" lon="12.69574738820941"><ele>491.2857142857143</ele><time>2026-04-12T07:52:35.999Z</time></trkpt><trkpt lat="41.76256829453997" lon="12.695705221828403"><ele>491.57142857142856</ele><time>2026-04-12T07:52:38.999Z</time></trkpt><trkpt lat="41.76250209088876" lon="12.695740104961938"><ele>491.85714285714283</ele><time>2026-04-12T07:52:41.999Z</time></trkpt><trkpt lat="41.76245468842867" lon="12.695809210089038"><ele>492.1428571428571</ele><time>2026-04-12T07:52:44.999Z</time></trkpt><trkpt lat="41.76239864483067" lon="12.695880119362883"><ele>492.42857142857144</ele><time>2026-04-12T07:52:47.999Z</time></trkpt><trkpt lat="41.76233499983294" lon="12.6959215418076"><ele>492.71428571428567</ele><time>2026-04-12T07:52:51Z</time></trkpt><trkpt lat="41.76226567904735" lon="12.69590022690674"><ele>493.0</ele><time>2026-04-12T07:52:55Z</time></trkpt><trkpt lat="41.762230239287355" lon="12.695975868974454"><ele>493.00000000000006</ele><time>2026-04-12T07:53:00Z</time></trkpt><trkpt lat="41.762183420045794" lon="12.696060759258721"><ele>493.0</ele><time>2026-04-12T07:53:03Z</time></trkpt><trkpt lat="41.7621316530021" lon="12.696146197478155"><ele>493.0</ele><time>2026-04-12T07:53:06Z</time></trkpt><trkpt lat="41.76208444653922" lon="12.69624282880912"><ele>493.0</ele><time>2026-04-12T07:53:09Z</time></trkpt><trkpt lat="41.762042001082555" lon="12.696315833533177"><ele>493.00000000000006</ele><time>2026-04-12T07:53:12Z</time></trkpt><trkpt lat="41.76199465589469" lon="12.69639556994741"><ele>493.0</ele><time>2026-04-12T07:53:15Z</time></trkpt><trkpt lat="41.76195366004279" lon="12.696481447641752"><ele>493.50000000000006</ele><time>2026-04-12T07:53:18Z</time></trkpt><trkpt lat="41.76191096662941" lon="12.69655633519974"><ele>494.0</ele><time>2026-04-12T07:53:21Z</time></trkpt><trkpt lat="41.7618416185593" lon="12.696524199816231"><ele>494.5</ele><time>2026-04-12T07:53:24Z</time></trkpt><trkpt lat="41.76178195320677" lon="12.696450221609654"><ele>495.0</ele><time>2026-04-12T07:53:27Z</time></trkpt><trkpt lat="41.76171804079174" lon="12.696384388188205"><ele>495.50000000000006</ele><time>2026-04-12T07:53:30Z</time></trkpt><trkpt lat="41.76165024646639" lon="12.696319980417652"><ele>496.0</ele><time>2026-04-12T07:53:33Z</time></trkpt><trkpt lat="41.76158493951663" lon="12.696263785458635"><ele>496.42857142857144</ele><time>2026-04-12T07:53:36Z</time></trkpt><trkpt lat="41.7615209261324" lon="12.696199253969098"><ele>496.8571428571429</ele><time>2026-04-12T07:53:39Z</time></trkpt><trkpt lat="41.76145594685028" lon="12.696142719473242"><ele>497.28571428571433</ele><time>2026-04-12T07:53:42Z</time></trkpt><trkpt lat="41.761400489700435" lon="12.696077723798918"><ele>497.7142857142858</ele><time>2026-04-12T07:53:45Z</time></trkpt><trkpt lat="41.76132975600247" lon="12.696070119768056"><ele>498.14285714285717</ele><time>2026-04-12T07:53:48Z</time></trkpt><trkpt lat="41.76128729486666" lon="12.696158148297044"><ele>498.57142857142867</ele><time>2026-04-12T07:53:51Z</time></trkpt><trkpt lat="41.76124856943216" lon="12.696232146687414"><ele>499.00000000000006</ele><time>2026-04-12T07:53:54Z</time></trkpt><trkpt lat="41.76119928464295" lon="12.69632654244784"><ele>499.28571428571433</ele><time>2026-04-12T07:53:58Z</time></trkpt><trkpt lat="41.761161108359715" lon="12.696405503999294"><ele>499.57142857142856</ele><time>2026-04-12T07:54:01Z</time></trkpt><trkpt lat="41.76111681789069" lon="12.69648133837071"><ele>499.8571428571429</ele><time>2026-04-12T07:54:04Z</time></trkpt><trkpt lat="41.76107764121955" lon="12.69655218970473"><ele>500.14285714285717</ele><time>2026-04-12T07:54:06.999Z</time></trkpt><trkpt lat="41.761019552163944" lon="12.696618872674222"><ele>500.42857142857144</ele><time>2026-04-12T07:54:10.999Z</time></trkpt><trkpt lat="41.760949197810476" lon="12.69655106931904"><ele>500.7142857142857</ele><time>2026-04-12T07:54:13.999Z</time></trkpt><trkpt lat="41.76089059631626" lon="12.696486985447233"><ele>501.0</ele><time>2026-04-12T07:54:16.999Z</time></trkpt><trkpt lat="41.76082327480634" lon="12.696420654494284"><ele>501.1666666666667</ele><time>2026-04-12T07:54:19.999Z</time></trkpt><trkpt lat="41.76075734533586" lon="12.696364051971196"><ele>501.33333333333337</ele><time>2026-04-12T07:54:22.999Z</time></trkpt><trkpt lat="41.760695382945094" lon="12.696296177920324"><ele>501.5</ele><time>2026-04-12T07:54:25.999Z</time></trkpt><trkpt lat="41.76063780218917" lon="12.696219711711828"><ele>501.6666666666667</ele><time>2026-04-12T07:54:28.999Z</time></trkpt><trkpt lat="41.76057254128154" lon="12.696148694009127"><ele>501.83333333333337</ele><time>2026-04-12T07:54:31.999Z</time></trkpt><trkpt lat="41.760506407422355" lon="12.6960854737464"><ele>502.0</ele><time>2026-04-12T07:54:34.999Z</time></trkpt><trkpt lat="41.760441074120905" lon="12.696034250197151"><ele>502.00000000000006</ele><time>2026-04-12T07:54:37.999Z</time></trkpt><trkpt lat="41.76036564723592" lon="12.6959832197678"><ele>502.0</ele><time>2026-04-12T07:54:41.999Z</time></trkpt><trkpt lat="41.76029989807902" lon="12.696031739891955"><ele>502.0</ele><time>2026-04-12T07:54:44.999Z</time></trkpt><trkpt lat="41.7602513472044" lon="12.696115188895828"><ele>502.0</ele><time>2026-04-12T07:54:48.999Z</time></trkpt><trkpt lat="41.7602094170999" lon="12.696200337604553"><ele>502.00000000000006</ele><time>2026-04-12T07:54:51.999Z</time></trkpt><trkpt lat="41.760178536388075" lon="12.696296132658643"><ele>502.0</ele><time>2026-04-12T07:54:55Z</time></trkpt><trkpt lat="41.76015763325168" lon="12.696396912624593"><ele>504.1666666666667</ele><time>2026-04-12T07:54:58Z</time></trkpt><trkpt lat="41.760145579859376" lon="12.696498001569273"><ele>506.33333333333337</ele><time>2026-04-12T07:55:01Z</time></trkpt><trkpt lat="41.760141005172734" lon="12.696606099720112"><ele>508.5</ele><time>2026-04-12T07:55:04Z</time></trkpt><trkpt lat="41.76012755764421" lon="12.69670946661039"><ele>510.66666666666663</ele><time>2026-04-12T07:55:07Z</time></trkpt><trkpt lat="41.76011815670886" lon="12.696815305368636"><ele>512.8333333333333</ele><time>2026-04-12T07:55:10Z</time></trkpt><trkpt lat="41.76011166761328" lon="12.696922343263614"><ele>515.0</ele><time>2026-04-12T07:55:13Z</time></trkpt><trkpt lat="41.76010178442357" lon="12.697037123780122"><ele>515.8333333333333</ele><time>2026-04-12T07:55:16Z</time></trkpt><trkpt lat="41.76008498166975" lon="12.697149291097755"><ele>516.6666666666666</ele><time>2026-04-12T07:55:19Z</time></trkpt><trkpt lat="41.760053608406295" lon="12.697245589627016"><ele>517.5</ele><time>2026-04-12T07:55:22Z</time></trkpt><trkpt lat="41.760003091115564" lon="12.697332604372738"><ele>518.3333333333334</ele><time>2026-04-12T07:55:25Z</time></trkpt><trkpt lat="41.75996039340629" lon="12.69742092706867"><ele>519.1666666666667</ele><time>2026-04-12T07:55:28Z</time></trkpt><trkpt lat="41.75990818505681" lon="12.697510485369675"><ele>520.0</ele><time>2026-04-12T07:55:31Z</time></trkpt><trkpt lat="41.7598633652942" lon="12.697604860021208"><ele>520.0</ele><time>2026-04-12T07:55:34Z</time></trkpt><trkpt lat="41.759817591680765" lon="12.69769529753742"><ele>520.0</ele><time>2026-04-12T07:55:37Z</time></trkpt><trkpt lat="41.75977396939925" lon="12.697790983596258"><ele>520.0</ele><time>2026-04-12T07:55:40Z</time></trkpt><trkpt lat="41.75972657839502" lon="12.697866948561664"><ele>520.0</ele><time>2026-04-12T07:55:44Z</time></trkpt><trkpt lat="41.75964121837941" lon="12.697836293525935"><ele>520.0</ele><time>2026-04-12T07:55:48Z</time></trkpt><trkpt lat="41.75957877297757" lon="12.697796403617707"><ele>520.0</ele><time>2026-04-12T07:55:51Z</time></trkpt><trkpt lat="41.75948499215224" lon="12.697758707731222"><ele>520.0</ele><time>2026-04-12T07:55:54Z</time></trkpt><trkpt lat="41.75942149052015" lon="12.697715182364291"><ele>520.0</ele><time>2026-04-12T07:55:55.999Z</time></trkpt><trkpt lat="41.759360676371074" lon="12.697687569286806"><ele>520.0</ele><time>2026-04-12T07:55:57.999Z</time></trkpt><trkpt lat="41.75929892634125" lon="12.697661279570667"><ele>520.0</ele><time>2026-04-12T07:56:00.999Z</time></trkpt><trkpt lat="41.7592687946838" lon="12.697769663326138"><ele>520.0</ele><time>2026-04-12T07:56:03.999Z</time></trkpt><trkpt lat="41.7592402882894" lon="12.697880382711705"><ele>520.0</ele><time>2026-04-12T07:56:06.999Z</time></trkpt><trkpt lat="41.759212069339384" lon="12.697978410651723"><ele>522.0</ele><time>2026-04-12T07:56:09.999Z</time></trkpt><trkpt lat="41.75919143275165" lon="12.698082771198532"><ele>524.0</ele><time>2026-04-12T07:56:12.999Z</time></trkpt><trkpt lat="41.75916879144885" lon="12.698189909817895"><ele>526.0</ele><time>2026-04-12T07:56:15.999Z</time></trkpt><trkpt lat="41.759150718935295" lon="12.698302988183725"><ele>528.0</ele><time>2026-04-12T07:56:18.999Z</time></trkpt><trkpt lat="41.759126927651614" lon="12.698402945677392"><ele>530.0</ele><time>2026-04-12T07:56:21.999Z</time></trkpt><trkpt lat="41.7590958994522" lon="12.698500766145218"><ele>532.0</ele><time>2026-04-12T07:56:24.999Z</time></trkpt><trkpt lat="41.75906454622115" lon="12.698596682735497"><ele>533.0</ele><time>2026-04-12T07:56:27.999Z</time></trkpt><trkpt lat="41.7590328689522" lon="12.698695336590964"><ele>534.0</ele><time>2026-04-12T07:56:30.999Z</time></trkpt><trkpt lat="41.758991985990065" lon="12.698784917814693"><ele>535.0</ele><time>2026-04-12T07:56:33.999Z</time></trkpt><trkpt lat="41.7589480869166" lon="12.69888636295357"><ele>536.0</ele><time>2026-04-12T07:56:36.999Z</time></trkpt><trkpt lat="41.758909713505375" lon="12.69899041441845"><ele>537.0</ele><time>2026-04-12T07:56:39.999Z</time></trkpt><trkpt lat="41.75887208714103" lon="12.69909274095189"><ele>538.0</ele><time>2026-04-12T07:56:42.999Z</time></trkpt><trkpt lat="41.75883369788012" lon="12.699197022784606"><ele>538.0</ele><time>2026-04-12T07:56:45.999Z</time></trkpt><trkpt lat="41.758795414179524" lon="12.699293710275152"><ele>538.0</ele><time>2026-04-12T07:56:48.999Z</time></trkpt><trkpt lat="41.75875305813443" lon="12.699390873531886"><ele>538.0</ele><time>2026-04-12T07:56:51.999Z</time></trkpt><trkpt lat="41.75872078204733" lon="12.699484823416878"><ele>538.0</ele><time>2026-04-12T07:56:54.999Z</time></trkpt><trkpt lat="41.758683526325186" lon="12.699584209458978"><ele>538.0</ele><time>2026-04-12T07:56:57.999Z</time></trkpt><trkpt lat="41.75864686164254" lon="12.699680477275422"><ele>538.0</ele><time>2026-04-12T07:57:01Z</time></trkpt><trkpt lat="41.758603980181995" lon="12.699776902694028"><ele>539.0</ele><time>2026-04-12T07:57:04Z</time></trkpt><trkpt lat="41.75856481142868" lon="12.69987578018337"><ele>540.0</ele><time>2026-04-12T07:57:07Z</time></trkpt><trkpt lat="41.75852624613142" lon="12.6999664264511"><ele>541.0</ele><time>2026-04-12T07:57:10Z</time></trkpt><trkpt lat="41.7584866356943" lon="12.700062823081511"><ele>542.0</ele><time>2026-04-12T07:57:13Z</time></trkpt><trkpt lat="41.75844985915781" lon="12.70015696666235"><ele>543.0</ele><time>2026-04-12T07:57:16Z</time></trkpt><trkpt lat="41.75841153104058" lon="12.700254242908649"><ele>544.0</ele><time>2026-04-12T07:57:19Z</time></trkpt><trkpt lat="41.75837543851408" lon="12.700348349467678"><ele>545.6666666666667</ele><time>2026-04-12T07:57:22Z</time></trkpt><trkpt lat="41.75834098652635" lon="12.700444199192189"><ele>547.3333333333334</ele><time>2026-04-12T07:57:25Z</time></trkpt><trkpt lat="41.758304014904276" lon="12.700534096610156"><ele>549.0</ele><time>2026-04-12T07:57:28Z</time></trkpt><trkpt lat="41.75826615387997" lon="12.700623004295858"><ele>550.6666666666666</ele><time>2026-04-12T07:57:31Z</time></trkpt><trkpt lat="41.75822480439956" lon="12.700706554151736"><ele>552.3333333333333</ele><time>2026-04-12T07:57:34Z</time></trkpt><trkpt lat="41.7581850216164" lon="12.700789407612923"><ele>554.0</ele><time>2026-04-12T07:57:37Z</time></trkpt><trkpt lat="41.75813783812169" lon="12.700872029304216"><ele>554.0</ele><time>2026-04-12T07:57:40Z</time></trkpt><trkpt lat="41.7580857965652" lon="12.700957649331004"><ele>554.0</ele><time>2026-04-12T07:57:43Z</time></trkpt><trkpt lat="41.7580353952791" lon="12.701039396505475"><ele>554.0</ele><time>2026-04-12T07:57:46Z</time></trkpt><trkpt lat="41.75797955916621" lon="12.70111967928546"><ele>554.0</ele><time>2026-04-12T07:57:49Z</time></trkpt><trkpt lat="41.75792437766744" lon="12.701194681325886"><ele>554.0</ele><time>2026-04-12T07:57:52Z</time></trkpt><trkpt lat="41.75786359553649" lon="12.701268187384933"><ele>554.0</ele><time>2026-04-12T07:57:55Z</time></trkpt><trkpt lat="41.75781149034453" lon="12.70134828085673"><ele>555.8571428571429</ele><time>2026-04-12T07:57:58Z</time></trkpt><trkpt lat="41.757754697640394" lon="12.70141676448583"><ele>557.7142857142857</ele><time>2026-04-12T07:58:01Z</time></trkpt><trkpt lat="41.75770493611783" lon="12.701484471353975"><ele>559.5714285714286</ele><time>2026-04-12T07:58:03.999Z</time></trkpt><trkpt lat="41.757659169195776" lon="12.701548424005571"><ele>561.4285714285714</ele><time>2026-04-12T07:58:06.999Z</time></trkpt><trkpt lat="41.75760257172632" lon="12.701587269003285"><ele>563.2857142857142</ele><time>2026-04-12T07:58:10.999Z</time></trkpt><trkpt lat="41.75756203087994" lon="12.701505299330336"><ele>565.1428571428571</ele><time>2026-04-12T07:58:13.999Z</time></trkpt><trkpt lat="41.757528717619344" lon="12.701392310507613"><ele>567.0</ele><time>2026-04-12T07:58:16.999Z</time></trkpt><trkpt lat="41.75750445973429" lon="12.701306678514065"><ele>566.3333333333334</ele><time>2026-04-12T07:58:18.999Z</time></trkpt><trkpt lat="41.7574840837048" lon="12.701216058296742"><ele>565.6666666666666</ele><time>2026-04-12T07:58:20.999Z</time></trkpt><trkpt lat="41.75746638249673" lon="12.701112951357626"><ele>565.0</ele><time>2026-04-12T07:58:22.999Z</time></trkpt><trkpt lat="41.757431550819675" lon="12.700993998833075"><ele>564.3333333333333</ele><time>2026-04-12T07:58:24.999Z</time></trkpt><trkpt lat="41.75739820994293" lon="12.700893192948781"><ele>563.6666666666666</ele><time>2026-04-12T07:58:26.999Z</time></trkpt><trkpt lat="41.75735120269773" lon="12.700789615813257"><ele>563.0</ele><time>2026-04-12T07:58:28.999Z</time></trkpt><trkpt lat="41.75729361912759" lon="12.700692248743728"><ele>563.0</ele><time>2026-04-12T07:58:30.999Z</time></trkpt><trkpt lat="41.75721184693419" lon="12.700587762319389"><ele>563.0</ele><time>2026-04-12T07:58:32.999Z</time></trkpt><trkpt lat="41.757121816896266" lon="12.700496598644875"><ele>563.0</ele><time>2026-04-12T07:58:34.999Z</time></trkpt><trkpt lat="41.75702977470491" lon="12.700410793652415"><ele>563.0</ele><time>2026-04-12T07:58:36.999Z</time></trkpt><trkpt lat="41.756951460254825" lon="12.700314551502471"><ele>563.0</ele><time>2026-04-12T07:58:38.999Z</time></trkpt><trkpt lat="41.756898900007066" lon="12.700196300663654"><ele>564.8333333333333</ele><time>2026-04-12T07:58:40.999Z</time></trkpt><trkpt lat="41.75686650495593" lon="12.70007450418766"><ele>566.6666666666666</ele><time>2026-04-12T07:58:42.999Z</time></trkpt><trkpt lat="41.75685260598531" lon="12.699971102171688"><ele>568.5</ele><time>2026-04-12T07:58:44.999Z</time></trkpt><trkpt lat="41.75685101482426" lon="12.699867693118273"><ele>570.3333333333334</ele><time>2026-04-12T07:58:47.999Z</time></trkpt><trkpt lat="41.75683664573762" lon="12.6997714937507"><ele>572.1666666666667</ele><time>2026-04-12T07:58:51.999Z</time></trkpt><trkpt lat="41.75680482771955" lon="12.699667544226887"><ele>574.0</ele><time>2026-04-12T07:58:55.999Z</time></trkpt><trkpt lat="41.756774446649885" lon="12.699587625570285"><ele>574.0</ele><time>2026-04-12T07:58:58.999Z</time></trkpt><trkpt lat="41.756730669642856" lon="12.69951901054686"><ele>574.0</ele><time>2026-04-12T07:59:01.999Z</time></trkpt><trkpt lat="41.75666417599961" lon="12.699451351489115"><ele>574.0</ele><time>2026-04-12T07:59:04.999Z</time></trkpt><trkpt lat="41.756586470976465" lon="12.69939997026049"><ele>574.0</ele><time>2026-04-12T07:59:08Z</time></trkpt><trkpt lat="41.75652482441165" lon="12.699366801439139"><ele>574.0</ele><time>2026-04-12T07:59:10Z</time></trkpt><trkpt lat="41.75645708729904" lon="12.699321789071327"><ele>574.0</ele><time>2026-04-12T07:59:12Z</time></trkpt><trkpt lat="41.75638166728045" lon="12.699274094759229"><ele>573.6666666666667</ele><time>2026-04-12T07:59:14Z</time></trkpt><trkpt lat="41.756302253723675" lon="12.699228351755597"><ele>573.3333333333334</ele><time>2026-04-12T07:59:16Z</time></trkpt><trkpt lat="41.75622024816865" lon="12.699181126808062"><ele>573.0</ele><time>2026-04-12T07:59:18Z</time></trkpt><trkpt lat="41.75614223256043" lon="12.699131621192869"><ele>572.6666666666666</ele><time>2026-04-12T07:59:20Z</time></trkpt><trkpt lat="41.75607600768033" lon="12.699075115033336"><ele>572.3333333333333</ele><time>2026-04-12T07:59:22Z</time></trkpt><trkpt lat="41.756025971596124" lon="12.698989320956578"><ele>572.0</ele><time>2026-04-12T07:59:24Z</time></trkpt><trkpt lat="41.755988151466426" lon="12.698902863538509"><ele>571.9999999999999</ele><time>2026-04-12T07:59:26Z</time></trkpt><trkpt lat="41.755947608739895" lon="12.698820903002193"><ele>572.0</ele><time>2026-04-12T07:59:28Z</time></trkpt><trkpt lat="41.75591482875085" lon="12.698734674078816"><ele>572.0</ele><time>2026-04-12T07:59:30Z</time></trkpt><trkpt lat="41.75588051654196" lon="12.698656924476534"><ele>572.0</ele><time>2026-04-12T07:59:32Z</time></trkpt><trkpt lat="41.75585130710539" lon="12.698574115764195"><ele>572.0</ele><time>2026-04-12T07:59:34Z</time></trkpt><trkpt lat="41.75579832198632" lon="12.69849670242116"><ele>571.9999999999999</ele><time>2026-04-12T07:59:36Z</time></trkpt><trkpt lat="41.75573408177828" lon="12.698427679816286"><ele>572.0</ele><time>2026-04-12T07:59:38Z</time></trkpt><trkpt lat="41.75565264523255" lon="12.698352452709596"><ele>569.8000000000001</ele><time>2026-04-12T07:59:40Z</time></trkpt><trkpt lat="41.755563773748754" lon="12.698291316850016"><ele>567.6</ele><time>2026-04-12T07:59:42Z</time></trkpt><trkpt lat="41.75547475765009" lon="12.698221629496564"><ele>565.4000000000001</ele><time>2026-04-12T07:59:44Z</time></trkpt><trkpt lat="41.75539355602412" lon="12.698151265066898"><ele>563.2</ele><time>2026-04-12T07:59:46Z</time></trkpt><trkpt lat="41.75533237348884" lon="12.698074932495665"><ele>561.0</ele><time>2026-04-12T07:59:48Z</time></trkpt><trkpt lat="41.75528134704347" lon="12.69799927066823"><ele>561.0</ele><time>2026-04-12T07:59:50Z</time></trkpt><trkpt lat="41.75523629423867" lon="12.697926247450544"><ele>561.0</ele><time>2026-04-12T07:59:52Z</time></trkpt><trkpt lat="41.75519957647373" lon="12.697852630691461"><ele>561.0</ele><time>2026-04-12T07:59:54Z</time></trkpt><trkpt lat="41.755156404977534" lon="12.69778061403352"><ele>561.0</ele><time>2026-04-12T07:59:56Z</time></trkpt><trkpt lat="41.75510852033561" lon="12.697719085972865"><ele>561.0</ele><time>2026-04-12T07:59:58Z</time></trkpt><trkpt lat="41.755053067615414" lon="12.697624951206338"><ele>561.0</ele><time>2026-04-12T08:00:01Z</time></trkpt><trkpt lat="41.7550135170133" lon="12.697552637807203"><ele>561.0</ele><time>2026-04-12T08:00:03Z</time></trkpt><trkpt lat="41.75496666200491" lon="12.697479965097841"><ele>561.5</ele><time>2026-04-12T08:00:05Z</time></trkpt><trkpt lat="41.75492360200271" lon="12.697404237643362"><ele>562.0</ele><time>2026-04-12T08:00:07Z</time></trkpt><trkpt lat="41.75487588764062" lon="12.697342245240264"><ele>562.5</ele><time>2026-04-12T08:00:09Z</time></trkpt><trkpt lat="41.75482710171765" lon="12.6972830184529"><ele>563.0</ele><time>2026-04-12T08:00:11Z</time></trkpt><trkpt lat="41.75475307992715" lon="12.697219058283492"><ele>563.5</ele><time>2026-04-12T08:00:14Z</time></trkpt><trkpt lat="41.75467816563224" lon="12.697164629394472"><ele>564.0</ele><time>2026-04-12T08:00:17Z</time></trkpt><trkpt lat="41.75458966464358" lon="12.697114254114554"><ele>564.0</ele><time>2026-04-12T08:00:20Z</time></trkpt><trkpt lat="41.75451242843234" lon="12.697075592238958"><ele>564.0</ele><time>2026-04-12T08:00:23Z</time></trkpt><trkpt lat="41.754428374745956" lon="12.69703710595241"><ele>564.0</ele><time>2026-04-12T08:00:25.999Z</time></trkpt><trkpt lat="41.754349128866906" lon="12.697006537260627"><ele>564.0</ele><time>2026-04-12T08:00:28.999Z</time></trkpt><trkpt lat="41.75426659625935" lon="12.696970391454688"><ele>564.0</ele><time>2026-04-12T08:00:31.999Z</time></trkpt><trkpt lat="41.754190075896986" lon="12.69695403435575"><ele>564.0</ele><time>2026-04-12T08:00:34.999Z</time></trkpt><trkpt lat="41.75410781615061" lon="12.696942662215564"><ele>563.7142857142858</ele><time>2026-04-12T08:00:37.999Z</time></trkpt><trkpt lat="41.754027020364916" lon="12.696944914558557"><ele>563.4285714285714</ele><time>2026-04-12T08:00:40.999Z</time></trkpt><trkpt lat="41.753958806179035" lon="12.69695154799091"><ele>563.1428571428571</ele><time>2026-04-12T08:00:43.999Z</time></trkpt><trkpt lat="41.75389193482419" lon="12.696956798153685"><ele>562.8571428571429</ele><time>2026-04-12T08:00:46.999Z</time></trkpt><trkpt lat="41.753822139982375" lon="12.696932634984151"><ele>562.5714285714286</ele><time>2026-04-12T08:00:49.999Z</time></trkpt><trkpt lat="41.753760098310615" lon="12.696900317617317"><ele>562.2857142857143</ele><time>2026-04-12T08:00:52.999Z</time></trkpt><trkpt lat="41.75368717494947" lon="12.696884933522533"><ele>562.0</ele><time>2026-04-12T08:00:55.999Z</time></trkpt><trkpt lat="41.75362070551103" lon="12.696861634210618"><ele>562.0</ele><time>2026-04-12T08:00:58.999Z</time></trkpt><trkpt lat="41.753557747765534" lon="12.696816324941503"><ele>562.0</ele><time>2026-04-12T08:01:01.999Z</time></trkpt><trkpt lat="41.75347926631321" lon="12.696784574395027"><ele>562.0</ele><time>2026-04-12T08:01:04.999Z</time></trkpt><trkpt lat="41.753403312681066" lon="12.696744597478117"><ele>562.0</ele><time>2026-04-12T08:01:07.999Z</time></trkpt><trkpt lat="41.75332709207528" lon="12.696709831775134"><ele>562.0</ele><time>2026-04-12T08:01:10.999Z</time></trkpt><trkpt lat="41.75325124990132" lon="12.696677057368065"><ele>562.0</ele><time>2026-04-12T08:01:14Z</time></trkpt><trkpt lat="41.753182817295226" lon="12.696639000981913"><ele>563.8000000000001</ele><time>2026-04-12T08:01:17Z</time></trkpt><trkpt lat="41.75311477430368" lon="12.696572555005014"><ele>565.6</ele><time>2026-04-12T08:01:20Z</time></trkpt><trkpt lat="41.75304095401914" lon="12.696504082752357"><ele>567.4000000000001</ele><time>2026-04-12T08:01:23Z</time></trkpt><trkpt lat="41.752965664461016" lon="12.696424189510688"><ele>569.2</ele><time>2026-04-12T08:01:26Z</time></trkpt><trkpt lat="41.7528975488473" lon="12.696338854095954"><ele>571.0</ele><time>2026-04-12T08:01:29Z</time></trkpt><trkpt lat="41.75282791394542" lon="12.696265672459397"><ele>571.0</ele><time>2026-04-12T08:01:32Z</time></trkpt><trkpt lat="41.752752144294135" lon="12.696215153865865"><ele>571.0</ele><time>2026-04-12T08:01:35Z</time></trkpt><trkpt lat="41.75268179380059" lon="12.696162075003105"><ele>571.0</ele><time>2026-04-12T08:01:38Z</time></trkpt><trkpt lat="41.752603222499424" lon="12.696117653552411"><ele>571.0</ele><time>2026-04-12T08:01:41Z</time></trkpt><trkpt lat="41.75252449641379" lon="12.69606475649863"><ele>571.0</ele><time>2026-04-12T08:01:44Z</time></trkpt><trkpt lat="41.75245016835016" lon="12.696010863280392"><ele>571.0</ele><time>2026-04-12T08:01:47Z</time></trkpt><trkpt lat="41.75238265305442" lon="12.695959478376661"><ele>570.5714285714286</ele><time>2026-04-12T08:01:50Z</time></trkpt><trkpt lat="41.75230801666572" lon="12.695907820314275"><ele>570.1428571428571</ele><time>2026-04-12T08:01:53Z</time></trkpt><trkpt lat="41.752245756469" lon="12.695864634432336"><ele>569.7142857142857</ele><time>2026-04-12T08:01:56Z</time></trkpt><trkpt lat="41.752183183111356" lon="12.695848627262661"><ele>569.2857142857142</ele><time>2026-04-12T08:03:09.999Z</time></trkpt><trkpt lat="41.75212637867344" lon="12.695889722213437"><ele>568.8571428571428</ele><time>2026-04-12T08:03:36Z</time></trkpt><trkpt lat="41.75206559934531" lon="12.695934896754823"><ele>568.4285714285714</ele><time>2026-04-12T08:03:40Z</time></trkpt><trkpt lat="41.75200650827526" lon="12.695990736734432"><ele>568.0</ele><time>2026-04-12T08:03:44Z</time></trkpt><trkpt lat="41.75195341414333" lon="12.696058203840398"><ele>568.0</ele><time>2026-04-12T08:03:49Z</time></trkpt><trkpt lat="41.751874742500775" lon="12.696083850401935"><ele>568.0</ele><time>2026-04-12T08:03:53Z</time></trkpt><trkpt lat="41.7518033334034" lon="12.696050426114658"><ele>568.0</ele><time>2026-04-12T08:03:56Z</time></trkpt><trkpt lat="41.7517422452697" lon="12.696017033941498"><ele>568.0</ele><time>2026-04-12T08:03:59Z</time></trkpt><trkpt lat="41.751682026030224" lon="12.695971572191224"><ele>568.0</ele><time>2026-04-12T08:04:02Z</time></trkpt><trkpt lat="41.751622157323425" lon="12.695919637394903"><ele>568.0</ele><time>2026-04-12T08:04:05Z</time></trkpt><trkpt lat="41.75156010998447" lon="12.695858621638818"><ele>568.0</ele><time>2026-04-12T08:04:09Z</time></trkpt><trkpt lat="41.75151927892194" lon="12.695787641217272"><ele>567.5714285714286</ele><time>2026-04-12T08:04:12Z</time></trkpt><trkpt lat="41.751492211470726" lon="12.695699584786727"><ele>567.1428571428571</ele><time>2026-04-12T08:04:16Z</time></trkpt><trkpt lat="41.751455755895435" lon="12.69562445180089"><ele>566.7142857142857</ele><time>2026-04-12T08:04:19Z</time></trkpt><trkpt lat="41.7514119157956" lon="12.695530053354693"><ele>566.2857142857142</ele><time>2026-04-12T08:04:23Z</time></trkpt><trkpt lat="41.751363592419104" lon="12.695454347093959"><ele>565.8571428571429</ele><time>2026-04-12T08:04:26Z</time></trkpt><trkpt lat="41.751314750264115" lon="12.695383267059041"><ele>565.4285714285713</ele><time>2026-04-12T08:04:29Z</time></trkpt><trkpt lat="41.75126648128702" lon="12.695316485110931"><ele>565.0</ele><time>2026-04-12T08:04:32Z</time></trkpt><trkpt lat="41.75123200059592" lon="12.69524328431912"><ele>565.0</ele><time>2026-04-12T08:04:35Z</time></trkpt><trkpt lat="41.75121027421725" lon="12.695151809870543"><ele>565.0</ele><time>2026-04-12T08:04:38Z</time></trkpt><trkpt lat="41.75114148579466" lon="12.695107462440594"><ele>565.0</ele><time>2026-04-12T08:04:41Z</time></trkpt><trkpt lat="41.75108054597849" lon="12.695078631332397"><ele>565.0</ele><time>2026-04-12T08:04:44Z</time></trkpt><trkpt lat="41.750999560557304" lon="12.69505716158935"><ele>565.0</ele><time>2026-04-12T08:04:48Z</time></trkpt><trkpt lat="41.75091541529943" lon="12.695037138586866"><ele>565.0</ele><time>2026-04-12T08:04:52Z</time></trkpt><trkpt lat="41.75084334234176" lon="12.695019026481559"><ele>567.5714285714286</ele><time>2026-04-12T08:04:55Z</time></trkpt><trkpt lat="41.75076656956693" lon="12.69500943798684"><ele>570.1428571428571</ele><time>2026-04-12T08:04:58Z</time></trkpt><trkpt lat="41.750674527489025" lon="12.69500611565312"><ele>572.7142857142858</ele><time>2026-04-12T08:05:02Z</time></trkpt><trkpt lat="41.75060524716968" lon="12.695013056824616"><ele>575.2857142857142</ele><time>2026-04-12T08:05:05Z</time></trkpt><trkpt lat="41.75053969870005" lon="12.695017105310978"><ele>577.8571428571429</ele><time>2026-04-12T08:05:07.999Z</time></trkpt><trkpt lat="41.750467457381134" lon="12.695034540026334"><ele>580.4285714285714</ele><time>2026-04-12T08:05:11.999Z</time></trkpt><trkpt lat="41.750399553463545" lon="12.695045286838628"><ele>583.0</ele><time>2026-04-12T08:05:14.999Z</time></trkpt><trkpt lat="41.75032305336668" lon="12.695072711136056"><ele>583.0</ele><time>2026-04-12T08:05:18.999Z</time></trkpt><trkpt lat="41.75024798484093" lon="12.695109880748344"><ele>583.0</ele><time>2026-04-12T08:05:22.999Z</time></trkpt><trkpt lat="41.7501851738347" lon="12.695139168203035"><ele>583.0</ele><time>2026-04-12T08:05:26Z</time></trkpt><trkpt lat="41.75011998265891" lon="12.695161060647743"><ele>583.0</ele><time>2026-04-12T08:05:29Z</time></trkpt><trkpt lat="41.75004033171193" lon="12.69517874554537"><ele>583.0</ele><time>2026-04-12T08:05:33Z</time></trkpt><trkpt lat="41.749963773305666" lon="12.695180660469237"><ele>583.0</ele><time>2026-04-12T08:05:36Z</time></trkpt><trkpt lat="41.74987470540571" lon="12.69517781184425"><ele>583.8333333333334</ele><time>2026-04-12T08:05:39Z</time></trkpt><trkpt lat="41.749789023026025" lon="12.695176891410668"><ele>584.6666666666667</ele><time>2026-04-12T08:05:42Z</time></trkpt><trkpt lat="41.74970902112072" lon="12.695180417808768"><ele>585.5</ele><time>2026-04-12T08:05:45Z</time></trkpt><trkpt lat="41.74964132933215" lon="12.69518453703529"><ele>586.3333333333334</ele><time>2026-04-12T08:05:48Z</time></trkpt><trkpt lat="41.74956557577395" lon="12.695206346653121"><ele>587.1666666666666</ele><time>2026-04-12T08:05:51Z</time></trkpt><trkpt lat="41.74947739002616" lon="12.695215367707286"><ele>588.0</ele><time>2026-04-12T08:05:54Z</time></trkpt><trkpt lat="41.74939698042908" lon="12.69520876465226"><ele>589.0</ele><time>2026-04-12T08:05:57Z</time></trkpt><trkpt lat="41.74931676313636" lon="12.69518073516885"><ele>590.0</ele><time>2026-04-12T08:06:00Z</time></trkpt><trkpt lat="41.74922838502414" lon="12.695158482559775"><ele>591.0</ele><time>2026-04-12T08:06:03Z</time></trkpt><trkpt lat="41.749154443624185" lon="12.695134981331112"><ele>592.0</ele><time>2026-04-12T08:06:06Z</time></trkpt><trkpt lat="41.74907520721227" lon="12.695106814803909"><ele>593.0</ele><time>2026-04-12T08:06:09Z</time></trkpt><trkpt lat="41.74899570269811" lon="12.695091112824418"><ele>594.0</ele><time>2026-04-12T08:06:12Z</time></trkpt><trkpt lat="41.748924274178634" lon="12.69508618487235"><ele>594.0</ele><time>2026-04-12T08:06:15Z</time></trkpt><trkpt lat="41.74885499917129" lon="12.69509851714502"><ele>594.0</ele><time>2026-04-12T08:06:18Z</time></trkpt><trkpt lat="41.748782902114314" lon="12.695129709742357"><ele>594.0</ele><time>2026-04-12T08:06:21Z</time></trkpt><trkpt lat="41.748715490054" lon="12.695169197129541"><ele>594.0</ele><time>2026-04-12T08:06:24Z</time></trkpt><trkpt lat="41.74865264973906" lon="12.695198801294364"><ele>594.0</ele><time>2026-04-12T08:06:27Z</time></trkpt><trkpt lat="41.748582801317475" lon="12.695260740250239"><ele>594.0</ele><time>2026-04-12T08:06:30Z</time></trkpt><trkpt lat="41.74853275755478" lon="12.695318668385601"><ele>594.0</ele><time>2026-04-12T08:06:32Z</time></trkpt><trkpt lat="41.74846725485462" lon="12.695377995227803"><ele>595.6666666666666</ele><time>2026-04-12T08:06:34Z</time></trkpt><trkpt lat="41.74839222766296" lon="12.69542310269513"><ele>597.3333333333334</ele><time>2026-04-12T08:06:36Z</time></trkpt><trkpt lat="41.748320328128436" lon="12.695473688507999"><ele>599.0</ele><time>2026-04-12T08:06:38Z</time></trkpt><trkpt lat="41.74824991059424" lon="12.695526057668303"><ele>600.6666666666667</ele><time>2026-04-12T08:06:40Z</time></trkpt><trkpt lat="41.74818304245089" lon="12.69556913065393"><ele>602.3333333333334</ele><time>2026-04-12T08:06:42Z</time></trkpt><trkpt lat="41.74812306022868" lon="12.695609937522088"><ele>604.0</ele><time>2026-04-12T08:06:44Z</time></trkpt><trkpt lat="41.74803857132369" lon="12.695667297022917"><ele>604.0000000000001</ele><time>2026-04-12T08:06:47Z</time></trkpt><trkpt lat="41.74798005355608" lon="12.695701801398855"><ele>604.0</ele><time>2026-04-12T08:06:49Z</time></trkpt><trkpt lat="41.74792101453637" lon="12.695743624836775"><ele>604.0</ele><time>2026-04-12T08:06:51Z</time></trkpt><trkpt lat="41.74785868108898" lon="12.695787672794507"><ele>604.0</ele><time>2026-04-12T08:06:53Z</time></trkpt><trkpt lat="41.747777748770474" lon="12.695844137480293"><ele>604.0</ele><time>2026-04-12T08:06:56Z</time></trkpt><trkpt lat="41.74770738972062" lon="12.695865062052457"><ele>604.0000000000001</ele><time>2026-04-12T08:06:58Z</time></trkpt><trkpt lat="41.74763830936416" lon="12.695871948537658"><ele>604.0</ele><time>2026-04-12T08:07:00Z</time></trkpt><trkpt lat="41.74756814340519" lon="12.69583590869208"><ele>603.1666666666667</ele><time>2026-04-12T08:07:02Z</time></trkpt><trkpt lat="41.74749174985628" lon="12.695813262083277"><ele>602.3333333333334</ele><time>2026-04-12T08:07:05Z</time></trkpt><trkpt lat="41.74741179642336" lon="12.695810798817348"><ele>601.5</ele><time>2026-04-12T08:07:08Z</time></trkpt><trkpt lat="41.74734194514115" lon="12.695826885548286"><ele>600.6666666666666</ele><time>2026-04-12T08:07:10Z</time></trkpt><trkpt lat="41.74728061773044" lon="12.69586415788909"><ele>599.8333333333333</ele><time>2026-04-12T08:07:12Z</time></trkpt><trkpt lat="41.747195192445254" lon="12.695906254782846"><ele>599.0</ele><time>2026-04-12T08:07:15Z</time></trkpt><trkpt lat="41.747111512645" lon="12.695948595210252"><ele>599.0</ele><time>2026-04-12T08:07:18Z</time></trkpt><trkpt lat="41.747033657931084" lon="12.695933975031755"><ele>599.0</ele><time>2026-04-12T08:07:22Z</time></trkpt><trkpt lat="41.74695651288914" lon="12.695907226199566"><ele>599.0</ele><time>2026-04-12T08:07:25Z</time></trkpt><trkpt lat="41.7468755881177" lon="12.695893287305582"><ele>599.0</ele><time>2026-04-12T08:07:28.999Z</time></trkpt><trkpt lat="41.74680166136209" lon="12.695874794979291"><ele>599.0</ele><time>2026-04-12T08:07:32Z</time></trkpt><trkpt lat="41.74672913759312" lon="12.69586645651213"><ele>599.0</ele><time>2026-04-12T08:07:35Z</time></trkpt><trkpt lat="41.74666088478847" lon="12.695853873275004"><ele>599.7142857142858</ele><time>2026-04-12T08:07:38Z</time></trkpt><trkpt lat="41.746590028878664" lon="12.695849482815854"><ele>600.4285714285714</ele><time>2026-04-12T08:07:41Z</time></trkpt><trkpt lat="41.74652233634114" lon="12.695848615515244"><ele>601.1428571428571</ele><time>2026-04-12T08:07:44Z</time></trkpt><trkpt lat="41.746444676611326" lon="12.695872389583393"><ele>601.8571428571429</ele><time>2026-04-12T08:07:47Z</time></trkpt><trkpt lat="41.746381176410424" lon="12.695888993823244"><ele>602.5714285714286</ele><time>2026-04-12T08:07:50Z</time></trkpt><trkpt lat="41.74629776149723" lon="12.695912847884674"><ele>603.2857142857143</ele><time>2026-04-12T08:07:53Z</time></trkpt><trkpt lat="41.74623042959188" lon="12.695926197404987"><ele>604.0</ele><time>2026-04-12T08:07:56Z</time></trkpt><trkpt lat="41.74616736279894" lon="12.695966410419626"><ele>604.0</ele><time>2026-04-12T08:07:59Z</time></trkpt><trkpt lat="41.74609271177841" lon="12.695998013190891"><ele>604.0</ele><time>2026-04-12T08:08:03Z</time></trkpt><trkpt lat="41.74601490824109" lon="12.695997532876998"><ele>604.0</ele><time>2026-04-12T08:08:06Z</time></trkpt><trkpt lat="41.74593718736111" lon="12.695986950334605"><ele>604.0</ele><time>2026-04-12T08:08:09Z</time></trkpt><trkpt lat="41.74587503616944" lon="12.696011262507083"><ele>604.0</ele><time>2026-04-12T08:08:12Z</time></trkpt><trkpt lat="41.74579689670206" lon="12.695992923269374"><ele>604.0</ele><time>2026-04-12T08:08:16Z</time></trkpt><trkpt lat="41.745731424733414" lon="12.695955109855547"><ele>604.6666666666667</ele><time>2026-04-12T08:08:19Z</time></trkpt><trkpt lat="41.745660578877946" lon="12.695951091069189"><ele>605.3333333333334</ele><time>2026-04-12T08:08:22Z</time></trkpt><trkpt lat="41.745578770960705" lon="12.69594883384547"><ele>606.0</ele><time>2026-04-12T08:08:26Z</time></trkpt><trkpt lat="41.74548498456293" lon="12.69596692895108"><ele>606.6666666666666</ele><time>2026-04-12T08:08:29Z</time></trkpt><trkpt lat="41.74541425813378" lon="12.695984849752017"><ele>607.3333333333333</ele><time>2026-04-12T08:08:31Z</time></trkpt><trkpt lat="41.74534550314559" lon="12.696022976059266"><ele>608.0</ele><time>2026-04-12T08:08:33Z</time></trkpt><trkpt lat="41.745276746543944" lon="12.696052974800933"><ele>609.0</ele><time>2026-04-12T08:08:35Z</time></trkpt><trkpt lat="41.74521032766978" lon="12.696095876392516"><ele>610.0</ele><time>2026-04-12T08:08:37Z</time></trkpt><trkpt lat="41.74514319049098" lon="12.696131526510609"><ele>611.0</ele><time>2026-04-12T08:08:39Z</time></trkpt><trkpt lat="41.74507787548908" lon="12.696173166085694"><ele>612.0</ele><time>2026-04-12T08:08:41Z</time></trkpt><trkpt lat="41.74500993943759" lon="12.696210961854545"><ele>613.0</ele><time>2026-04-12T08:08:43Z</time></trkpt><trkpt lat="41.744945861832626" lon="12.696249914680152"><ele>614.0</ele><time>2026-04-12T08:08:45Z</time></trkpt><trkpt lat="41.74487420714423" lon="12.69629419243676"><ele>615.0</ele><time>2026-04-12T08:08:47Z</time></trkpt><trkpt lat="41.744807909149934" lon="12.696332038716985"><ele>615.0</ele><time>2026-04-12T08:08:49Z</time></trkpt><trkpt lat="41.7447449332193" lon="12.696369268862922"><ele>615.0</ele><time>2026-04-12T08:08:51Z</time></trkpt><trkpt lat="41.74466979904108" lon="12.696436022140253"><ele>615.0</ele><time>2026-04-12T08:08:54Z</time></trkpt><trkpt lat="41.74459126896093" lon="12.696492961028655"><ele>615.0</ele><time>2026-04-12T08:08:57Z</time></trkpt><trkpt lat="41.744521971105904" lon="12.69653806698827"><ele>615.0</ele><time>2026-04-12T08:09:00Z</time></trkpt><trkpt lat="41.74445548622696" lon="12.696584806766475"><ele>615.0</ele><time>2026-04-12T08:09:03Z</time></trkpt><trkpt lat="41.74438642843347" lon="12.696644005865698"><ele>615.1666666666666</ele><time>2026-04-12T08:09:06Z</time></trkpt><trkpt lat="41.74431793098282" lon="12.696716331740477"><ele>615.3333333333334</ele><time>2026-04-12T08:09:09Z</time></trkpt><trkpt lat="41.74425448211011" lon="12.696775435708162"><ele>615.5</ele><time>2026-04-12T08:09:12Z</time></trkpt><trkpt lat="41.74418960024892" lon="12.696834257108227"><ele>615.6666666666667</ele><time>2026-04-12T08:09:15Z</time></trkpt><trkpt lat="41.74412111376547" lon="12.69689649263037"><ele>615.8333333333334</ele><time>2026-04-12T08:09:18Z</time></trkpt><trkpt lat="41.74405597322477" lon="12.696950890384231"><ele>616.0</ele><time>2026-04-12T08:09:21Z</time></trkpt><trkpt lat="41.74396949342386" lon="12.696989729969461"><ele>616.0</ele><time>2026-04-12T08:09:24Z</time></trkpt><trkpt lat="41.74388631137231" lon="12.697000995519803"><ele>616.0</ele><time>2026-04-12T08:09:27Z</time></trkpt><trkpt lat="41.743823097462545" lon="12.697009470844124"><ele>616.0</ele><time>2026-04-12T08:09:28.999Z</time></trkpt><trkpt lat="41.74375746186416" lon="12.697028591427411"><ele>616.0</ele><time>2026-04-12T08:09:30.999Z</time></trkpt><trkpt lat="41.74369303354563" lon="12.697063594953283"><ele>616.0</ele><time>2026-04-12T08:09:32.999Z</time></trkpt><trkpt lat="41.74362395388952" lon="12.697099349143258"><ele>616.0</ele><time>2026-04-12T08:09:34.999Z</time></trkpt><trkpt lat="41.743561544463546" lon="12.697137183623257"><ele>616.0</ele><time>2026-04-12T08:09:37Z</time></trkpt><trkpt lat="41.74348116350657" lon="12.697193364246138"><ele>614.4285714285714</ele><time>2026-04-12T08:09:40Z</time></trkpt><trkpt lat="41.74343761937236" lon="12.697255396222074"><ele>612.8571428571429</ele><time>2026-04-12T08:09:42Z</time></trkpt><trkpt lat="41.74337643681715" lon="12.697294342791368"><ele>611.2857142857142</ele><time>2026-04-12T08:09:44Z</time></trkpt><trkpt lat="41.74329637702947" lon="12.697294003689162"><ele>609.7142857142858</ele><time>2026-04-12T08:09:46Z</time></trkpt><trkpt lat="41.74323106074805" lon="12.697257471614613"><ele>608.1428571428571</ele><time>2026-04-12T08:09:48Z</time></trkpt><trkpt lat="41.74316483432907" lon="12.69722902912529"><ele>606.5714285714286</ele><time>2026-04-12T08:09:50Z</time></trkpt><trkpt lat="41.7430983129385" lon="12.697209490933057"><ele>605.0</ele><time>2026-04-12T08:09:53Z</time></trkpt><trkpt lat="41.743019875590534" lon="12.697195221451661"><ele>605.0</ele><time>2026-04-12T08:09:58Z</time></trkpt><trkpt lat="41.7429504313737" lon="12.697211116587951"><ele>605.0</ele><time>2026-04-12T08:10:01Z</time></trkpt><trkpt lat="41.74290283239149" lon="12.697298712351708"><ele>605.0</ele><time>2026-04-12T08:10:04Z</time></trkpt><trkpt lat="41.74284783757739" lon="12.697379034642355"><ele>605.0</ele><time>2026-04-12T08:10:07Z</time></trkpt><trkpt lat="41.74279063540476" lon="12.697469323407434"><ele>605.0</ele><time>2026-04-12T08:10:10Z</time></trkpt><trkpt lat="41.7427338559493" lon="12.697553701135755"><ele>605.0</ele><time>2026-04-12T08:10:13Z</time></trkpt><trkpt lat="41.74268352325976" lon="12.697628804388463"><ele>605.0</ele><time>2026-04-12T08:10:16Z</time></trkpt><trkpt lat="41.742632428728236" lon="12.697724274462113"><ele>605.0</ele><time>2026-04-12T08:10:19Z</time></trkpt><trkpt lat="41.74257812054793" lon="12.697819308958227"><ele>605.0</ele><time>2026-04-12T08:10:22Z</time></trkpt><trkpt lat="41.74252893131516" lon="12.697910383551426"><ele>605.0</ele><time>2026-04-12T08:10:25Z</time></trkpt><trkpt lat="41.742473481085696" lon="12.69799261019454"><ele>605.0</ele><time>2026-04-12T08:10:28Z</time></trkpt><trkpt lat="41.74239267379829" lon="12.698056312794103"><ele>605.0</ele><time>2026-04-12T08:10:31Z</time></trkpt><trkpt lat="41.74231978423516" lon="12.698073482872456"><ele>605.0</ele><time>2026-04-12T08:10:33Z</time></trkpt><trkpt lat="41.74224469943469" lon="12.698109605675318"><ele>605.0</ele><time>2026-04-12T08:10:35Z</time></trkpt><trkpt lat="41.742189109904245" lon="12.698184285860423"><ele>605.0</ele><time>2026-04-12T08:10:37Z</time></trkpt><trkpt lat="41.74215023183746" lon="12.698258930105855"><ele>605.0</ele><time>2026-04-12T08:10:39Z</time></trkpt><trkpt lat="41.742096207224385" lon="12.698303271414284"><ele>605.0</ele><time>2026-04-12T08:10:41Z</time></trkpt><trkpt lat="41.74202052776729" lon="12.698352835942716"><ele>605.0</ele><time>2026-04-12T08:10:44Z</time></trkpt><trkpt lat="41.74193596047461" lon="12.698418397981806"><ele>605.3333333333333</ele><time>2026-04-12T08:10:47Z</time></trkpt><trkpt lat="41.74185968311031" lon="12.698479606133912"><ele>605.6666666666666</ele><time>2026-04-12T08:10:49Z</time></trkpt><trkpt lat="41.74176723484339" lon="12.698539303459505"><ele>606.0</ele><time>2026-04-12T08:10:51Z</time></trkpt><trkpt lat="41.74170582764602" lon="12.698588510252307"><ele>606.3333333333334</ele><time>2026-04-12T08:10:53Z</time></trkpt><trkpt lat="41.741629619389336" lon="12.698642971927898"><ele>606.6666666666667</ele><time>2026-04-12T08:10:57Z</time></trkpt><trkpt lat="41.74155474665848" lon="12.698641528315566"><ele>607.0</ele><time>2026-04-12T08:11:02Z</time></trkpt><trkpt lat="41.74148879659667" lon="12.698650657541458"><ele>607.0</ele><time>2026-04-12T08:11:04Z</time></trkpt><trkpt lat="41.7414241434571" lon="12.698654204206553"><ele>607.0</ele><time>2026-04-12T08:11:06Z</time></trkpt><trkpt lat="41.74134101229866" lon="12.698672858054934"><ele>607.0</ele><time>2026-04-12T08:11:08Z</time></trkpt><trkpt lat="41.741261890859754" lon="12.698728858182921"><ele>607.0</ele><time>2026-04-12T08:11:10Z</time></trkpt><trkpt lat="41.7411532848327" lon="12.698798912871128"><ele>607.0</ele><time>2026-04-12T08:11:12Z</time></trkpt><trkpt lat="41.74104684900522" lon="12.698843031264131"><ele>605.6</ele><time>2026-04-12T08:11:14Z</time></trkpt><trkpt lat="41.74092727537005" lon="12.698856641746556"><ele>604.2</ele><time>2026-04-12T08:11:16Z</time></trkpt><trkpt lat="41.740836594400896" lon="12.698848105165764"><ele>602.8</ele><time>2026-04-12T08:11:18Z</time></trkpt><trkpt lat="41.740759976273154" lon="12.69885110834049"><ele>601.4</ele><time>2026-04-12T08:11:20Z</time></trkpt><trkpt lat="41.7406840438783" lon="12.698941063451782"><ele>600.0</ele><time>2026-04-12T08:11:22Z</time></trkpt><trkpt lat="41.74062977790424" lon="12.699006185322812"><ele>600.0</ele><time>2026-04-12T08:11:24Z</time></trkpt><trkpt lat="41.74057636227167" lon="12.699075497071307"><ele>600.0</ele><time>2026-04-12T08:11:25.999Z</time></trkpt><trkpt lat="41.74050088733868" lon="12.699156541778155"><ele>600.0</ele><time>2026-04-12T08:11:27.999Z</time></trkpt><trkpt lat="41.74043431812838" lon="12.699178514271402"><ele>600.0</ele><time>2026-04-12T08:11:29.999Z</time></trkpt><trkpt lat="41.74038098744299" lon="12.699234046196247"><ele>600.0</ele><time>2026-04-12T08:11:33.999Z</time></trkpt><trkpt lat="41.74037497386062" lon="12.699334183077701"><ele>600.0</ele><time>2026-04-12T08:11:38.999Z</time></trkpt><trkpt lat="41.74038896183111" lon="12.699444063282385"><ele>600.5</ele><time>2026-04-12T08:11:41.999Z</time></trkpt><trkpt lat="41.740383001521366" lon="12.699534415422695"><ele>601.0</ele><time>2026-04-12T08:11:44Z</time></trkpt><trkpt lat="41.74030154008976" lon="12.69959535014771"><ele>601.5</ele><time>2026-04-12T08:11:47Z</time></trkpt><trkpt lat="41.74020680392479" lon="12.699583140356763"><ele>602.0</ele><time>2026-04-12T08:11:50Z</time></trkpt><trkpt lat="41.740112585847776" lon="12.699577181769827"><ele>602.5</ele><time>2026-04-12T08:11:53Z</time></trkpt><trkpt lat="41.74002768368693" lon="12.699565073758077"><ele>603.0</ele><time>2026-04-12T08:11:56Z</time></trkpt><trkpt lat="41.73995842682318" lon="12.699568860821497"><ele>603.0</ele><time>2026-04-12T08:11:58Z</time></trkpt><trkpt lat="41.739888601271325" lon="12.699625042440035"><ele>603.0</ele><time>2026-04-12T08:12:01Z</time></trkpt><trkpt lat="41.73982874537009" lon="12.699652900981823"><ele>603.0</ele><time>2026-04-12T08:12:03Z</time></trkpt><trkpt lat="41.73980724360518" lon="12.699778185652962"><ele>603.0</ele><time>2026-04-12T08:12:06Z</time></trkpt><trkpt lat="41.739759377990715" lon="12.699861074789572"><ele>603.0</ele><time>2026-04-12T08:12:09Z</time></trkpt><trkpt lat="41.73969986019046" lon="12.69996111248281"><ele>603.0</ele><time>2026-04-12T08:12:12Z</time></trkpt><trkpt lat="41.73965986596482" lon="12.70005092045368"><ele>603.0</ele><time>2026-04-12T08:12:15Z</time></trkpt><trkpt lat="41.73959645888606" lon="12.70009383405477"><ele>603.0</ele><time>2026-04-12T08:12:19Z</time></trkpt><trkpt lat="41.73950931203261" lon="12.700129112058125"><ele>603.0</ele><time>2026-04-12T08:12:22Z</time></trkpt><trkpt lat="41.739444903076816" lon="12.700231520368124"><ele>603.0</ele><time>2026-04-12T08:12:24Z</time></trkpt><trkpt lat="41.739426807156065" lon="12.700333350862753"><ele>603.0</ele><time>2026-04-12T08:12:26Z</time></trkpt><trkpt lat="41.73938813128236" lon="12.700441984590272"><ele>603.0</ele><time>2026-04-12T08:12:29Z</time></trkpt><trkpt lat="41.739343444163545" lon="12.70051552985611"><ele>603.2857142857143</ele><time>2026-04-12T08:12:31Z</time></trkpt><trkpt lat="41.73931808416627" lon="12.700600354845813"><ele>603.5714285714286</ele><time>2026-04-12T08:12:33Z</time></trkpt><trkpt lat="41.73931446277673" lon="12.700685612541582"><ele>603.8571428571429</ele><time>2026-04-12T08:12:35Z</time></trkpt><trkpt lat="41.73932533176828" lon="12.700793094242625"><ele>604.1428571428571</ele><time>2026-04-12T08:12:38Z</time></trkpt><trkpt lat="41.739304010694376" lon="12.700912139863224"><ele>604.4285714285714</ele><time>2026-04-12T08:12:41Z</time></trkpt><trkpt lat="41.739315959174505" lon="12.700996524170803"><ele>604.7142857142857</ele><time>2026-04-12T08:12:43Z</time></trkpt><trkpt lat="41.73933590884044" lon="12.701077621713257"><ele>605.0</ele><time>2026-04-12T08:12:45Z</time></trkpt><trkpt lat="41.73933603183531" lon="12.70119667079894"><ele>605.6666666666666</ele><time>2026-04-12T08:12:48Z</time></trkpt><trkpt lat="41.739306994399854" lon="12.701274346270349"><ele>606.3333333333333</ele><time>2026-04-12T08:12:50Z</time></trkpt><trkpt lat="41.73924126117456" lon="12.701362042580008"><ele>607.0</ele><time>2026-04-12T08:12:53Z</time></trkpt><trkpt lat="41.73922162084143" lon="12.701443563056857"><ele>607.6666666666666</ele><time>2026-04-12T08:12:55Z</time></trkpt><trkpt lat="41.73921707746519" lon="12.701567022932801"><ele>608.3333333333334</ele><time>2026-04-12T08:12:58Z</time></trkpt><trkpt lat="41.739165972570134" lon="12.70168075511583"><ele>609.0</ele><time>2026-04-12T08:13:01Z</time></trkpt><trkpt lat="41.739151972713195" lon="12.70180533697405"><ele>609.0</ele><time>2026-04-12T08:13:04Z</time></trkpt><trkpt lat="41.739186705000236" lon="12.70189523232306"><ele>609.0</ele><time>2026-04-12T08:13:06Z</time></trkpt><trkpt lat="41.7392365151957" lon="12.701996322137635"><ele>609.0</ele><time>2026-04-12T08:13:09Z</time></trkpt><trkpt lat="41.739245722384354" lon="12.702081008976792"><ele>609.0</ele><time>2026-04-12T08:13:11Z</time></trkpt><trkpt lat="41.73925460890683" lon="12.702170136943364"><ele>609.0</ele><time>2026-04-12T08:13:13Z</time></trkpt><trkpt lat="41.73932304672841" lon="12.702259055626888"><ele>609.0</ele><time>2026-04-12T08:13:16Z</time></trkpt><trkpt lat="41.7393863813279" lon="12.702316495774497"><ele>609.2857142857143</ele><time>2026-04-12T08:13:19Z</time></trkpt><trkpt lat="41.73938153445856" lon="12.70240085369716"><ele>609.5714285714286</ele><time>2026-04-12T08:13:21Z</time></trkpt><trkpt lat="41.739340116675415" lon="12.702496122667723"><ele>609.8571428571429</ele><time>2026-04-12T08:13:23Z</time></trkpt><trkpt lat="41.73928669198918" lon="12.70256740611475"><ele>610.1428571428571</ele><time>2026-04-12T08:13:24.999Z</time></trkpt><trkpt lat="41.73922388901313" lon="12.702588055828642"><ele>610.4285714285714</ele><time>2026-04-12T08:13:26.999Z</time></trkpt><trkpt lat="41.73914316746212" lon="12.70257492170669"><ele>610.7142857142858</ele><time>2026-04-12T08:13:29.999Z</time></trkpt><trkpt lat="41.73906992273621" lon="12.702548424314152"><ele>611.0</ele><time>2026-04-12T08:13:33.999Z</time></trkpt><trkpt lat="41.739005652269654" lon="12.70251443722919"><ele>611.0000000000001</ele><time>2026-04-12T08:13:35.999Z</time></trkpt><trkpt lat="41.73894822631952" lon="12.70247611009285"><ele>611.0</ele><time>2026-04-12T08:13:37.999Z</time></trkpt><trkpt lat="41.73888671350227" lon="12.702453689388364"><ele>611.0</ele><time>2026-04-12T08:13:39.999Z</time></trkpt><trkpt lat="41.738798765079935" lon="12.702418985029311"><ele>611.0</ele><time>2026-04-12T08:13:42.999Z</time></trkpt><trkpt lat="41.73871186355039" lon="12.702415450027242"><ele>611.0</ele><time>2026-04-12T08:13:45.999Z</time></trkpt><trkpt lat="41.73870405123813" lon="12.702499692786143"><ele>611.0000000000001</ele><time>2026-04-12T08:13:49Z</time></trkpt><trkpt lat="41.73874940855791" lon="12.702571743717519"><ele>611.0</ele><time>2026-04-12T08:13:51Z</time></trkpt><trkpt lat="41.73878801818813" lon="12.702638402236314"><ele>611.0</ele><time>2026-04-12T08:13:53Z</time></trkpt><trkpt lat="41.738826427250906" lon="12.702745729118277"><ele>611.0</ele><time>2026-04-12T08:13:56Z</time></trkpt><trkpt lat="41.73888209016025" lon="12.702846082252698"><ele>611.0</ele><time>2026-04-12T08:13:59Z</time></trkpt><trkpt lat="41.73893659715227" lon="12.702941111228332"><ele>611.0</ele><time>2026-04-12T08:14:02Z</time></trkpt><trkpt lat="41.738981371355266" lon="12.703033872364088"><ele>611.0</ele><time>2026-04-12T08:14:05Z</time></trkpt><trkpt lat="41.7390032212634" lon="12.703127878620457"><ele>611.0</ele><time>2026-04-12T08:14:08Z</time></trkpt><trkpt lat="41.739024168609134" lon="12.703220302056165"><ele>611.7142857142858</ele><time>2026-04-12T08:14:11Z</time></trkpt><trkpt lat="41.73902388386984" lon="12.703323208317514"><ele>612.4285714285714</ele><time>2026-04-12T08:14:14Z</time></trkpt><trkpt lat="41.73906795565288" lon="12.703403659920601"><ele>613.1428571428571</ele><time>2026-04-12T08:14:17Z</time></trkpt><trkpt lat="41.73910030385258" lon="12.703507124772797"><ele>613.8571428571429</ele><time>2026-04-12T08:14:20Z</time></trkpt><trkpt lat="41.73903969673466" lon="12.703568215330721"><ele>614.5714285714286</ele><time>2026-04-12T08:14:23Z</time></trkpt><trkpt lat="41.73898717603217" lon="12.703623797184292"><ele>615.2857142857143</ele><time>2026-04-12T08:14:26Z</time></trkpt><trkpt lat="41.738922465121874" lon="12.703656630974217"><ele>616.0</ele><time>2026-04-12T08:14:29Z</time></trkpt><trkpt lat="41.73885339051128" lon="12.70370742066278"><ele>616.3333333333334</ele><time>2026-04-12T08:14:32Z</time></trkpt><trkpt lat="41.73878802002906" lon="12.703752636759058"><ele>616.6666666666667</ele><time>2026-04-12T08:14:35Z</time></trkpt><trkpt lat="41.73872087061016" lon="12.703823030031028"><ele>617.0</ele><time>2026-04-12T08:14:38Z</time></trkpt><trkpt lat="41.73864977766876" lon="12.70384627763923"><ele>617.3333333333334</ele><time>2026-04-12T08:14:41Z</time></trkpt><trkpt lat="41.73857573504716" lon="12.703893563622387"><ele>617.6666666666666</ele><time>2026-04-12T08:14:44Z</time></trkpt><trkpt lat="41.7385017860248" lon="12.703935893679894"><ele>618.0</ele><time>2026-04-12T08:14:47Z</time></trkpt><trkpt lat="41.73844490455868" lon="12.703999503234707"><ele>618.0</ele><time>2026-04-12T08:14:50Z</time></trkpt><trkpt lat="41.73839705687064" lon="12.70408899281546"><ele>618.0</ele><time>2026-04-12T08:14:53Z</time></trkpt><trkpt lat="41.738352258974736" lon="12.704175040659607"><ele>618.0</ele><time>2026-04-12T08:14:56Z</time></trkpt><trkpt lat="41.738320244257004" lon="12.704279342464735"><ele>618.0</ele><time>2026-04-12T08:14:59Z</time></trkpt><trkpt lat="41.73828469067011" lon="12.704385231090262"><ele>618.0</ele><time>2026-04-12T08:15:02Z</time></trkpt><trkpt lat="41.73826574882176" lon="12.704477439646649"><ele>618.0</ele><time>2026-04-12T08:15:05Z</time></trkpt><trkpt lat="41.738233352924915" lon="12.704575203369043"><ele>618.7142857142858</ele><time>2026-04-12T08:15:08Z</time></trkpt><trkpt lat="41.738187581682" lon="12.70463981472586"><ele>619.4285714285714</ele><time>2026-04-12T08:15:11Z</time></trkpt><trkpt lat="41.738133673585374" lon="12.70468873234261"><ele>620.1428571428571</ele><time>2026-04-12T08:15:14Z</time></trkpt><trkpt lat="41.73809001115813" lon="12.704760777819276"><ele>620.8571428571429</ele><time>2026-04-12T08:15:17Z</time></trkpt><trkpt lat="41.738048949802725" lon="12.704847540186316"><ele>621.5714285714286</ele><time>2026-04-12T08:15:20Z</time></trkpt><trkpt lat="41.737996081215464" lon="12.704917189589896"><ele>622.2857142857143</ele><time>2026-04-12T08:15:22Z</time></trkpt><trkpt lat="41.73796811548512" lon="12.705002573004991"><ele>623.0</ele><time>2026-04-12T08:15:24Z</time></trkpt><trkpt lat="41.73793981593453" lon="12.705087326554382"><ele>623.0</ele><time>2026-04-12T08:15:26Z</time></trkpt><trkpt lat="41.737919315414665" lon="12.705169921803318"><ele>623.0</ele><time>2026-04-12T08:15:28Z</time></trkpt><trkpt lat="41.73791858929472" lon="12.705259932198274"><ele>623.0</ele><time>2026-04-12T08:15:31Z</time></trkpt><trkpt lat="41.73791891399639" lon="12.705348088312107"><ele>623.0</ele><time>2026-04-12T08:15:33Z</time></trkpt><trkpt lat="41.73788569544769" lon="12.705449154568662"><ele>623.0</ele><time>2026-04-12T08:15:35.999Z</time></trkpt><trkpt lat="41.73781883512607" lon="12.705493756806145"><ele>623.0</ele><time>2026-04-12T08:15:38.999Z</time></trkpt><trkpt lat="41.73779602800433" lon="12.705573042259125"><ele>623.0</ele><time>2026-04-12T08:16:29Z</time></trkpt><trkpt lat="41.73779255830248" lon="12.70567954747053"><ele>622.8333333333333</ele><time>2026-04-12T08:16:41Z</time></trkpt><trkpt lat="41.737813654380126" lon="12.705793961164582"><ele>622.6666666666666</ele><time>2026-04-12T08:16:45Z</time></trkpt><trkpt lat="41.73779313173822" lon="12.705897901017144"><ele>622.5</ele><time>2026-04-12T08:16:48Z</time></trkpt><trkpt lat="41.737730366009" lon="12.705943082442614"><ele>622.3333333333334</ele><time>2026-04-12T08:16:52Z</time></trkpt><trkpt lat="41.73768282564033" lon="12.706005028705826"><ele>622.1666666666667</ele><time>2026-04-12T08:16:55Z</time></trkpt><trkpt lat="41.737630099342056" lon="12.706071536015031"><ele>622.0</ele><time>2026-04-12T08:16:58Z</time></trkpt><trkpt lat="41.73756443720293" lon="12.70614221070737"><ele>622.5</ele><time>2026-04-12T08:17:01Z</time></trkpt><trkpt lat="41.73753660455188" lon="12.706248243966115"><ele>623.0</ele><time>2026-04-12T08:17:04Z</time></trkpt><trkpt lat="41.73750673413238" lon="12.706342372307617"><ele>623.5</ele><time>2026-04-12T08:17:07Z</time></trkpt><trkpt lat="41.737454715359995" lon="12.706432301952109"><ele>624.0</ele><time>2026-04-12T08:17:10Z</time></trkpt><trkpt lat="41.7373992701607" lon="12.706513752593043"><ele>624.5</ele><time>2026-04-12T08:17:13Z</time></trkpt><trkpt lat="41.737345952103716" lon="12.706586161498722"><ele>625.0</ele><time>2026-04-12T08:17:16Z</time></trkpt><trkpt lat="41.737306981186656" lon="12.706654114707677"><ele>625.0</ele><time>2026-04-12T08:17:19Z</time></trkpt><trkpt lat="41.737239865687684" lon="12.706651597730973"><ele>625.0</ele><time>2026-04-12T08:17:22Z</time></trkpt><trkpt lat="41.737169155467136" lon="12.70660146454076"><ele>625.0</ele><time>2026-04-12T08:17:25Z</time></trkpt><trkpt lat="41.73709450576942" lon="12.706651568334086"><ele>625.0</ele><time>2026-04-12T08:17:28Z</time></trkpt><trkpt lat="41.73706478875741" lon="12.706742599181394"><ele>625.0</ele><time>2026-04-12T08:17:31Z</time></trkpt><trkpt lat="41.73706081971167" lon="12.706851130716966"><ele>625.0</ele><time>2026-04-12T08:17:33.999Z</time></trkpt><trkpt lat="41.7370688537926" lon="12.70695518946108"><ele>626.2857142857143</ele><time>2026-04-12T08:17:36.999Z</time></trkpt><trkpt lat="41.73707471960067" lon="12.70705118503344"><ele>627.5714285714286</ele><time>2026-04-12T08:17:39.999Z</time></trkpt><trkpt lat="41.737064380876404" lon="12.70715507470011"><ele>628.8571428571429</ele><time>2026-04-12T08:17:42.999Z</time></trkpt><trkpt lat="41.73704556870196" lon="12.70724438418508"><ele>630.1428571428571</ele><time>2026-04-12T08:17:45.999Z</time></trkpt><trkpt lat="41.73700479058213" lon="12.70733511316608"><ele>631.4285714285714</ele><time>2026-04-12T08:17:48.999Z</time></trkpt><trkpt lat="41.736965798237776" lon="12.707418204356886"><ele>632.7142857142858</ele><time>2026-04-12T08:17:51.999Z</time></trkpt><trkpt lat="41.73690799645379" lon="12.70748143807694"><ele>634.0</ele><time>2026-04-12T08:17:54.999Z</time></trkpt><trkpt lat="41.736853914853405" lon="12.707558806117332"><ele>634.5</ele><time>2026-04-12T08:17:57.999Z</time></trkpt><trkpt lat="41.736788548823945" lon="12.707632823812698"><ele>635.0</ele><time>2026-04-12T08:18:01Z</time></trkpt><trkpt lat="41.736714557315985" lon="12.707690450316784"><ele>635.5</ele><time>2026-04-12T08:18:04Z</time></trkpt><trkpt lat="41.73664174589657" lon="12.707758329105838"><ele>636.0</ele><time>2026-04-12T08:18:07Z</time></trkpt><trkpt lat="41.73658187895874" lon="12.707838013534698"><ele>636.5</ele><time>2026-04-12T08:18:10Z</time></trkpt><trkpt lat="41.73652692491814" lon="12.707926785233154"><ele>637.0</ele><time>2026-04-12T08:18:13Z</time></trkpt><trkpt lat="41.73650417963513" lon="12.708035089210412"><ele>637.3333333333334</ele><time>2026-04-12T08:18:16Z</time></trkpt><trkpt lat="41.7364920040261" lon="12.70815363452719"><ele>637.6666666666667</ele><time>2026-04-12T08:18:19Z</time></trkpt><trkpt lat="41.73647455374513" lon="12.708265819883696"><ele>638.0</ele><time>2026-04-12T08:18:22Z</time></trkpt><trkpt lat="41.73642830585411" lon="12.708366486736518"><ele>638.3333333333334</ele><time>2026-04-12T08:18:25Z</time></trkpt><trkpt lat="41.736364473978284" lon="12.708439848850325"><ele>638.6666666666666</ele><time>2026-04-12T08:18:28Z</time></trkpt><trkpt lat="41.736297672473974" lon="12.708510354653667"><ele>639.0</ele><time>2026-04-12T08:18:31Z</time></trkpt><trkpt lat="41.736235863051576" lon="12.708574840961461"><ele>640.3333333333334</ele><time>2026-04-12T08:18:34Z</time></trkpt><trkpt lat="41.73618208123432" lon="12.708657094771564"><ele>641.6666666666666</ele><time>2026-04-12T08:18:37Z</time></trkpt><trkpt lat="41.7361226880818" lon="12.70874676611046"><ele>643.0</ele><time>2026-04-12T08:18:40Z</time></trkpt><trkpt lat="41.736067644770216" lon="12.708830803344492"><ele>644.3333333333333</ele><time>2026-04-12T08:18:43Z</time></trkpt><trkpt lat="41.73602332271461" lon="12.708893644136952"><ele>645.6666666666666</ele><time>2026-04-12T08:18:45Z</time></trkpt><trkpt lat="41.735960221723026" lon="12.708958466675007"><ele>647.0</ele><time>2026-04-12T08:18:48Z</time></trkpt><trkpt lat="41.73590663080874" lon="12.70902856846653"><ele>647.2857142857142</ele><time>2026-04-12T08:18:51Z</time></trkpt><trkpt lat="41.735851527903954" lon="12.709122482995717"><ele>647.5714285714286</ele><time>2026-04-12T08:18:54Z</time></trkpt><trkpt lat="41.73579275949693" lon="12.709202181448505"><ele>647.8571428571429</ele><time>2026-04-12T08:18:57Z</time></trkpt><trkpt lat="41.7357555167435" lon="12.709277290288552"><ele>648.1428571428571</ele><time>2026-04-12T08:19:00Z</time></trkpt><trkpt lat="41.73569896554" lon="12.70931823386512"><ele>648.4285714285714</ele><time>2026-04-12T08:19:03Z</time></trkpt><trkpt lat="41.73564516980581" lon="12.709364871734776"><ele>648.7142857142857</ele><time>2026-04-12T08:19:06Z</time></trkpt><trkpt lat="41.735606212764274" lon="12.709432964202026"><ele>649.0</ele><time>2026-04-12T08:19:10Z</time></trkpt><trkpt lat="41.735524875763545" lon="12.709515013076496"><ele>649.5714285714286</ele><time>2026-04-12T08:19:59.999Z</time></trkpt><trkpt lat="41.7354555506712" lon="12.709549230804452"><ele>650.1428571428571</ele><time>2026-04-12T08:20:03.999Z</time></trkpt><trkpt lat="41.73539429790592" lon="12.709607905919814"><ele>650.7142857142858</ele><time>2026-04-12T08:20:09Z</time></trkpt><trkpt lat="41.73533532582536" lon="12.709647679997794"><ele>651.2857142857142</ele><time>2026-04-12T08:20:13Z</time></trkpt><trkpt lat="41.73527429739197" lon="12.709689240563442"><ele>651.8571428571429</ele><time>2026-04-12T08:20:17Z</time></trkpt><trkpt lat="41.735212961239895" lon="12.709726557508498"><ele>652.4285714285714</ele><time>2026-04-12T08:20:20Z</time></trkpt><trkpt lat="41.735141860538505" lon="12.70976502280492"><ele>653.0</ele><time>2026-04-12T08:20:24Z</time></trkpt><trkpt lat="41.73507397609418" lon="12.709803976261606"><ele>651.2857142857143</ele><time>2026-04-12T08:20:28Z</time></trkpt><trkpt lat="41.73502365772565" lon="12.709856050383117"><ele>649.5714285714286</ele><time>2026-04-12T08:20:32Z</time></trkpt><trkpt lat="41.73495237866782" lon="12.709893822918525"><ele>647.8571428571429</ele><time>2026-04-12T08:20:36Z</time></trkpt><trkpt lat="41.73490373434093" lon="12.709953105296453"><ele>646.1428571428571</ele><time>2026-04-12T08:20:39Z</time></trkpt><trkpt lat="41.734831002758554" lon="12.709994892124548"><ele>644.4285714285714</ele><time>2026-04-12T08:20:43Z</time></trkpt><trkpt lat="41.734774637685476" lon="12.710036649062125"><ele>642.7142857142858</ele><time>2026-04-12T08:20:47Z</time></trkpt><trkpt lat="41.734723457633514" lon="12.710086572357206"><ele>641.0</ele><time>2026-04-12T08:20:51Z</time></trkpt><trkpt lat="41.73465008693232" lon="12.710118835924684"><ele>641.0</ele><time>2026-04-12T08:20:56Z</time></trkpt><trkpt lat="41.73456435152301" lon="12.710103240036938"><ele>641.0</ele><time>2026-04-12T08:21:02Z</time></trkpt><trkpt lat="41.73447500070001" lon="12.710095167428525"><ele>641.0</ele><time>2026-04-12T08:21:06Z</time></trkpt><trkpt lat="41.73439448967474" lon="12.710077051833046"><ele>641.0</ele><time>2026-04-12T08:21:09Z</time></trkpt><trkpt lat="41.734326365567824" lon="12.710064094960561"><ele>641.0</ele><time>2026-04-12T08:21:12Z</time></trkpt><trkpt lat="41.734238875057834" lon="12.710062697069874"><ele>641.0</ele><time>2026-04-12T08:21:15Z</time></trkpt><trkpt lat="41.734176471791" lon="12.710046399696514"><ele>639.4285714285714</ele><time>2026-04-12T08:21:17Z</time></trkpt><trkpt lat="41.73411157620998" lon="12.710025165431533"><ele>637.8571428571429</ele><time>2026-04-12T08:21:21Z</time></trkpt><trkpt lat="41.7340389601287" lon="12.710051410403421"><ele>636.2857142857142</ele><time>2026-04-12T08:21:35.999Z</time></trkpt><trkpt lat="41.73396623817489" lon="12.710037457818615"><ele>634.7142857142858</ele><time>2026-04-12T08:21:41.999Z</time></trkpt><trkpt lat="41.73390050883275" lon="12.710052218255088"><ele>633.1428571428571</ele><time>2026-04-12T08:21:47.999Z</time></trkpt><trkpt lat="41.733832914490115" lon="12.710055033969384"><ele>631.5714285714286</ele><time>2026-04-12T08:21:51.999Z</time></trkpt><trkpt lat="41.733750923155185" lon="12.710055830264922"><ele>630.0</ele><time>2026-04-12T08:22:13Z</time></trkpt><trkpt lat="41.733685398425635" lon="12.710047360843607"><ele>630.0</ele><time>2026-04-12T08:22:21Z</time></trkpt><trkpt lat="41.73361969908744" lon="12.71001719489851"><ele>630.0</ele><time>2026-04-12T08:22:28Z</time></trkpt><trkpt lat="41.733565536809046" lon="12.709967973136704"><ele>630.0</ele><time>2026-04-12T08:22:35Z</time></trkpt><trkpt lat="41.73350138057409" lon="12.709940358099097"><ele>630.0</ele><time>2026-04-12T08:22:39Z</time></trkpt><trkpt lat="41.73342853095342" lon="12.709904933999939"><ele>630.0</ele><time>2026-04-12T08:22:43Z</time></trkpt><trkpt lat="41.733366180127" lon="12.709886538466991"><ele>630.0</ele><time>2026-04-12T08:22:47Z</time></trkpt><trkpt lat="41.733306352892875" lon="12.709855649902213"><ele>630.0</ele><time>2026-04-12T08:24:46Z</time></trkpt><trkpt lat="41.73328161409211" lon="12.709943924745243"><ele>627.8333333333334</ele><time>2026-04-12T08:24:54Z</time></trkpt><trkpt lat="41.733246189338836" lon="12.710018579975898"><ele>625.6666666666666</ele><time>2026-04-12T08:25:05Z</time></trkpt><trkpt lat="41.73319825311655" lon="12.710089268057034"><ele>623.5</ele><time>2026-04-12T08:25:13Z</time></trkpt><trkpt lat="41.733133475003214" lon="12.710116327543865"><ele>621.3333333333333</ele><time>2026-04-12T08:25:52.999Z</time></trkpt><trkpt lat="41.73312927335591" lon="12.710027084150042"><ele>619.1666666666666</ele><time>2026-04-12T08:26:06.999Z</time></trkpt><trkpt lat="41.73313078698917" lon="12.710173975213639"><ele>617.0</ele><time>2026-04-12T08:26:44Z</time></trkpt><trkpt lat="41.73307055135385" lon="12.710223976991038"><ele>617.0</ele><time>2026-04-12T08:26:49Z</time></trkpt><trkpt lat="41.733039115970875" lon="12.710142221576115"><ele>617.0</ele><time>2026-04-12T08:26:52Z</time></trkpt><trkpt lat="41.73304787295186" lon="12.710046376348856"><ele>617.0</ele><time>2026-04-12T08:26:56Z</time></trkpt><trkpt lat="41.73305713861071" lon="12.709962166503757"><ele>617.0</ele><time>2026-04-12T08:27:09Z</time></trkpt><trkpt lat="41.733067159325905" lon="12.709869880482076"><ele>617.0</ele><time>2026-04-12T08:27:14Z</time></trkpt><trkpt lat="41.73303457609928" lon="12.709762826260132"><ele>617.0</ele><time>2026-04-12T08:27:47Z</time></trkpt><trkpt lat="41.732965323607324" lon="12.709704072704513"><ele>617.0</ele><time>2026-04-12T08:27:50Z</time></trkpt><trkpt lat="41.732896201793714" lon="12.709713980618519"><ele>617.0</ele><time>2026-04-12T08:27:55Z</time></trkpt><trkpt lat="41.73282133871159" lon="12.709733649579285"><ele>617.0</ele><time>2026-04-12T08:27:58.999Z</time></trkpt><trkpt lat="41.73275699521709" lon="12.709719342781218"><ele>617.0</ele><time>2026-04-12T08:28:01.999Z</time></trkpt><trkpt lat="41.73269774361474" lon="12.709681620337474"><ele>617.0</ele><time>2026-04-12T08:28:04.999Z</time></trkpt><trkpt lat="41.73268184271198" lon="12.709597220746744"><ele>617.0</ele><time>2026-04-12T08:28:07.999Z</time></trkpt><trkpt lat="41.73264793720494" lon="12.709507957869187"><ele>617.0</ele><time>2026-04-12T08:28:11.999Z</time></trkpt><trkpt lat="41.732629423648405" lon="12.709422537600439"><ele>617.0</ele><time>2026-04-12T08:28:16.999Z</time></trkpt><trkpt lat="41.73260253180795" lon="12.709308160439981"><ele>616.0</ele><time>2026-04-12T08:28:20.999Z</time></trkpt><trkpt lat="41.73256725378181" lon="12.709191333414397"><ele>615.0</ele><time>2026-04-12T08:28:24.999Z</time></trkpt><trkpt lat="41.73253577573701" lon="12.70909483603517"><ele>614.0</ele><time>2026-04-12T08:28:26.999Z</time></trkpt><trkpt lat="41.73247658746421" lon="12.708981156715819"><ele>613.0</ele><time>2026-04-12T08:28:29Z</time></trkpt><trkpt lat="41.73242870569027" lon="12.708862068035465"><ele>612.0</ele><time>2026-04-12T08:28:31Z</time></trkpt><trkpt lat="41.732384332374906" lon="12.708738597420442"><ele>612.0</ele><time>2026-04-12T08:28:33Z</time></trkpt><trkpt lat="41.732344882971226" lon="12.708645370151771"><ele>612.0</ele><time>2026-04-12T08:28:35Z</time></trkpt><trkpt lat="41.7323082871372" lon="12.708543825802353"><ele>612.0</ele><time>2026-04-12T08:28:37Z</time></trkpt><trkpt lat="41.732277147333946" lon="12.708469018782997"><ele>612.0</ele><time>2026-04-12T08:28:39Z</time></trkpt><trkpt lat="41.73223387293862" lon="12.708343147502145"><ele>612.0</ele><time>2026-04-12T08:28:42Z</time></trkpt><trkpt lat="41.73220609214088" lon="12.708261724000247"><ele>612.0</ele><time>2026-04-12T08:28:44Z</time></trkpt><trkpt lat="41.73216827102264" lon="12.708176747331638"><ele>611.0</ele><time>2026-04-12T08:28:47Z</time></trkpt><trkpt lat="41.73214410363896" lon="12.708093740703202"><ele>610.0</ele><time>2026-04-12T08:28:49Z</time></trkpt><trkpt lat="41.73211658000186" lon="12.707994348257115"><ele>609.0</ele><time>2026-04-12T08:28:51Z</time></trkpt><trkpt lat="41.73207600940071" lon="12.707902723006898"><ele>608.0</ele><time>2026-04-12T08:28:54Z</time></trkpt><trkpt lat="41.73204912780995" lon="12.70781999362427"><ele>607.0</ele><time>2026-04-12T08:28:56Z</time></trkpt><trkpt lat="41.73203382222641" lon="12.707737252351734"><ele>606.0</ele><time>2026-04-12T08:28:58Z</time></trkpt><trkpt lat="41.73199988920398" lon="12.70765018712286"><ele>605.0</ele><time>2026-04-12T08:29:03Z</time></trkpt><trkpt lat="41.731951483552685" lon="12.70758328894116"><ele>604.8571428571429</ele><time>2026-04-12T08:29:07Z</time></trkpt><trkpt lat="41.73192690518246" lon="12.7075013555879"><ele>604.7142857142858</ele><time>2026-04-12T08:29:39Z</time></trkpt><trkpt lat="41.731890428916465" lon="12.707426647097694"><ele>604.5714285714287</ele><time>2026-04-12T08:29:48Z</time></trkpt><trkpt lat="41.73185018612305" lon="12.707314469795831"><ele>604.4285714285714</ele><time>2026-04-12T08:30:10.999Z</time></trkpt><trkpt lat="41.73178831298533" lon="12.707296010921183"><ele>604.2857142857143</ele><time>2026-04-12T08:30:13.999Z</time></trkpt><trkpt lat="41.73171969417831" lon="12.707286795957527"><ele>604.1428571428572</ele><time>2026-04-12T08:30:16.999Z</time></trkpt><trkpt lat="41.731650129093815" lon="12.707307152773845"><ele>604.0</ele><time>2026-04-12T08:30:20.999Z</time></trkpt><trkpt lat="41.73157392488123" lon="12.707344531395234"><ele>603.0000000000001</ele><time>2026-04-12T08:30:25.999Z</time></trkpt><trkpt lat="41.73151288506482" lon="12.707384629496971"><ele>602.0</ele><time>2026-04-12T08:30:29.999Z</time></trkpt><trkpt lat="41.73145593269028" lon="12.707477848247928"><ele>601.0</ele><time>2026-04-12T08:30:33.999Z</time></trkpt><trkpt lat="41.73140855834195" lon="12.707549182001772"><ele>600.0</ele><time>2026-04-12T08:30:37Z</time></trkpt><trkpt lat="41.731384671474046" lon="12.707630236715147"><ele>599.0</ele><time>2026-04-12T08:30:49Z</time></trkpt><trkpt lat="41.73135035874419" lon="12.707720620305615"><ele>598.0000000000001</ele><time>2026-04-12T08:30:53Z</time></trkpt><trkpt lat="41.73133269799691" lon="12.707816897236953"><ele>597.0</ele><time>2026-04-12T08:31:02Z</time></trkpt><trkpt lat="41.7313303499583" lon="12.707908755968042"><ele>597.0000000000001</ele><time>2026-04-12T08:31:06Z</time></trkpt><trkpt lat="41.731313643618236" lon="12.707993291153057"><ele>597.0</ele><time>2026-04-12T08:31:09Z</time></trkpt><trkpt lat="41.731293114727485" lon="12.708073277047038"><ele>597.0</ele><time>2026-04-12T08:31:12Z</time></trkpt><trkpt lat="41.73125652952614" lon="12.70818353774403"><ele>597.0</ele><time>2026-04-12T08:31:16Z</time></trkpt><trkpt lat="41.73122365077858" lon="12.708278802983056"><ele>597.0</ele><time>2026-04-12T08:31:19Z</time></trkpt><trkpt lat="41.73120905790736" lon="12.708367188843978"><ele>597.0000000000001</ele><time>2026-04-12T08:31:22Z</time></trkpt><trkpt lat="41.731188320082765" lon="12.708454558961526"><ele>597.0</ele><time>2026-04-12T08:31:25Z</time></trkpt><trkpt lat="41.731185392218414" lon="12.708566112501583"><ele>598.1666666666666</ele><time>2026-04-12T08:31:28Z</time></trkpt><trkpt lat="41.731163263486465" lon="12.708685356856922"><ele>599.3333333333334</ele><time>2026-04-12T08:31:31Z</time></trkpt><trkpt lat="41.731159502825946" lon="12.708773561633032"><ele>600.5</ele><time>2026-04-12T08:31:33Z</time></trkpt><trkpt lat="41.731175762419596" lon="12.708911061570438"><ele>601.6666666666667</ele><time>2026-04-12T08:31:36Z</time></trkpt><trkpt lat="41.73119504282351" lon="12.709029165815963"><ele>602.8333333333334</ele><time>2026-04-12T08:31:39Z</time></trkpt><trkpt lat="41.731207007538735" lon="12.709115999454935"><ele>604.0</ele><time>2026-04-12T08:31:41Z</time></trkpt><trkpt lat="41.73122311664786" lon="12.709216686578518"><ele>604.0000000000001</ele><time>2026-04-12T08:31:43Z</time></trkpt><trkpt lat="41.73123060086946" lon="12.70931292651855"><ele>604.0</ele><time>2026-04-12T08:31:45Z</time></trkpt><trkpt lat="41.73122924448237" lon="12.709401211528682"><ele>604.0</ele><time>2026-04-12T08:32:00.999Z</time></trkpt><trkpt lat="41.73122039277129" lon="12.709496946386736"><ele>604.0</ele><time>2026-04-12T08:32:09.999Z</time></trkpt><trkpt lat="41.73115690049896" lon="12.70955365370221"><ele>604.0</ele><time>2026-04-12T08:32:12.999Z</time></trkpt><trkpt lat="41.73107791316041" lon="12.709562685987892"><ele>604.0000000000001</ele><time>2026-04-12T08:32:15.999Z</time></trkpt><trkpt lat="41.73101268091285" lon="12.709577863859957"><ele>604.0</ele><time>2026-04-12T08:32:17.999Z</time></trkpt><trkpt lat="41.73093059692487" lon="12.709585262116178"><ele>600.8333333333334</ele><time>2026-04-12T08:32:20.999Z</time></trkpt><trkpt lat="41.73086271825647" lon="12.709644956463865"><ele>597.6666666666667</ele><time>2026-04-12T08:32:23.999Z</time></trkpt><trkpt lat="41.73079737655422" lon="12.709700784861264"><ele>594.5</ele><time>2026-04-12T08:32:26.999Z</time></trkpt><trkpt lat="41.730750165454396" lon="12.709776424065772"><ele>591.3333333333334</ele><time>2026-04-12T08:32:29.999Z</time></trkpt><trkpt lat="41.73072142879085" lon="12.709857878743906"><ele>588.1666666666666</ele><time>2026-04-12T08:32:31.999Z</time></trkpt><trkpt lat="41.730716279820555" lon="12.709966867032774"><ele>585.0</ele><time>2026-04-12T08:32:34.999Z</time></trkpt><trkpt lat="41.73070075958157" lon="12.710063997463958"><ele>585.0</ele><time>2026-04-12T08:32:37.999Z</time></trkpt><trkpt lat="41.73067648659661" lon="12.710175773657715"><ele>585.0</ele><time>2026-04-12T08:32:41Z</time></trkpt><trkpt lat="41.730635563427235" lon="12.710267165750913"><ele>585.0</ele><time>2026-04-12T08:32:44Z</time></trkpt><trkpt lat="41.73058718713031" lon="12.710330472678887"><ele>585.0</ele><time>2026-04-12T08:32:46Z</time></trkpt><trkpt lat="41.73052488463579" lon="12.71040198875741"><ele>585.0</ele><time>2026-04-12T08:32:49Z</time></trkpt><trkpt lat="41.7304679370944" lon="12.710480685815831"><ele>585.0</ele><time>2026-04-12T08:32:52Z</time></trkpt><trkpt lat="41.73041358977849" lon="12.710554523575162"><ele>583.1666666666666</ele><time>2026-04-12T08:32:55Z</time></trkpt><trkpt lat="41.730349923808994" lon="12.710635347375623"><ele>581.3333333333334</ele><time>2026-04-12T08:32:58Z</time></trkpt><trkpt lat="41.7302980210615" lon="12.710712513707293"><ele>579.5</ele><time>2026-04-12T08:33:01Z</time></trkpt><trkpt lat="41.73023109569997" lon="12.710789959402168"><ele>577.6666666666667</ele><time>2026-04-12T08:33:04Z</time></trkpt><trkpt lat="41.73016360893219" lon="12.710846663041735"><ele>575.8333333333334</ele><time>2026-04-12T08:33:07Z</time></trkpt><trkpt lat="41.73010594861141" lon="12.71089085889828"><ele>574.0</ele><time>2026-04-12T08:33:09Z</time></trkpt><trkpt lat="41.73003914894919" lon="12.710931805265265"><ele>574.0</ele><time>2026-04-12T08:33:12Z</time></trkpt><trkpt lat="41.72996293022691" lon="12.710977914006195"><ele>574.0</ele><time>2026-04-12T08:33:15Z</time></trkpt><trkpt lat="41.7299065450247" lon="12.71105061603414"><ele>574.0</ele><time>2026-04-12T08:33:18Z</time></trkpt><trkpt lat="41.72988671440847" lon="12.71114401083494"><ele>574.0</ele><time>2026-04-12T08:33:21Z</time></trkpt><trkpt lat="41.729861311364424" lon="12.711237738695901"><ele>574.0</ele><time>2026-04-12T08:33:24Z</time></trkpt><trkpt lat="41.72985080918085" lon="12.711335785571114"><ele>574.0</ele><time>2026-04-12T08:33:27Z</time></trkpt><trkpt lat="41.72983137949985" lon="12.71143904070601"><ele>576.8333333333334</ele><time>2026-04-12T08:33:31Z</time></trkpt><trkpt lat="41.72982678321714" lon="12.711563935303499"><ele>579.6666666666667</ele><time>2026-04-12T08:33:34Z</time></trkpt><trkpt lat="41.72979747611197" lon="12.711677081469574"><ele>582.5</ele><time>2026-04-12T08:33:37Z</time></trkpt><trkpt lat="41.729782411792314" lon="12.711768210040713"><ele>585.3333333333334</ele><time>2026-04-12T08:33:39Z</time></trkpt><trkpt lat="41.729744865500095" lon="12.711859395758509"><ele>588.1666666666666</ele><time>2026-04-12T08:33:41Z</time></trkpt><trkpt lat="41.72967667900065" lon="12.711917083511645"><ele>591.0</ele><time>2026-04-12T08:33:43Z</time></trkpt><trkpt lat="41.72960318507663" lon="12.711947616589704"><ele>588.0</ele><time>2026-04-12T08:33:46Z</time></trkpt><trkpt lat="41.72954345885223" lon="12.711989846112475"><ele>585.0</ele><time>2026-04-12T08:33:55.999Z</time></trkpt><trkpt lat="41.729476270319296" lon="12.712014246272723"><ele>582.0</ele><time>2026-04-12T08:34:12.999Z</time></trkpt><trkpt lat="41.729406416408" lon="12.712074842615968"><ele>579.0</ele><time>2026-04-12T08:34:34.999Z</time></trkpt><trkpt lat="41.72933977377177" lon="12.712123445623718"><ele>576.0</ele><time>2026-04-12T08:34:37.999Z</time></trkpt><trkpt lat="41.72926020184258" lon="12.7122056371211"><ele>573.0</ele><time>2026-04-12T08:34:40.999Z</time></trkpt><trkpt lat="41.72918028261413" lon="12.712227594564311"><ele>573.0</ele><time>2026-04-12T08:34:43.999Z</time></trkpt><trkpt lat="41.729132912837656" lon="12.71229775579961"><ele>573.0</ele><time>2026-04-12T08:34:49Z</time></trkpt><trkpt lat="41.72908276480059" lon="12.712354769079317"><ele>573.0</ele><time>2026-04-12T08:34:59Z</time></trkpt><trkpt lat="41.72903855681215" lon="12.712416755169752"><ele>573.0</ele><time>2026-04-12T08:35:23Z</time></trkpt><trkpt lat="41.72899523314925" lon="12.712487531929856"><ele>573.0</ele><time>2026-04-12T08:35:42Z</time></trkpt><trkpt lat="41.72894654725096" lon="12.712582396453168"><ele>573.0</ele><time>2026-04-12T08:36:26.999Z</time></trkpt><trkpt lat="41.728905729477574" lon="12.712697122803267"><ele>573.0</ele><time>2026-04-12T08:36:29.999Z</time></trkpt><trkpt lat="41.728882166324304" lon="12.712794531595003"><ele>575.5</ele><time>2026-04-12T08:36:31.999Z</time></trkpt><trkpt lat="41.72887501845085" lon="12.712891182340986"><ele>578.0</ele><time>2026-04-12T08:36:33.999Z</time></trkpt><trkpt lat="41.72885055181731" lon="12.712973361081314"><ele>580.5</ele><time>2026-04-12T08:36:35.999Z</time></trkpt><trkpt lat="41.72885655510566" lon="12.713089636268537"><ele>583.0</ele><time>2026-04-12T08:36:37.999Z</time></trkpt><trkpt lat="41.72885254739594" lon="12.713213336365087"><ele>585.5</ele><time>2026-04-12T08:36:39.999Z</time></trkpt><trkpt lat="41.72884138594221" lon="12.713317150384363"><ele>588.0</ele><time>2026-04-12T08:36:41.999Z</time></trkpt><trkpt lat="41.728815628878706" lon="12.713406665428442"><ele>588.0</ele><time>2026-04-12T08:36:43.999Z</time></trkpt><trkpt lat="41.72876831355186" lon="12.713470366844637"><ele>588.0</ele><time>2026-04-12T08:36:46.999Z</time></trkpt><trkpt lat="41.72871221190028" lon="12.713512247272147"><ele>588.0</ele><time>2026-04-12T08:36:48.999Z</time></trkpt><trkpt lat="41.728633234734765" lon="12.713509647946411"><ele>588.0</ele><time>2026-04-12T08:36:50.999Z</time></trkpt><trkpt lat="41.728563785815204" lon="12.71350541910288"><ele>588.0</ele><time>2026-04-12T08:36:53Z</time></trkpt><trkpt lat="41.728496407905475" lon="12.713503981660628"><ele>588.0</ele><time>2026-04-12T08:36:55Z</time></trkpt><trkpt lat="41.72841773345663" lon="12.71351322303391"><ele>588.0</ele><time>2026-04-12T08:36:58Z</time></trkpt><trkpt lat="41.728343814257414" lon="12.713535628303458"><ele>588.2857142857143</ele><time>2026-04-12T08:37:01Z</time></trkpt><trkpt lat="41.728275702094614" lon="12.713547604944456"><ele>588.5714285714286</ele><time>2026-04-12T08:37:04Z</time></trkpt><trkpt lat="41.728187666382055" lon="12.71355175721168"><ele>588.8571428571429</ele><time>2026-04-12T08:37:07Z</time></trkpt><trkpt lat="41.72812388169375" lon="12.713579694651095"><ele>589.1428571428571</ele><time>2026-04-12T08:37:09Z</time></trkpt><trkpt lat="41.72804999837403" lon="12.713601703275929"><ele>589.4285714285714</ele><time>2026-04-12T08:37:12Z</time></trkpt><trkpt lat="41.72797490209906" lon="12.713625895243597"><ele>589.7142857142858</ele><time>2026-04-12T08:37:15Z</time></trkpt><trkpt lat="41.72790307608115" lon="12.713638206140525"><ele>590.0</ele><time>2026-04-12T08:37:17Z</time></trkpt><trkpt lat="41.727822770345696" lon="12.71366279310133"><ele>590.0</ele><time>2026-04-12T08:37:20Z</time></trkpt><trkpt lat="41.72774939698242" lon="12.713691960291671"><ele>590.0</ele><time>2026-04-12T08:37:22Z</time></trkpt><trkpt lat="41.72766361187271" lon="12.713713762358358"><ele>590.0</ele><time>2026-04-12T08:37:24Z</time></trkpt><trkpt lat="41.72757122465798" lon="12.713720556688992"><ele>590.0</ele><time>2026-04-12T08:37:26Z</time></trkpt><trkpt lat="41.72749410908117" lon="12.713700395375604"><ele>590.0</ele><time>2026-04-12T08:37:28Z</time></trkpt><trkpt lat="41.727418095624614" lon="12.713699325753277"><ele>590.0</ele><time>2026-04-12T08:37:43Z</time></trkpt><trkpt lat="41.727333626413724" lon="12.713691797482895"><ele>586.6666666666666</ele><time>2026-04-12T08:37:46Z</time></trkpt><trkpt lat="41.72726076732961" lon="12.713699862239723"><ele>583.3333333333333</ele><time>2026-04-12T08:37:48Z</time></trkpt><trkpt lat="41.72718214529308" lon="12.713759990134893"><ele>580.0</ele><time>2026-04-12T08:37:51Z</time></trkpt><trkpt lat="41.72712116161474" lon="12.71381787047982"><ele>576.6666666666666</ele><time>2026-04-12T08:37:53Z</time></trkpt><trkpt lat="41.727036541445706" lon="12.713872991619922"><ele>573.3333333333334</ele><time>2026-04-12T08:37:55Z</time></trkpt><trkpt lat="41.72693997072723" lon="12.713922992602086"><ele>570.0</ele><time>2026-04-12T08:37:57Z</time></trkpt><trkpt lat="41.72688307263377" lon="12.714016414311416"><ele>568.0</ele><time>2026-04-12T08:37:59Z</time></trkpt><trkpt lat="41.72680522207688" lon="12.714100039939886"><ele>566.0</ele><time>2026-04-12T08:38:01Z</time></trkpt><trkpt lat="41.72668852069546" lon="12.714189394953651"><ele>564.0</ele><time>2026-04-12T08:38:04Z</time></trkpt><trkpt lat="41.72662690145619" lon="12.714231893464069"><ele>562.0</ele><time>2026-04-12T08:38:05.999Z</time></trkpt><trkpt lat="41.72656454944506" lon="12.714247656285885"><ele>560.0</ele><time>2026-04-12T08:38:08.999Z</time></trkpt><trkpt lat="41.72649234450094" lon="12.714261601500988"><ele>558.0</ele><time>2026-04-12T08:38:11.999Z</time></trkpt><trkpt lat="41.72642516881251" lon="12.714219910784221"><ele>558.0</ele><time>2026-04-12T08:38:15.999Z</time></trkpt><trkpt lat="41.72635065220821" lon="12.714221682736058"><ele>558.0</ele><time>2026-04-12T08:38:18.999Z</time></trkpt><trkpt lat="41.72629174485104" lon="12.714157225004394"><ele>558.0</ele><time>2026-04-12T08:38:21.999Z</time></trkpt><trkpt lat="41.72624160105464" lon="12.714102322370005"><ele>558.0</ele><time>2026-04-12T08:38:24.999Z</time></trkpt><trkpt lat="41.72617246650534" lon="12.714043516276517"><ele>558.0</ele><time>2026-04-12T08:38:26.999Z</time></trkpt><trkpt lat="41.72609357121912" lon="12.714003887591856"><ele>558.0</ele><time>2026-04-12T08:38:28.999Z</time></trkpt><trkpt lat="41.72600340642729" lon="12.713933403948523"><ele>557.3333333333334</ele><time>2026-04-12T08:38:30.999Z</time></trkpt><trkpt lat="41.72594287882156" lon="12.713907624032855"><ele>556.6666666666666</ele><time>2026-04-12T08:38:31.999Z</time></trkpt><trkpt lat="41.72582709965594" lon="12.713872998895946"><ele>556.0</ele><time>2026-04-12T08:38:33.999Z</time></trkpt><trkpt lat="41.725726559204475" lon="12.713879707487935"><ele>555.3333333333333</ele><time>2026-04-12T08:38:35.999Z</time></trkpt><trkpt lat="41.725664629470586" lon="12.71390386837801"><ele>554.6666666666666</ele><time>2026-04-12T08:38:36.999Z</time></trkpt><trkpt lat="41.72557307218158" lon="12.713953213932358"><ele>554.0</ele><time>2026-04-12T08:38:38.999Z</time></trkpt><trkpt lat="41.72549790479958" lon="12.713968206428508"><ele>554.0</ele><time>2026-04-12T08:38:40.999Z</time></trkpt><trkpt lat="41.72541557023315" lon="12.713988004902198"><ele>554.0</ele><time>2026-04-12T08:38:42.999Z</time></trkpt><trkpt lat="41.725323224468745" lon="12.714034335752483"><ele>554.0</ele><time>2026-04-12T08:38:44.999Z</time></trkpt><trkpt lat="41.72524491493219" lon="12.714105873262234"><ele>554.0</ele><time>2026-04-12T08:38:46.999Z</time></trkpt><trkpt lat="41.725163822511256" lon="12.714168353396763"><ele>554.0</ele><time>2026-04-12T08:38:48.999Z</time></trkpt><trkpt lat="41.72508626231882" lon="12.714242410053698"><ele>550.6</ele><time>2026-04-12T08:38:50.999Z</time></trkpt><trkpt lat="41.72499303439318" lon="12.714321638263929"><ele>547.2</ele><time>2026-04-12T08:38:52.999Z</time></trkpt><trkpt lat="41.72492327789386" lon="12.714384016641443"><ele>543.8000000000001</ele><time>2026-04-12T08:38:54.999Z</time></trkpt><trkpt lat="41.72485095599275" lon="12.714413504551953"><ele>540.4</ele><time>2026-04-12T08:38:56.999Z</time></trkpt><trkpt lat="41.724742927045575" lon="12.714383860160176"><ele>537.0</ele><time>2026-04-12T08:38:59Z</time></trkpt><trkpt lat="41.724636416257184" lon="12.714345680957148"><ele>537.0</ele><time>2026-04-12T08:39:01Z</time></trkpt><trkpt lat="41.724529121671004" lon="12.71431090308737"><ele>537.0</ele><time>2026-04-12T08:39:03Z</time></trkpt><trkpt lat="41.724418518085265" lon="12.714275550008042"><ele>537.0</ele><time>2026-04-12T08:39:05Z</time></trkpt><trkpt lat="41.72432980432418" lon="12.714231589669087"><ele>537.0</ele><time>2026-04-12T08:39:07Z</time></trkpt><trkpt lat="41.72425682480487" lon="12.714203524239709"><ele>537.0</ele><time>2026-04-12T08:39:10Z</time></trkpt><trkpt lat="41.724170138681295" lon="12.714120085072098"><ele>535.3333333333334</ele><time>2026-04-12T08:39:13Z</time></trkpt><trkpt lat="41.724088359645336" lon="12.714074800164457"><ele>533.6666666666666</ele><time>2026-04-12T08:39:15Z</time></trkpt><trkpt lat="41.72401994798186" lon="12.714095841370433"><ele>532.0</ele><time>2026-04-12T08:39:17Z</time></trkpt><trkpt lat="41.723932206969415" lon="12.714114719061113"><ele>530.3333333333333</ele><time>2026-04-12T08:39:20Z</time></trkpt><trkpt lat="41.723855153302864" lon="12.714154236648081"><ele>528.6666666666666</ele><time>2026-04-12T08:39:23Z</time></trkpt><trkpt lat="41.72377241453542" lon="12.714185065508952"><ele>527.0</ele><time>2026-04-12T08:39:26Z</time></trkpt><trkpt lat="41.72369742589444" lon="12.714234494869183"><ele>527.0</ele><time>2026-04-12T08:39:29Z</time></trkpt><trkpt lat="41.72362081247121" lon="12.714293501805585"><ele>527.0</ele><time>2026-04-12T08:39:32Z</time></trkpt><trkpt lat="41.72353752590328" lon="12.714350518473298"><ele>527.0</ele><time>2026-04-12T08:39:35Z</time></trkpt><trkpt lat="41.723455834706606" lon="12.714396465326947"><ele>527.0</ele><time>2026-04-12T08:39:38Z</time></trkpt><trkpt lat="41.72336494505882" lon="12.714429490611167"><ele>527.0</ele><time>2026-04-12T08:39:41Z</time></trkpt><trkpt lat="41.723275194357285" lon="12.714450260947354"><ele>525.5</ele><time>2026-04-12T08:39:44Z</time></trkpt><trkpt lat="41.72321222977641" lon="12.714424234508293"><ele>524.0</ele><time>2026-04-12T08:39:46Z</time></trkpt><trkpt lat="41.723144331004654" lon="12.714349803174775"><ele>522.5</ele><time>2026-04-12T08:39:49Z</time></trkpt><trkpt lat="41.723080471380754" lon="12.714281220946072"><ele>521.0</ele><time>2026-04-12T08:39:52Z</time></trkpt><trkpt lat="41.72301029873601" lon="12.71421886727277"><ele>519.5</ele><time>2026-04-12T08:39:55Z</time></trkpt><trkpt lat="41.72293361263999" lon="12.714194967987728"><ele>518.0</ele><time>2026-04-12T08:39:58Z</time></trkpt><trkpt lat="41.72285615813774" lon="12.71418639764493"><ele>518.0</ele><time>2026-04-12T08:40:01Z</time></trkpt><trkpt lat="41.72279154732239" lon="12.714183494229808"><ele>518.0</ele><time>2026-04-12T08:40:03Z</time></trkpt><trkpt lat="41.72269711954686" lon="12.714185952827961"><ele>518.0</ele><time>2026-04-12T08:40:06Z</time></trkpt><trkpt lat="41.72260514019789" lon="12.714179412204254"><ele>518.0</ele><time>2026-04-12T08:40:09Z</time></trkpt><trkpt lat="41.722515833828716" lon="12.714171775940725"><ele>518.0</ele><time>2026-04-12T08:40:11.999Z</time></trkpt><trkpt lat="41.72243154271809" lon="12.714139803973561"><ele>518.0</ele><time>2026-04-12T08:40:14.999Z</time></trkpt><trkpt lat="41.72237310948172" lon="12.71410126940239"><ele>523.1999999999999</ele><time>2026-04-12T08:40:16.999Z</time></trkpt><trkpt lat="41.722305149882025" lon="12.714043931978416"><ele>528.4</ele><time>2026-04-12T08:40:18.999Z</time></trkpt><trkpt lat="41.72222826969799" lon="12.713977553910254"><ele>533.5999999999999</ele><time>2026-04-12T08:40:20.999Z</time></trkpt><trkpt lat="41.722127872302345" lon="12.71391671675264"><ele>538.8</ele><time>2026-04-12T08:40:22.999Z</time></trkpt><trkpt lat="41.722015587433" lon="12.713856494639755"><ele>544.0</ele><time>2026-04-12T08:40:24.999Z</time></trkpt><trkpt lat="41.7219082786818" lon="12.713802155119147"><ele>540.6666666666667</ele><time>2026-04-12T08:40:26.999Z</time></trkpt><trkpt lat="41.72183872901612" lon="12.713752518057895"><ele>537.3333333333334</ele><time>2026-04-12T08:40:28.999Z</time></trkpt><trkpt lat="41.72176695208137" lon="12.713690226664003"><ele>534.0</ele><time>2026-04-12T08:40:31.999Z</time></trkpt><trkpt lat="41.72169063606995" lon="12.713634854311675"><ele>530.6666666666666</ele><time>2026-04-12T08:40:34.999Z</time></trkpt><trkpt lat="41.72162283692324" lon="12.71357574678807"><ele>527.3333333333333</ele><time>2026-04-12T08:40:37.999Z</time></trkpt><trkpt lat="41.721546964349784" lon="12.713508264879541"><ele>524.0</ele><time>2026-04-12T08:40:40.999Z</time></trkpt><trkpt lat="41.72146507822672" lon="12.71345318968792"><ele>524.0</ele><time>2026-04-12T08:40:43.999Z</time></trkpt><trkpt lat="41.72138255912999" lon="12.713399240029966"><ele>524.0</ele><time>2026-04-12T08:40:46.999Z</time></trkpt><trkpt lat="41.721304646140126" lon="12.713344325304655"><ele>524.0</ele><time>2026-04-12T08:40:49.999Z</time></trkpt><trkpt lat="41.72124693254932" lon="12.713307416151183"><ele>524.0</ele><time>2026-04-12T08:40:51.999Z</time></trkpt><trkpt lat="41.72117163668315" lon="12.713248374598201"><ele>524.0</ele><time>2026-04-12T08:40:54.999Z</time></trkpt><trkpt lat="41.72109506194388" lon="12.713195276756107"><ele>524.0</ele><time>2026-04-12T08:40:57.999Z</time></trkpt><trkpt lat="41.72101136030048" lon="12.713146572318147"><ele>526.8333333333333</ele><time>2026-04-12T08:41:00.999Z</time></trkpt><trkpt lat="41.72093113637588" lon="12.713103092995294"><ele>529.6666666666666</ele><time>2026-04-12T08:41:04Z</time></trkpt><trkpt lat="41.72085852927702" lon="12.713037668427182"><ele>532.5</ele><time>2026-04-12T08:41:07Z</time></trkpt><trkpt lat="41.72078121863939" lon="12.712970286351155"><ele>535.3333333333334</ele><time>2026-04-12T08:41:10Z</time></trkpt><trkpt lat="41.72069933526696" lon="12.712935568981075"><ele>538.1666666666667</ele><time>2026-04-12T08:41:13Z</time></trkpt><trkpt lat="41.72062276850566" lon="12.712886412444137"><ele>541.0</ele><time>2026-04-12T08:41:16Z</time></trkpt><trkpt lat="41.720561953778976" lon="12.712847381866554"><ele>541.0000000000001</ele><time>2026-04-12T08:41:19Z</time></trkpt><trkpt lat="41.72050313353208" lon="12.712890923829063"><ele>541.0</ele><time>2026-04-12T08:41:22Z</time></trkpt><trkpt lat="41.720466539565976" lon="12.712983542473614"><ele>541.0</ele><time>2026-04-12T08:41:25Z</time></trkpt><trkpt lat="41.72044124139581" lon="12.713064293134323"><ele>541.0</ele><time>2026-04-12T08:41:28Z</time></trkpt><trkpt lat="41.720414200106624" lon="12.713142407494711"><ele>541.0</ele><time>2026-04-12T08:41:33Z</time></trkpt><trkpt lat="41.72036401232903" lon="12.713215059120037"><ele>541.0000000000001</ele><time>2026-04-12T08:41:36Z</time></trkpt><trkpt lat="41.720300252610976" lon="12.713252370054137"><ele>541.0</ele><time>2026-04-12T08:41:40Z</time></trkpt><trkpt lat="41.72023549130261" lon="12.713277876774713"><ele>537.6666666666667</ele><time>2026-04-12T08:41:48Z</time></trkpt><trkpt lat="41.720176706399286" lon="12.71332012003683"><ele>534.3333333333334</ele><time>2026-04-12T08:41:54Z</time></trkpt><trkpt lat="41.71991344730199" lon="12.713544140733909"><ele>531.0</ele><time>2026-04-12T08:50:14Z</time></trkpt><trkpt lat="41.719902387230924" lon="12.713440676585872"><ele>531.0</ele><time>2026-04-12T08:50:15Z</time></trkpt><trkpt lat="41.719893280284694" lon="12.71335454464332"><ele>531.0</ele><time>2026-04-12T08:50:17Z</time></trkpt><trkpt lat="41.7198872644612" lon="12.713570051573726"><ele>531.0</ele><time>2026-04-12T08:50:37Z</time></trkpt><trkpt lat="41.71988890343366" lon="12.713468445851595"><ele>531.0</ele><time>2026-04-12T08:50:38Z</time></trkpt><trkpt lat="41.71989058698555" lon="12.71335648978119"><ele>531.0</ele><time>2026-04-12T08:50:40Z</time></trkpt><trkpt lat="41.71990127892985" lon="12.713550877603849"><ele>531.0</ele><time>2026-04-12T08:51:04Z</time></trkpt><trkpt lat="41.7198880935474" lon="12.713384697280258"><ele>531.0</ele><time>2026-04-12T08:51:07Z</time></trkpt><trkpt lat="41.71990072104393" lon="12.713575120934998"><ele>531.0</ele><time>2026-04-12T08:51:10Z</time></trkpt><trkpt lat="41.719932645171895" lon="12.713691537264403"><ele>531.0</ele><time>2026-04-12T08:51:13Z</time></trkpt><trkpt lat="41.7198890197794" lon="12.713386460461408"><ele>531.0</ele><time>2026-04-12T08:51:14Z</time></trkpt><trkpt lat="41.71990637601637" lon="12.713556889302714"><ele>531.0</ele><time>2026-04-12T08:51:23Z</time></trkpt><trkpt lat="41.71991544686035" lon="12.713650270412767"><ele>531.0</ele><time>2026-04-12T08:51:25Z</time></trkpt><trkpt lat="41.71988706920055" lon="12.713395453743777"><ele>531.0</ele><time>2026-04-12T08:51:30Z</time></trkpt><trkpt lat="41.719888700490884" lon="12.713576070589676"><ele>531.0</ele><time>2026-04-12T08:52:11.999Z</time></trkpt><trkpt lat="41.71989415595074" lon="12.713377675669177"><ele>531.0</ele><time>2026-04-12T08:52:15.999Z</time></trkpt><trkpt lat="41.719901544943575" lon="12.71358944374285"><ele>531.0</ele><time>2026-04-12T08:52:27.999Z</time></trkpt><trkpt lat="41.71989716446536" lon="12.71339799413619"><ele>531.0</ele><time>2026-04-12T08:52:31.999Z</time></trkpt><trkpt lat="41.71989515098169" lon="12.71357019655334"><ele>531.0</ele><time>2026-04-12T08:52:44.999Z</time></trkpt><trkpt lat="41.719886879261864" lon="12.713371387397178"><ele>531.0</ele><time>2026-04-12T08:52:49.999Z</time></trkpt><trkpt lat="41.719900289583585" lon="12.713538599048096"><ele>531.0</ele><time>2026-04-12T08:52:57.999Z</time></trkpt><trkpt lat="41.71989267367666" lon="12.713335657259476"><ele>531.0</ele><time>2026-04-12T08:53:00.999Z</time></trkpt><trkpt lat="41.719900625930116" lon="12.713519870218976"><ele>531.0</ele><time>2026-04-12T08:53:13.999Z</time></trkpt><trkpt lat="41.71989470680219" lon="12.713328784775994"><ele>531.0</ele><time>2026-04-12T08:53:15.999Z</time></trkpt><trkpt lat="41.719907434658786" lon="12.713578746288686"><ele>531.0</ele><time>2026-04-12T08:53:25.999Z</time></trkpt><trkpt lat="41.71989848311265" lon="12.713349815425808"><ele>531.0</ele><time>2026-04-12T08:53:27.999Z</time></trkpt><trkpt lat="41.71991223405707" lon="12.713566705673173"><ele>531.0</ele><time>2026-04-12T08:53:34.999Z</time></trkpt><trkpt lat="41.71990300577958" lon="12.713345617559142"><ele>531.0</ele><time>2026-04-12T08:53:36.999Z</time></trkpt><trkpt lat="41.719909962919004" lon="12.713550789915034"><ele>531.0</ele><time>2026-04-12T08:53:41.999Z</time></trkpt><trkpt lat="41.71990373469516" lon="12.713347835372481"><ele>531.0</ele><time>2026-04-12T08:53:43.999Z</time></trkpt><trkpt lat="41.719903538216805" lon="12.71358854558767"><ele>531.0</ele><time>2026-04-12T08:53:53.999Z</time></trkpt><trkpt lat="41.719903836778535" lon="12.71334637818572"><ele>531.0</ele><time>2026-04-12T08:53:56.999Z</time></trkpt><trkpt lat="41.719905232426115" lon="12.713594595025466"><ele>531.0</ele><time>2026-04-12T08:53:59.999Z</time></trkpt><trkpt lat="41.719905815159706" lon="12.713478292996207"><ele>531.0</ele><time>2026-04-12T08:54:00.999Z</time></trkpt><trkpt lat="41.71990533445509" lon="12.713360941541989"><ele>531.0</ele><time>2026-04-12T08:54:02.999Z</time></trkpt><trkpt lat="41.719906988053275" lon="12.713588618292185"><ele>531.0</ele><time>2026-04-12T08:54:07.999Z</time></trkpt><trkpt lat="41.71990554801676" lon="12.71348758419739"><ele>531.0</ele><time>2026-04-12T08:54:08.999Z</time></trkpt><trkpt lat="41.71990375235005" lon="12.713364902931797"><ele>531.0</ele><time>2026-04-12T08:54:10.999Z</time></trkpt><trkpt lat="41.7199043686211" lon="12.713550170582854"><ele>531.0</ele><time>2026-04-12T08:54:17.998Z</time></trkpt><trkpt lat="41.719899997334664" lon="12.713362056647515"><ele>531.0</ele><time>2026-04-12T08:54:21.998Z</time></trkpt><trkpt lat="41.719904354258055" lon="12.713570706436062"><ele>531.0</ele><time>2026-04-12T08:54:34.999Z</time></trkpt><trkpt lat="41.7198991272819" lon="12.713362483947781"><ele>531.0</ele><time>2026-04-12T08:54:36.999Z</time></trkpt><trkpt lat="41.719903233126715" lon="12.71357262709345"><ele>531.0</ele><time>2026-04-12T08:54:38.999Z</time></trkpt><trkpt lat="41.719898638602636" lon="12.713364854646409"><ele>531.0</ele><time>2026-04-12T08:54:40.999Z</time></trkpt><trkpt lat="41.71990181434232" lon="12.713579035245722"><ele>531.0</ele><time>2026-04-12T08:54:43.999Z</time></trkpt><trkpt lat="41.71989788374721" lon="12.713367817024233"><ele>531.0</ele><time>2026-04-12T08:54:45.999Z</time></trkpt><trkpt lat="41.719905696274644" lon="12.713589782838229"><ele>531.0</ele><time>2026-04-12T08:54:48.999Z</time></trkpt><trkpt lat="41.71990320885176" lon="12.713502323723805"><ele>531.0</ele><time>2026-04-12T08:54:49.999Z</time></trkpt><trkpt lat="41.719899577900236" lon="12.713374727425762"><ele>531.0</ele><time>2026-04-12T08:54:51.999Z</time></trkpt><trkpt lat="41.71990119119805" lon="12.713746120830269"><ele>531.0</ele><time>2026-04-12T08:55:09.999Z</time></trkpt><trkpt lat="41.71990376857091" lon="12.713594144803764"><ele>531.0</ele><time>2026-04-12T08:55:11.999Z</time></trkpt><trkpt lat="41.71989916454436" lon="12.713382078249351"><ele>531.0</ele><time>2026-04-12T08:55:12.999Z</time></trkpt><trkpt lat="41.719898615319835" lon="12.713576048935407"><ele>531.0</ele><time>2026-04-12T08:55:18.999Z</time></trkpt><trkpt lat="41.71989945759345" lon="12.713353229321692"><ele>531.0</ele><time>2026-04-12T08:55:20.999Z</time></trkpt></trkseg></trk></gpx>